[[{"header":{"parameterUnit":"m.s-1","parameterCategory":1,"la1":30.6,"la2":28.766,"lo1":-90.7593,"lo2":-88.6598,"dy":0.0162,"dx":0.0183,"nx":116,"ny":114,"refTime":"2023-05-17T00:00:00:Z","depth":0,"parameterNumber":2,"parameterNumberName":"U-component_of_WINDS"},"data":[0.0,0.0,0.0,0.0,0.0,0.0,0.0,0.0,0.0,0.0,0.0,0.0,0.0,0.0,0.0,0.0,0.0,0.0,0.0,0.0,0.0,0.0,0.0,0.0,0.0,0.0,0.0,0.0,0.0,0.0,0.0,0.0,0.0,0.0,0.0,0.0,0.0,0.0,0.0,0.0,0.0,0.0,0.0,0.0,0.0,0.0,0.0,0.0,0.0,0.0,0.0,0.0,0.0,0.0,0.0,0.0,0.0,0.0,0.0,0.0,0.0,0.0,0.0,0.0,0.0,0.0,0.0,0.0,0.0,0.0,0.0,0.0,0.0,0.0,0.0,0.0,0.0,0.0,0.0,0.0,0.0,0.0,0.0,0.0,0.0,0.0,0.0,0.0,0.0,0.0,0.0,0.0,0.0,0.0,0.0,0.0,0.0,0.0,0.0,0.0,0.0,0.0,0.0,0.0,0.0,0.0,0.0,0.0,0.0,0.0,0.0,0.0,0.0,0.0,0.0,0.0,0.0,0.0,0.0,0.0,0.0,0.0,0.0,0.0,0.0,0.0,0.0,0.0,0.0,0.0,0.0,0.0,0.0,0.0,0.0,0.0,0.0,0.0,0.0,0.0,0.0,0.0,0.0,0.0,0.0,0.0,0.0,0.0,0.0,0.0,0.0,0.0,0.0,0.0,0.0,0.0,0.0,0.0,0.0,0.0,0.0,0.0,0.0,0.0,0.0,0.0,0.0,0.0,0.0,0.0,0.0,0.0,0.0,0.0,0.0,0.0,0.0,0.0,0.0,0.0,0.0,0.0,0.0,0.0,0.0,0.0,0.0,0.0,0.0,0.0,0.0,0.0,0.0,0.0,0.0,0.0,0.0,0.0,0.0,0.0,0.0,0.0,0.0,0.0,0.0,0.0,0.0,0.0,0.0,0.0,0.0,0.0,0.0,0.0,0.0,0.0,0.0,0.0,0.0,0.0,0.0,0.0,0.0,0.0,0.0,0.0,0.0,0.0,0.0,0.0,0.0,0.0,0.0,0.0,0.0,0.0,0.0,0.0,0.0,0.0,0.0,0.0,0.0,0.0,0.0,0.0,0.0,0.0,0.0,0.0,0.0,0.0,0.0,0.0,0.0,0.0,0.0,0.0,0.0,0.0,0.0,0.0,0.0,0.0,0.0,0.0,0.0,0.0,0.0,0.0,0.0,0.0,0.0,0.0,0.0,0.0,0.0,0.0,0.0,0.0,0.0,0.0,0.0,0.0,0.0,0.0,0.0,0.0,0.0,0.0,0.0,0.0,0.0,0.0,0.0,0.0,0.0,0.0,0.0,0.0,0.0,0.0,0.0,0.0,0.0,0.0,0.0,0.0,0.0,0.0,0.0,0.0,0.0,0.0,0.0,0.0,0.0,0.0,0.0,0.0,0.0,0.0,0.0,0.0,0.0,0.0,0.0,0.0,0.0,0.0,0.0,0.0,0.0,0.0,0.0,0.0,0.0,0.0,0.0,0.0,0.0,0.0,0.0,0.0,0.0,0.0,0.0,0.0,0.0,0.0,0.0,0.0,0.0,0.0,0.0,0.0,0.0,0.0,0.0,0.0,0.0,0.0,0.0,0.0,0.0,0.0,0.0,0.0,0.0,0.0,0.0,0.0,0.0,0.0,0.0,0.0,0.0,0.0,0.0,0.0,0.0,0.0,0.0,0.0,0.0,0.0,0.0,0.0,0.0,0.0,0.0,0.0,0.0,0.0,0.0,0.0,0.0,0.0,0.0,0.0,0.0,0.0,0.0,0.0,0.0,0.0,0.0,0.0,0.0,0.0,0.0,0.0,0.0,0.0,0.0,0.0,0.0,0.0,0.0,0.0,0.0,0.0,0.0,0.0,0.0,0.0,0.0,0.0,0.0,0.0,0.0,0.0,0.0,0.0,0.0,0.0,0.0,0.0,0.0,0.0,0.0,0.0,0.0,0.0,0.0,0.0,0.0,0.0,0.0,0.0,0.0,0.0,0.0,0.0,0.0,0.0,0.0,0.0,0.0,0.0,0.0,0.0,0.0,0.0,0.0,0.0,0.0,0.0,0.0,0.0,0.0,0.0,0.0,0.0,0.0,0.0,0.0,0.0,0.0,0.0,0.0,0.0,0.0,0.0,0.0,0.0,0.0,0.0,0.0,0.0,0.0,0.0,0.0,0.0,0.0,0.0,0.0,0.0,0.0,0.0,0.0,0.0,0.0,0.0,0.0,0.0,0.0,0.0,0.0,0.0,0.0,0.0,0.0,0.0,0.0,0.0,0.0,0.0,0.0,0.0,0.0,0.0,0.0,0.0,0.0,0.0,0.0,0.0,0.0,0.0,0.0,0.0,0.0,0.0,0.0,0.0,0.0,0.0,0.0,0.0,0.0,0.0,0.0,0.0,0.0,0.0,0.0,0.0,0.0,0.0,0.0,0.0,0.0,0.0,0.0,0.0,0.0,0.0,0.0,0.0,0.0,0.0,0.0,0.0,0.0,0.0,0.0,0.0,0.0,0.0,0.0,0.0,0.0,0.0,0.0,0.0,0.0,0.0,0.0,0.0,0.0,0.0,0.0,0.0,0.0,0.0,0.0,0.0,0.0,0.0,0.0,0.0,0.0,0.0,0.0,0.0,0.0,0.0,0.0,0.0,0.0,0.0,0.0,0.0,0.0,0.0,0.0,0.0,0.0,0.0,0.0,0.0,0.0,0.0,0.0,0.0,0.0,0.0,0.0,0.0,0.0,0.0,0.0,0.0,0.0,0.0,0.0,0.0,0.0,0.0,0.0,0.0,0.0,0.0,0.0,0.0,0.0,0.0,0.0,0.0,0.0,0.0,0.0,0.0,0.0,0.0,0.0,0.0,0.0,0.0,0.0,0.0,0.0,0.0,0.0,0.0,0.0,0.0,0.0,0.0,0.0,0.0,0.0,0.0,0.0,0.0,0.0,0.0,0.0,0.0,0.0,0.0,0.0,0.0,0.0,0.0,0.0,0.0,0.0,0.0,0.0,0.0,0.0,0.0,0.0,0.0,0.0,0.0,0.0,0.0,0.0,0.0,0.0,0.0,0.0,0.0,0.0,0.0,0.0,0.0,0.0,0.0,0.0,0.0,0.0,0.0,0.0,0.0,0.0,0.0,0.0,0.0,0.0,0.0,0.0,0.0,0.0,0.0,0.0,0.0,0.0,0.0,0.0,0.0,0.0,0.0,0.0,0.0,0.0,0.0,0.0,0.0,0.0,0.0,0.0,0.0,0.0,0.0,0.0,0.0,0.0,0.0,0.0,0.0,0.0,0.0,0.0,0.0,0.0,0.0,0.0,0.0,0.0,0.0,0.0,0.0,0.0,0.0,0.0,0.0,0.0,0.0,0.0,0.0,0.0,0.0,0.0,0.0,0.0,0.0,0.0,0.0,0.0,0.0,0.0,0.0,0.0,0.0,0.0,0.0,0.0,0.0,0.0,0.0,0.0,0.0,0.0,0.0,0.0,0.0,0.0,0.0,0.0,0.0,0.0,0.0,0.0,0.0,0.0,0.0,0.0,0.0,0.0,0.0,0.0,0.0,0.0,0.0,0.0,0.0,0.0,0.0,0.0,0.0,0.0,0.0,0.0,0.0,0.0,0.0,0.0,0.0,0.0,0.0,0.0,0.0,0.0,0.0,0.0,0.0,0.0,0.0,0.0,0.0,0.0,0.0,0.0,0.0,0.0,0.0,0.0,0.0,0.0,0.0,0.0,0.0,0.0,0.0,0.0,0.0,0.0,0.0,0.0,0.0,0.0,0.0,0.0,0.0,0.0,0.0,0.0,0.0,0.0,0.0,0.0,0.0,0.0,0.0,0.0,0.0,0.0,0.0,0.0,0.0,0.0,0.0,0.0,0.0,0.0,0.0,0.0,0.0,0.0,0.0,0.0,0.0,0.0,0.0,0.0,0.0,0.0,0.0,0.0,0.0,0.0,0.0,0.0,0.0,0.0,0.0,0.0,0.0,0.0,0.0,0.0,0.0,0.0,0.0,0.0,0.0,0.0,0.0,0.0,0.0,0.0,0.0,0.0,0.0,0.0,0.0,0.0,0.0,0.0,0.0,0.0,0.0,0.0,0.0,0.0,0.0,0.0,0.0,0.0,0.0,0.0,0.0,0.0,0.0,0.0,0.0,0.0,0.0,0.0,0.0,0.0,0.0,0.0,0.0,0.0,0.0,0.0,0.0,0.0,0.0,0.0,0.0,0.0,0.0,0.0,0.0,0.0,0.0,0.0,0.0,0.0,0.0,0.0,0.0,0.0,0.0,0.0,0.0,0.0,0.0,0.0,0.0,0.0,0.0,0.0,0.0,0.0,0.0,0.0,0.0,0.0,0.0,0.0,0.0,0.0,0.0,0.0,0.0,0.0,0.0,0.0,0.0,0.0,0.0,0.0,0.0,0.0,0.0,0.0,0.0,0.0,0.0,0.0,0.0,0.0,0.0,0.0,0.0,0.0,0.0,0.0,0.0,0.0,0.0,0.0,0.0,0.0,0.0,0.0,0.0,0.0,0.0,0.0,0.0,0.0,0.0,0.0,0.0,0.0,0.0,0.0,0.0,0.0,0.0,0.0,0.0,0.0,0.0,0.0,0.0,0.0,0.0,0.0,0.0,0.0,0.0,0.0,0.0,0.0,0.0,0.0,0.0,0.0,0.0,0.0,0.0,0.0,0.0,0.0,0.0,0.0,0.0,0.0,0.0,0.0,0.0,0.0,0.0,0.0,0.0,0.0,0.0,0.0,0.0,0.0,0.0,0.0,0.0,0.0,0.0,0.0,0.0,0.0,0.0,0.0,0.0,0.0,0.0,0.0,0.0,0.0,0.0,0.0,0.0,0.0,0.0,0.0,0.0,0.0,0.0,0.0,0.0,0.0,0.0,0.0,0.0,0.0,0.0,0.0,0.0,0.0,0.0,0.0,0.0,0.0,0.0,0.0,0.0,0.0,0.0,0.0,0.0,0.0,0.0,0.0,0.0,0.0,0.0,0.0,0.0,0.0,0.0,0.0,0.0,0.0,0.0,0.0,0.0,0.0,0.0,0.0,0.0,0.0,0.0,0.0,0.0,0.0,0.0,0.0,0.0,0.0,0.0,0.0,0.0,0.0,0.0,0.0,0.0,0.0,0.0,0.0,0.0,0.0,0.0,0.0,0.0,0.0,0.0,0.0,0.0,0.0,0.0,0.0,0.0,0.0,0.0,0.0,0.0,0.0,0.0,0.0,0.0,0.0,0.0,0.0,0.0,0.0,0.0,0.0,0.0,0.0,0.0,0.0,0.0,0.0,0.0,0.0,0.0,0.0,0.0,0.0,0.0,0.0,0.0,0.0,0.0,0.0,0.0,0.0,0.0,0.0,0.0,0.0,0.0,0.0,0.0,0.0,0.0,0.0,0.0,0.0,0.0,0.0,0.0,0.0,0.0,0.0,0.0,0.0,0.0,0.0,0.0,0.0,0.0,0.0,0.0,0.0,0.0,0.0,0.0,0.0,0.0,0.0,0.0,0.0,0.0,0.0,0.0,0.0,0.0,0.0,0.0,0.0,0.0,0.0,0.0,0.0,0.0,0.0,0.0,0.0,0.0,0.0,0.0,0.0,0.0,0.0,0.0,0.0,0.0,0.0,0.0,0.0,0.0,0.0,0.0,0.0,0.0,0.0,0.0,0.0,0.0,0.0,0.0,0.0,0.0,0.0,0.0,0.0,0.0,0.0,0.0,0.0,0.0,0.0,0.0,0.0,0.0,0.0,0.0,0.0,0.0,0.0,0.0,0.0,0.0,0.0,0.0,0.0,0.0,0.0,0.0,0.0,0.0,0.0,0.0,0.0,0.0,0.0,0.0,0.0,0.0,0.0,0.0,0.0,0.0,0.0,0.0,0.0,0.0,0.0,0.0,0.0,0.0,0.0,0.0,0.0,0.0,0.0,0.0,0.0,0.0,0.0,0.0,0.0,0.0,0.0,0.0,0.0,0.0,0.0,0.0,0.0,0.0,0.0,0.0,0.0,0.0,0.0,0.0,0.0,0.0,0.0,0.0,0.0,0.0,0.0,0.0,0.0,0.0,0.0,0.0,0.0,0.0,0.0,0.0,0.7669,0.0,0.0,0.0,0.0,0.0,0.0,0.0,0.0,0.0,0.0,0.0,0.0,0.0,0.0,0.0,0.0,0.0,0.0,0.0,0.0,0.0,0.0,0.0,0.0,0.0,0.0,0.0,0.0,0.0,0.0,0.0,0.0,0.0,0.0,0.0,0.0,0.0,0.0,0.0,0.0,0.0,0.0,0.0,0.0,0.0,0.0,0.0,0.0,0.0,0.0,0.0,0.0,0.0,0.0,0.0,0.0,0.0,0.0,0.0,0.0,0.0,0.0,0.0,0.0,0.0,0.0,0.0,0.0,0.0,0.0,0.0,0.0,0.0,0.0,0.0,0.0,0.0,0.0,0.0,0.0,0.0,0.0,0.0,0.0,0.0,0.0,0.0,0.0,0.0,0.0,0.0,0.0,0.0,0.0,0.0,0.0,0.0,0.0,0.0,0.0,0.0,0.0,0.0,0.0,0.0,0.0,0.0,0.0,0.0,0.0,0.0,0.0,0.0,0.0,0.0,0.0,0.7981,0.0,0.0,0.0,0.0,0.0,0.0,0.0,0.0,0.0,0.0,0.0,0.0,0.0,0.0,0.0,0.0,0.0,0.0,0.0,0.0,0.0,0.0,0.0,0.0,0.0,0.0,0.0,0.0,0.0,0.0,0.0,0.0,0.0,0.0,0.0,0.0,0.0,0.0,0.0,0.0,0.0,0.0,0.0,0.0,0.0,0.0,0.0,0.0,0.0,0.0,0.0,0.0,0.0,0.0,0.0,0.0,0.0,0.0,0.0,0.0,0.0,0.0,0.0,0.0,0.0,0.0,0.0,0.0,0.0,0.0,0.0,0.0,0.0,0.0,0.0,0.0,0.0,0.0,0.0,0.0,0.0,0.0,0.0,0.0,0.0,0.0,0.0,0.0,0.0,0.0,0.0,0.0,0.0,0.0,0.0,0.0,0.0,0.0,0.0,0.0,0.0,0.0,0.0,0.0,0.0,0.0,0.0,0.0,0.943,0.9357,0.8969,0.9487,0.974,0.9795,0.9176,0.9027,0.9238,0.8716,0.0,0.0,0.0,0.0,0.0,0.0,0.0,0.0,0.0,0.0,0.0,0.0,0.0,0.0,0.0,0.0,0.0,0.0,0.0,0.0,0.0,0.0,0.0,0.0,0.0,0.0,0.0,0.0,0.0,0.0,0.0,0.0,0.0,0.0,0.0,0.0,0.0,0.0,0.3887,0.3927,0.387,0.3639,0.228,0.0,0.0,0.0,0.0,0.0,0.0,0.0,0.0,0.0,0.0,0.0,0.0,0.0,0.0,0.0,0.0,0.0,0.0,0.0,0.0,0.0,0.0,0.0,0.0,0.0,0.0,0.0,0.0,0.0,0.0,0.0,0.0,0.0,0.0,0.0,0.0,0.0,0.0,0.0,0.0,0.0,0.0,0.0,0.6694,0.6988,0.0,0.0,0.0,0.0,0.0,0.0,0.0,0.0,0.0,0.0,0.0,0.0,0.0,0.8192,0.8138,0.9074,0.9937,1.0612,1.0537,1.0375,1.037,1.0434,1.0461,1.0466,1.0578,0.0,0.9523,0.9464,0.0,0.0,0.0,0.0,0.0,0.0,0.0,0.0,0.0,0.0,0.0,0.0,0.0,0.0,0.0,0.0,0.0,0.0,0.0,0.0,0.0,0.0,0.0,0.0,0.0,0.0,0.0,0.0,0.0,0.0,0.0,0.0,0.0,0.0,0.0,0.0,0.3487,0.4101,0.4283,0.4455,0.4433,0.4293,0.3757,0.2905,0.2042,0.2336,0.0,0.0,0.0,0.0,0.0,0.0,0.0,0.0,0.0,0.0,0.0,0.0,0.0,0.0,0.0,0.0,0.0,0.0,0.0,0.0,0.0,0.0,0.0,0.0,0.0,0.0,0.0,0.0,0.0,0.0,0.0,0.0,0.0,0.0,0.0,0.0,0.0,0.0,0.0,0.6026,0.6613,0.6789,0.6668,0.6345,0.0,0.0,0.0,0.0,0.0,0.0,0.0,0.0,0.0,0.8656,0.898,0.9453,0.9994,1.0789,1.1381,1.1666,1.1478,1.1429,1.1429,1.1429,1.1429,1.1435,1.1537,1.1198,1.0552,1.0283,0.9911,0.9502,0.0,0.0,0.0,0.0,0.9114,0.9114,0.0,0.0,0.0,0.0,0.0,0.0,0.0,0.0,0.0,0.0,0.0,0.0,0.0,0.0,0.0,-0.1531,0.0,0.0,0.0,0.0,0.0,0.0,0.0,0.0,0.0,0.0,0.0,0.0,0.4101,0.4424,0.455,0.476,0.4782,0.4618,0.478,0.4329,0.3258,0.3097,0.2659,0.0,0.0,0.0,0.0,0.0,0.0,0.0,0.0,0.0,0.0,0.0,0.0,0.0,0.0,0.0,0.0,0.0,0.0,0.0,0.0,0.0,0.0,0.0,0.0,0.0,0.0,0.0,0.0,0.0,0.0,0.0,0.0,0.0,0.0,0.0,0.0,0.0,0.0,0.6624,0.7194,0.7205,0.7409,0.7333,0.0,0.0,0.0,0.0,0.0,0.0,0.8201,0.864,0.9363,1.031,1.0288,1.0631,1.1532,1.2062,1.2242,1.2242,1.2145,1.214,1.214,1.214,1.214,1.214,1.214,1.1849,1.1494,1.1015,1.0643,1.0363,1.0175,1.0105,1.0083,0.9911,0.9852,0.9852,0.0,0.0,0.0,0.0,0.0,0.0,0.0,0.0,0.0,0.0,0.0,0.0,0.0,0.0,-0.1447,-0.1526,-0.1471,-0.1521,0.0,0.0,0.0,0.0,0.0,0.0,0.0,0.0,0.0,0.4622,0.4937,0.5194,0.5315,0.5417,0.5515,0.5501,0.5506,0.471,0.3499,0.334,0.3107,0.2662,0.0,0.0,0.0,0.0,0.0,0.0,0.0,0.0,0.0,0.0,0.0,0.0,0.0,0.0,0.0,0.0,0.0,0.0,0.0,0.0,0.0,0.0,0.0,0.0,0.0,0.0,0.0,0.0,0.0,0.0,0.0,0.0,0.0,0.0,0.0,0.0,0.0,0.0,0.0,0.9236,0.9515,0.0,0.0,0.0,0.0,0.8803,0.9406,0.9717,0.9604,1.0619,1.1396,1.1946,1.1978,1.2091,1.221,1.2135,1.214,1.214,1.214,1.214,1.214,1.214,1.214,1.214,1.214,1.2124,1.1973,1.151,1.1042,1.0616,1.0606,1.06,1.06,1.0584,1.0579,1.0579,0.0,0.0,0.0,0.0,0.0,0.0,0.0,0.0,0.0,0.0,0.0,0.0,0.0,-0.1667,-0.1569,-0.1453,-0.0898,-0.0595,-0.0631,0.0,0.0,0.0,0.0,0.0,0.0,0.0,0.3784,0.4156,0.4614,0.4979,0.5237,0.5536,0.5741,0.5844,0.6083,0.5848,0.5085,0.4636,0.4168,0.3734,0.3323,0.286,0.0,0.0,0.0,0.0,0.0,0.0,0.0,0.0,0.0,0.0,0.0,0.0,0.0,0.0,0.0,0.0,0.0,0.0,0.0,0.0,0.0,0.0,0.0,0.0,0.0,0.0,0.0,0.0,0.0,0.0,0.0,0.0,0.0,0.0,0.0,0.0,0.0,0.9218,0.9902,0.0,0.9727,0.9968,1.0093,1.0093,1.0761,1.1123,1.1008,1.1563,1.1972,1.2237,1.2401,1.2488,1.2384,1.2531,1.2506,1.2506,1.2506,1.2506,1.2506,1.2506,1.2506,1.2506,1.2506,1.2425,1.2269,1.2108,1.1844,1.1532,1.1381,1.1322,1.1284,1.0972,1.0859,1.0837,0.0,0.0,0.0,0.0,0.0,0.0,0.0,0.0,0.0,0.0,0.0,-0.1793,-0.1686,-0.1588,-0.1539,-0.1397,-0.0559,-0.0158,-0.0586,0.0,0.0,0.0,0.0,0.0,0.0,0.3105,0.383,0.4289,0.4758,0.5196,0.5394,0.577,0.5974,0.6226,0.6443,0.6559,0.6353,0.5973,0.5386,0.4708,0.4326,0.3701,0.3001,0.0,0.0,0.0,0.0,0.0,0.0,0.0,0.0,0.0,0.0,0.0,0.0,0.0,0.0,0.0,0.0,0.0,0.0,0.0,0.0,0.0,0.0,0.0,0.0,0.0,0.0,0.0,0.0,0.0,0.0,0.0,0.0,0.0,0.0,0.0,0.9908,0.9658,1.0595,1.1014,1.0534,1.0958,1.1227,1.1227,1.1584,1.1913,1.217,1.2117,1.2341,1.2598,1.2773,1.2816,1.2533,1.2845,1.2926,1.2764,1.2845,1.284,1.2764,1.2764,1.2764,1.2764,1.2764,1.2678,1.2533,1.2533,1.2436,1.2258,1.1941,1.1817,1.1779,1.1462,1.1343,1.1311,0.0,0.0,0.0,0.0,0.0,0.0,0.0,0.0,0.0,0.0,-0.1629,-0.155,-0.1441,-0.1375,-0.1272,-0.1301,-0.0488,-0.0473,-0.1468,-0.051,0.0,0.0,0.0,0.0,0.3419,0.3911,0.4487,0.4959,0.5544,0.5793,0.5808,0.6013,0.6325,0.6448,0.6677,0.6953,0.7171,0.7065,0.6567,0.5708,0.5008,0.4498,0.3951,0.0,0.0,0.0,0.0,0.0,0.0,0.0,0.0,0.0,0.0,0.0,0.0,0.0,0.0,0.0,0.0,0.0,0.0,0.0,0.0,0.0,0.0,0.0,0.0,0.0,0.0,0.0,0.0,0.0,0.0,0.0,0.0,0.0,0.931,0.9993,1.0624,1.085,1.1626,1.2183,1.2183,1.2183,1.2183,1.2091,1.1989,1.2093,1.2759,1.247,1.2651,1.3209,1.312,1.3012,1.2786,1.3249,1.3243,1.2786,1.3012,1.3001,1.2786,1.2775,1.2775,1.2775,1.2764,1.2764,1.2764,1.2764,1.2764,1.2716,1.2335,1.2151,1.2151,1.214,1.214,1.2016,0.0,0.0,0.0,0.0,0.0,0.0,0.0,0.0,0.0,0.0,-0.1638,-0.1452,-0.1517,-0.1418,-0.1326,-0.1335,-0.0583,-0.0162,-0.0452,0.0,0.0,0.0,0.0,0.0,0.3742,0.4238,0.4616,0.4962,0.5167,0.5344,0.5602,0.5755,0.5999,0.6456,0.6874,0.7241,0.7321,0.7616,0.7462,0.6829,0.6124,0.5368,0.4662,0.0,0.0,0.0,0.0,0.0,0.0,0.0,0.0,0.0,0.0,0.0,0.0,0.0,0.0,0.0,0.0,0.0,0.0,0.0,0.0,0.0,0.0,0.0,0.0,0.0,0.0,0.0,0.0,0.0,0.0,0.0,0.0,1.0349,1.0378,1.1258,1.1987,1.2379,1.2894,1.3087,1.3087,1.3087,1.3082,1.2872,1.2867,1.2925,1.3058,1.3222,1.3355,1.3373,1.3378,1.3346,1.3281,1.3416,1.3416,1.3287,1.3346,1.3346,1.3276,1.3093,1.3012,1.3001,1.2834,1.2764,1.2764,1.2764,1.2764,1.2732,1.2431,1.2312,1.2296,1.2113,1.214,1.2129,0.0,0.0,0.0,0.0,0.0,0.0,0.0,0.0,0.0,0.0,-0.1614,-0.1484,-0.152,-0.1422,-0.1329,-0.1329,-0.0497,-0.0241,-0.0674,0.0,0.0,0.0,0.0,0.4389,0.4256,0.4576,0.4853,0.5086,0.5124,0.5297,0.5501,0.5673,0.604,0.6393,0.6962,0.7341,0.7533,0.7975,0.791,0.7524,0.7108,0.6326,0.5349,0.5201,0.4751,0.4227,0.421,0.4157,0.4101,0.3575,0.0,0.0,0.0,0.0,0.0,0.0,0.0,0.0,0.0,0.0,0.0,0.0,0.0,0.0,0.0,0.0,0.0,0.0,0.0,0.0,0.0,0.0,0.0,0.0,1.0801,1.1806,1.221,1.2624,1.2996,1.3362,1.3529,1.362,1.362,1.3534,1.3475,1.3362,1.3367,1.341,1.3501,1.3637,1.3637,1.362,1.362,1.3577,1.348,1.368,1.3674,1.348,1.3577,1.3572,1.3475,1.333,1.326,1.3254,1.312,1.3066,1.3055,1.2947,1.2904,1.2883,0.0,0.0,0.0,0.0,1.2192,1.192,0.0,0.0,0.0,0.0,0.0,0.0,0.0,0.0,0.0,0.0,0.0,-0.1443,-0.1378,-0.1326,-0.1303,-0.1303,-0.0568,-0.0551,0.0,0.0,0.0,0.1721,0.3742,0.4834,0.4734,0.4912,0.5088,0.5259,0.5351,0.5445,0.5543,0.5788,0.6035,0.643,0.6866,0.7345,0.7619,0.8015,0.8009,0.7913,0.7913,0.713,0.5908,0.5791,0.5487,0.5017,0.4812,0.4653,0.4575,0.4292,0.0,0.0,0.0,0.0,0.0,0.0,0.0,0.0,0.0,0.0,0.0,0.0,0.0,0.0,0.0,0.0,0.0,0.0,0.0,0.0,0.0,0.0,0.0,0.0,1.2278,1.347,1.4175,1.3927,1.3744,1.3916,1.3938,1.3927,1.3906,1.3717,1.3588,1.3561,1.367,1.3762,1.3852,0.0,0.0,0.0,0.0,1.3841,1.3642,1.4035,1.4019,1.3599,1.3776,1.3755,1.3561,1.3529,1.3518,1.3518,1.3491,1.348,1.3459,1.3238,1.313,1.3082,1.285,1.2764,1.2764,1.2764,1.2341,1.1692,0.0,0.0,0.0,0.0,0.0,0.0,0.0,0.0,0.0,-0.1805,-0.1598,-0.1443,-0.1378,-0.1326,-0.1303,-0.1303,-0.128,-0.1325,0.0,0.0,0.2143,0.2453,0.4062,0.4958,0.4914,0.5098,0.5245,0.5355,0.5441,0.5567,0.5729,0.5782,0.5886,0.6156,0.6519,0.6873,0.7087,0.7431,0.7734,0.7788,0.778,0.7396,0.7025,0.6794,0.6618,0.6361,0.6147,0.6039,0.5958,0.5317,0.5112,0.5017,0.4261,0.0,0.0,0.0,0.0,0.0,0.0,0.0,0.0,0.0,0.0,0.0,0.0,0.0,0.0,0.0,0.0,0.0,0.0,0.0,0.0,1.1845,1.3101,1.4164,1.4676,1.4842,1.4853,1.4697,1.4676,1.4606,1.4538,1.4478,1.4375,1.4073,1.4056,1.4078,1.4121,1.4256,1.4352,1.4396,1.4579,1.4654,1.4611,1.4514,1.4422,1.4331,0.0,0.0,1.4051,1.3846,1.3755,1.3744,1.3556,1.348,1.3475,1.3427,1.3287,1.3082,1.285,1.2764,1.2764,1.2764,1.2441,1.1915,0.0,0.0,0.0,0.0,0.0,0.0,0.0,0.0,0.0,0.0,-0.1695,-0.1549,-0.1433,-0.1441,-0.1344,-0.1286,-0.1048,0.0,0.0,0.0883,0.2284,0.2209,0.4009,0.5006,0.5037,0.5261,0.542,0.5512,0.56,0.5737,0.5919,0.5961,0.6053,0.619,0.6669,0.687,0.692,0.7369,0.76,0.7634,0.7629,0.7591,0.7672,0.7386,0.723,0.7046,0.6861,0.6679,0.6398,0.6126,0.5932,0.5834,0.5368,0.4957,0.4486,0.0,0.0,0.0,0.0,0.0,0.0,0.0,0.0,0.0,0.0,0.0,0.0,0.0,0.0,0.9397,0.0,0.0,1.271,1.3718,1.4436,1.5063,1.5531,1.5601,1.5467,1.5112,1.4966,1.4961,1.4959,1.4733,1.4565,1.4213,1.4299,1.4363,1.4363,1.4471,1.4536,1.4536,1.4762,1.4826,1.4708,1.4708,1.4708,1.4708,1.4595,1.4541,1.453,1.4288,1.4175,1.4164,1.3938,1.3836,1.382,1.3577,1.333,1.3082,1.285,1.2764,1.2764,1.2764,1.2467,1.198,0.0,0.0,0.0,0.0,0.0,0.0,0.0,0.0,0.0,0.0,-0.1726,-0.1569,-0.1536,-0.152,-0.1493,0.0,0.0,0.0,0.0,0.1186,0.2419,0.1728,0.3699,0.4803,0.4836,0.5294,0.558,0.5669,0.578,0.5916,0.608,0.6166,0.6255,0.6347,0.6685,0.6851,0.6987,0.7257,0.7404,0.7421,0.74,0.767,0.803,0.7738,0.7514,0.7418,0.7249,0.6929,0.6586,0.6611,0.6507,0.6355,0.629,0.5879,0.532,0.4695,0.4417,0.0,0.0,0.0,0.0,0.0,0.0,0.0,0.0,0.0,0.7805,0.9448,1.0468,1.1369,1.2437,1.3371,1.4251,1.5445,1.5666,1.5817,1.6253,1.6064,1.5747,1.5381,1.5275,1.5129,1.5085,1.4912,1.4706,1.4352,1.4503,1.4606,1.46,1.4649,1.4676,1.4676,1.4902,1.4929,1.4745,1.4885,1.4955,1.4955,1.4907,1.4859,1.481,1.4622,1.4509,1.446,1.4272,1.4196,1.4159,1.3723,1.34,1.3152,1.292,1.2802,1.2662,1.2662,1.2273,1.1785,0.0,0.0,0.0,0.0,0.0,0.0,0.0,0.0,0.0,0.0,0.0,0.0,0.0,0.0,0.0,0.0,0.0,0.0,-0.0323,0.1356,0.2091,0.1597,0.2916,0.3671,0.3781,0.4954,0.5674,0.5765,0.5939,0.6072,0.6168,0.6259,0.6351,0.6439,0.6583,0.6587,0.6587,0.6587,0.6768,0.7108,0.702,0.7305,0.7745,0.7306,0.7434,0.7769,0.7434,0.6945,0.6472,0.6584,0.6399,0.6143,0.6238,0.6241,0.6002,0.5021,0.0,0.4601,0.3759,0.3917,0.4477,0.5018,0.5823,0.698,0.0,0.0,1.1132,1.2879,1.3641,1.4019,1.4182,1.4884,1.5456,1.586,1.5908,1.6005,1.6274,1.5924,1.5645,1.5531,1.5575,1.544,1.5109,1.5319,1.5325,1.5063,1.5068,1.4966,1.4848,1.5052,1.5171,1.5171,1.5397,1.551,1.5483,1.53,1.5208,1.5208,1.4988,1.4778,1.4573,1.4546,1.4422,1.4229,1.4207,1.4196,1.4175,1.3895,1.3647,1.341,1.3163,1.2641,1.2078,1.2078,1.178,1.1194,0.0,0.0,0.0,0.0,0.0,0.0,0.0,0.0,0.0,0.0,0.0,0.0,0.0,0.0,0.0,0.0,0.0,0.0,-0.1128,0.1186,0.2275,0.1607,0.2715,0.375,0.4454,0.4581,0.4954,0.57,0.5988,0.6145,0.6184,0.6329,0.6417,0.6453,0.6453,0.6453,0.6453,0.6453,0.6608,0.6777,0.6736,0.6978,0.7201,0.691,0.6955,0.6955,0.6571,0.6243,0.0,0.0,0.5917,0.5906,0.6155,0.6075,0.5621,0.4968,0.4755,0.0,0.5282,0.56,0.0,0.0,0.712,0.7906,0.9136,1.0214,1.1572,1.3063,1.4443,1.5157,1.4455,1.4794,1.4925,0.0,1.4668,1.4881,1.4205,1.5166,1.5509,1.4548,1.3654,1.3693,1.52,1.5396,1.5243,1.5134,1.514,1.5101,1.5101,1.5192,1.5252,1.5252,1.5478,1.5537,1.5397,1.5435,1.5456,1.5451,1.5348,1.5252,1.5149,1.5015,1.4821,1.4589,1.4449,1.439,1.4363,1.3976,1.376,1.3636,1.2946,1.2448,1.2147,1.2026,1.1683,1.1096,0.0,0.0,0.0,0.0,0.0,0.0,0.0,0.0,0.0,0.0,0.0,0.0,0.0,0.0,0.0,0.0,0.0,0.0,0.0,0.0748,0.1882,0.1594,0.2475,0.328,0.4208,0.4304,0.4546,0.5172,0.5806,0.607,0.6074,0.6257,0.6355,0.638,0.6404,0.6429,0.6453,0.6453,0.6468,0.6486,0.6408,0.6471,0.6638,0.6313,0.6172,0.6006,0.5751,0.5597,0.0,0.0,0.5216,0.5272,0.5718,0.544,0.5017,0.4648,0.4568,0.48,0.5994,0.0,0.0,0.7299,0.8023,0.8669,0.9111,1.0156,1.1674,1.3131,1.4304,1.4943,1.4466,1.4312,1.3971,1.337,1.37,1.3694,1.3229,1.4363,1.4498,1.2651,1.1515,1.1885,1.442,1.4412,1.4566,1.5107,1.4803,1.4686,1.4748,1.4753,1.4753,1.4753,1.5268,1.5515,1.5348,1.5515,1.5601,1.5601,1.5601,1.5564,1.5494,1.5257,1.5052,1.4875,1.4702,1.4595,1.4509,1.3943,1.3726,1.3467,1.2612,1.2141,1.1861,1.1449,1.1039,1.0502,0.0,0.0,0.0,0.0,0.0,0.0,0.0,0.0,0.0,0.0,0.0,0.0,0.0,0.0,0.0,0.0,0.0,0.0,0.0,-0.0158,0.0345,0.1659,0.18,0.1879,0.1898,0.4147,0.4903,0.3998,0.5145,0.5794,0.5796,0.598,0.611,0.6192,0.6282,0.637,0.6453,0.6453,0.6504,0.6564,0.6296,0.6186,0.6117,0.5502,0.5151,0.519,0.5491,0.0,0.0,0.0,0.437,0.4164,0.4433,0.4578,0.0,0.4367,0.4426,0.0,0.0,0.0,0.6209,0.6551,0.7802,0.901,0.9683,1.0745,1.2192,1.4102,1.355,1.317,1.4454,1.3414,1.2978,1.444,1.326,1.2709,1.4149,1.3636,1.2321,1.008,0.9625,1.0217,0.0,1.2352,1.3217,1.5103,1.4068,1.3447,1.3765,1.3775,1.3775,1.3775,1.4986,1.5596,1.5585,1.5596,1.5601,1.5601,1.5601,1.5478,1.5252,1.5009,1.4891,1.4885,1.4875,1.4745,1.4425,1.3961,1.3474,1.2966,1.2317,1.1663,1.0845,0.9929,0.9453,0.9118,0.0,0.0,0.0,0.0,0.0,0.0,0.0,0.0,0.0,0.0,0.0,0.0,0.0,0.0,0.0,0.0,0.0,0.0,0.0,-0.0523,0.0081,0.053,0.0572,0.1301,0.2872,0.3011,0.3544,0.4817,0.5297,0.5631,0.5692,0.5814,0.5921,0.6006,0.6039,0.607,0.6098,0.6098,0.6151,0.621,0.5935,0.5825,0.5761,0.4868,0.4425,0.4214,0.0,0.0,0.0,0.0,0.0,0.363,0.4081,0.3994,0.3701,0.39,0.4287,0.483,0.0,0.0,0.6697,0.7346,0.7929,0.8515,0.8898,0.9976,1.1086,1.1595,1.2045,1.209,1.1606,1.1054,1.0583,1.0249,1.0525,1.0546,1.0225,1.0837,1.0517,0.8459,0.8182,0.0,0.0,0.0,0.0,1.3795,1.2881,1.2255,1.2324,1.3181,1.3665,1.3665,1.4992,1.5601,1.5601,1.5601,1.5601,1.5601,1.5601,1.5558,1.5478,1.5397,1.5359,1.5348,1.5192,1.476,1.4184,1.3811,1.3247,1.2534,1.1856,1.1438,1.0936,0.8971,0.8196,0.7958,0.0,0.0,0.0,0.0,0.0,0.0,0.0,0.0,0.0,0.0,0.0,0.0,0.0,0.0,0.0,0.0,0.0,0.0,0.0,0.0,-0.0444,-0.0,-0.0,0.0641,0.2044,0.188,0.2254,0.33,0.4247,0.4766,0.4822,0.5272,0.5492,0.5584,0.5682,0.5743,0.5772,0.5772,0.5786,0.5786,0.5366,0.5095,0.4878,0.4013,0.3574,0.0,0.0,0.0,0.0,0.0,0.0,0.0,0.346,0.3571,0.3599,0.3882,0.4541,0.5286,0.0,0.672,0.7275,0.7905,0.8125,0.8304,0.8535,0.915,0.9909,1.0215,1.0299,1.0256,0.9693,0.9149,0.87,0.8485,0.8775,0.8973,0.8885,0.931,0.9091,0.7769,0.7556,0.79,0.0,0.0,0.0,1.2396,1.1435,1.107,1.1723,1.216,1.2772,1.367,1.4466,1.5199,1.5601,1.5601,1.5601,1.5601,1.5359,1.5235,1.5229,1.4914,1.4754,1.4744,1.4523,1.4063,1.3497,1.2903,1.2395,1.1987,1.0658,1.0285,1.0377,0.8075,0.7229,0.7134,0.0,0.0,0.0,0.0,0.0,0.0,0.0,0.0,0.0,0.0,0.0,0.0,0.0,0.0,0.0,0.0,0.0,0.0,0.0,0.0,0.0,-0.0144,-0.0152,-0.0159,-0.0167,0.0957,0.1078,0.0092,0.2149,0.3212,0.3221,0.4226,0.4748,0.4949,0.521,0.5371,0.5447,0.5447,0.5402,0.5192,0.4532,0.411,0.3844,0.3043,0.0,0.0,0.0,0.0,0.0,0.0,0.0,0.0,0.0,0.0,0.3961,0.4219,0.4945,0.588,0.6636,0.7431,0.7964,0.8204,0.8426,0.8584,0.8571,0.8475,0.8702,0.9797,0.8533,0.7679,0.0,0.0,0.7282,0.8984,0.8139,0.7876,0.9901,0.8918,0.7867,0.0,0.0,0.0,0.0,0.0,0.0,1.0882,0.0,1.0007,1.1483,1.0562,1.1064,1.343,1.362,1.4246,1.5359,1.5477,1.5477,1.5596,1.4873,1.4629,1.45,1.3697,1.3362,1.3353,1.3035,1.2829,1.252,1.116,1.0834,1.1236,0.8913,0.8585,0.912,0.7345,0.665,0.6398,0.0,0.0,0.0,0.0,0.0,0.0,0.0,0.0,0.0,0.0,0.0,0.0,0.0,0.0,0.0,0.0,0.0,0.0,0.0,0.0,0.0,0.0,0.0,0.0,0.0,0.0,0.0,0.0,0.0,0.1893,0.1954,0.2244,0.2737,0.3449,0.3503,0.4113,0.5197,0.4518,0.4155,0.3974,0.0,0.3364,0.3258,0.0,0.0,0.0,0.0,0.0,0.0,0.0,0.0,0.0,0.0,0.0,0.4032,0.4878,0.5595,0.6412,0.7477,0.8108,0.844,0.8595,0.8609,0.8541,0.8364,0.816,0.8013,0.793,0.7232,0.6613,0.0,0.0,0.0,0.7474,0.753,0.0,0.8046,0.8144,0.0,0.0,0.0,0.7903,0.808,0.792,0.0,0.0,0.838,0.8345,0.8833,0.9581,1.0207,1.0774,1.1788,1.2529,1.2697,1.3665,1.4391,1.4873,1.4629,1.4396,1.3918,1.2858,1.2412,1.2399,1.1508,1.076,1.0152,0.9814,0.9384,0.8913,0.9027,0.8806,0.8345,0.778,0.7133,0.6303,0.0,0.0,0.0,0.0,0.0,0.0,0.0,0.0,0.0,0.0,0.0,0.0,0.0,0.0,0.0,0.0,0.0,0.0,0.0,0.0,0.0,0.0,0.0,0.0,0.0,0.0,0.0,0.0,0.0,0.0,0.0,0.1105,0.1607,0.222,0.2266,0.281,0.3614,0.3269,0.0,0.0,0.0,0.0,0.0,0.0,0.0,0.0,0.0,0.0,0.0,0.0,0.0,0.3622,0.3858,0.4164,0.4608,0.5392,0.0,0.6733,0.7808,0.8212,0.855,0.8753,0.8641,0.8437,0.8017,0.7766,0.7445,0.6811,0.62,0.0,0.0,0.0,0.0,0.0,0.0,0.0,0.7329,0.763,0.7838,0.0,0.7959,0.0,0.7943,0.7994,0.806,0.0,0.7962,0.815,0.8889,0.9148,0.9787,1.0747,1.108,1.126,1.1495,1.2577,1.3181,1.354,1.3301,1.2946,1.2582,1.1118,1.0533,1.0405,0.9706,0.911,0.8703,0.837,0.81,0.8029,0.7703,0.7595,0.7362,0.6968,0.6438,0.5813,0.0,0.0,0.0,0.0,0.0,0.0,0.0,0.0,0.0,0.0,0.0,0.0,0.0,0.0,0.0,0.0,0.0,0.0,0.0,0.0,0.0,0.0,0.0,0.0,0.0,0.0,0.0,0.0,0.0,0.0,0.0,0.0,0.0,0.0,0.0,0.0,0.0,0.0,0.0,0.0,0.0,0.0,0.0,0.0,0.0,0.0,0.0,0.0,0.0,0.0,0.3471,0.3987,0.4414,0.4876,0.5384,0.5852,0.6332,0.6801,0.7764,0.8048,0.8245,0.8502,0.8435,0.8012,0.7523,0.7249,0.6802,0.6046,0.0,0.5324,0.5601,0.0,0.5761,0.6203,0.0,0.6948,0.728,0.7562,0.772,0.8032,0.8176,0.8258,0.8258,0.8258,0.8266,0.828,0.8171,0.864,0.9875,0.8995,0.9398,1.143,1.0503,1.0225,1.0921,1.1503,1.1732,1.1852,1.137,1.1012,1.088,0.9049,0.8224,0.8194,0.7829,0.7715,0.759,0.6821,0.693,0.7479,0.6156,0.5938,0.649,0.5813,0.5422,0.5255,0.0,0.0,0.0,0.0,0.0,0.0,0.0,0.0,0.0,0.0,-0.2374,-0.247,0.0,0.0,0.0,0.0,0.0,0.0,0.0,0.0,0.0,0.0,0.0,0.0,0.0,0.0,0.0,0.0,0.0,0.0,0.0,0.0,0.0,0.0,0.0,0.0,0.0,0.0,0.0,0.0,0.0,0.0,0.0,0.0,0.0,0.0,0.0,0.0,0.0,0.0,0.384,0.4812,0.5006,0.541,0.5864,0.6406,0.6759,0.7107,0.7824,0.7999,0.7924,0.7835,0.7651,0.7249,0.683,0.6388,0.0,0.0,0.0,0.5034,0.5363,0.5407,0.0,0.6508,0.0,0.0,0.0,0.0,0.7993,0.0,0.0,0.0,0.0,0.0,0.0,0.0,0.0,0.8447,0.8492,0.848,0.8535,0.8632,0.8314,0.8432,0.9363,0.9368,0.9674,1.0165,1.0165,0.9805,0.9195,0.7959,0.7369,0.7269,0.6331,0.5895,0.5824,0.5714,0.5714,0.5935,0.627,0.6161,0.5706,0.6172,0.5909,0.5247,0.0,0.0,0.0,0.0,0.0,0.0,0.0,-0.2301,-0.2315,-0.2461,-0.2462,-0.2505,-0.2603,-0.2636,-0.2691,0.0,0.0,0.0,0.0,0.0,0.0,0.0,0.0,0.0,0.0,0.0,0.0,0.0,0.0,0.0,0.0,0.0,0.0,0.0,0.0,0.0,0.0,0.0,0.0,0.0,0.0,0.0,0.0,0.0,0.0,0.0,0.0,0.0,0.0,0.0,0.3647,0.4707,0.5186,0.5631,0.5984,0.6564,0.676,0.6917,0.7576,0.7672,0.7532,0.7703,0.7319,0.6846,0.6256,0.0,0.0,0.0,0.0,0.4624,0.4938,0.0,0.0,0.0,0.0,0.0,0.0,0.0,0.0,0.0,0.0,0.0,0.0,0.0,0.0,0.0,0.0,0.8481,0.8421,0.8344,0.8083,0.7888,0.7345,0.7357,0.7668,0.7918,0.8221,0.859,0.859,0.8346,0.7978,0.6902,0.6471,0.6416,0.5798,0.5484,0.5443,0.54,0.5382,0.5493,0.5826,0.5714,0.5487,0.5883,0.5612,0.5251,0.0,0.0,0.0,0.0,0.0,0.0,0.0,-0.2287,-0.2362,-0.2557,-0.2613,-0.2638,-0.2638,-0.2648,-0.2691,0.0,0.0,0.0,0.0,0.0,0.0,0.0,0.0,0.0,0.0,0.0,0.0,0.0,0.0,0.0,0.0,0.0,0.0,0.0,0.0,0.0,0.0,0.0,0.0,0.0,0.0,0.0,0.0,0.0,0.0,0.0,0.0,0.0,0.0,0.0,0.316,0.4133,0.487,0.5494,0.5908,0.6241,0.6403,0.6662,0.7324,0.7254,0.7226,0.7397,0.6976,0.646,0.5753,0.5404,0.0,0.0,0.43,0.4389,0.4661,0.0,0.0,0.0,0.0,0.0,0.0,0.0,0.0,0.0,0.0,0.0,0.0,0.0,0.0,0.0,0.0,0.0,0.8454,0.8189,0.7875,0.7631,0.7006,0.6653,0.6428,0.682,0.7131,0.7131,0.7131,0.7131,0.7006,0.6202,0.58,0.5772,0.5629,0.5545,0.5502,0.5437,0.5398,0.5382,0.5382,0.5382,0.5382,0.5382,0.5337,0.5284,0.0,0.0,0.0,0.0,0.0,0.0,0.0,-0.2303,-0.2411,-0.2427,-0.2574,-0.2679,-0.2679,-0.2685,-0.2691,0.0,0.0,0.0,0.0,0.0,0.0,0.0,0.0,0.0,0.0,0.0,0.0,0.0,0.0,0.0,0.0,0.0,0.0,0.0,0.0,0.0,0.0,0.0,0.0,0.0,0.0,0.0,0.0,0.0,0.0,0.0,0.0,0.0,0.0,0.0,0.0,0.3053,0.3784,0.4596,0.5383,0.5644,0.0,0.0,0.6751,0.6877,0.6717,0.6623,0.6189,0.5571,0.5204,0.0,0.0,0.0,0.43,0.4389,0.4661,0.4472,0.0,0.0,0.0,0.0,0.0,0.0,0.0,0.0,0.0,0.0,0.0,0.0,0.0,0.0,0.0,0.0,0.8192,0.7791,0.7346,0.6981,0.6752,0.6525,0.6053,0.6085,0.6039,0.6039,0.6039,0.6039,0.6039,0.5908,0.5859,0.578,0.5763,0.5661,0.5506,0.55,0.5451,0.5382,0.5382,0.5382,0.5382,0.5382,0.5375,0.5369,0.0,0.0,0.0,0.0,0.0,0.0,-0.2269,-0.2336,-0.2438,-0.2493,-0.2611,-0.2691,-0.2691,-0.2691,-0.2691,-0.2691,0.0,0.0,0.0,0.0,0.0,0.0,0.0,0.0,0.0,0.0,0.0,-0.1797,-0.1797,0.0,0.0,0.0,0.0,0.0,0.0,0.0,0.0,0.0,0.0,0.0,0.0,0.0,0.0,0.0,0.0,0.0,0.0,0.0,0.0,0.0,0.0,0.0,0.2959,0.3508,0.0,0.0,0.5577,0.5933,0.6588,0.6643,0.6541,0.6339,0.5923,0.5467,0.5108,0.0,0.0,0.4249,0.4179,0.4159,0.4389,0.4341,0.4346,0.0,0.0,0.0,0.0,0.0,0.0,0.0,0.0,0.0,0.0,0.0,0.0,0.0,0.0,0.0,0.7386,0.7254,0.7102,0.6931,0.6575,0.635,0.6131,0.6043,0.5972,0.5916,0.5916,0.5916,0.5914,0.5861,0.5845,0.5857,0.5745,0.5657,0.5586,0.5531,0.5457,0.5382,0.5382,0.5382,0.5382,0.5382,0.5382,0.5382,0.0,0.0,0.0,0.0,0.0,-0.2219,-0.2282,-0.2319,-0.2401,-0.2515,-0.263,-0.265,-0.265,-0.265,-0.265,-0.265,-0.2674,0.0,0.0,0.0,0.0,0.0,0.0,0.0,0.0,0.0,0.0,-0.1797,-0.1797,-0.1797,0.0,0.0,0.0,0.0,0.0,0.0,0.0,0.0,0.0,0.0,0.0,0.0,0.0,0.0,0.0,0.0,0.0,0.0,0.0,0.0,0.0,0.0,0.0,0.0,0.0,0.0,0.5112,0.5529,0.6155,0.6429,0.6417,0.6196,0.5804,0.5375,0.0,0.0,0.0,0.4155,0.4081,0.398,0.4157,0.4173,0.423,0.4406,0.0,0.5147,0.0,0.0,0.0,0.0,0.0,0.0,0.0,0.0,0.0,0.0,0.0,0.0,0.6853,0.6825,0.6797,0.6766,0.6414,0.6194,0.6104,0.6043,0.5982,0.5916,0.5916,0.5916,0.5914,0.5849,0.5857,0.5908,0.5751,0.5669,0.5637,0.5545,0.5457,0.5382,0.5382,0.5382,0.5382,0.5382,0.5382,0.5382,0.0,0.0,0.0,0.0,0.0,0.0,-0.2201,-0.2276,-0.2282,-0.2285,-0.2494,-0.2609,-0.2609,-0.2609,-0.2609,-0.2609,-0.2638,0.0,0.0,0.0,0.0,0.0,0.0,0.0,0.0,0.0,-0.1797,-0.1797,-0.1797,-0.1797,-0.1797,-0.1685,-0.1657,-0.1708,0.0,0.0,0.0,0.0,0.0,0.0,0.0,0.0,0.0,0.0,0.0,0.0,0.0,0.0,0.0,0.0,0.0,0.0,0.0,0.0,0.0,0.0,0.4243,0.4679,0.568,0.6051,0.6163,0.6076,0.5716,0.5288,0.0,0.0,0.0,0.416,0.3952,0.3978,0.4068,0.4173,0.423,0.4406,0.4697,0.5147,0.5451,0.0,0.0,0.0,0.0,0.0,0.0,0.0,0.0,0.0,0.0,0.0,0.6587,0.6368,0.6278,0.6186,0.61,0.6012,0.5921,0.5919,0.5919,0.5916,0.5916,0.5916,0.5916,0.5916,0.5916,0.5912,0.5821,0.5729,0.5637,0.5545,0.5457,0.5382,0.5382,0.5382,0.5382,0.5382,0.5382,0.5382,0.0,0.0,0.0,0.0,0.0,0.0,0.0,-0.2274,-0.228,-0.228,-0.2387,-0.246,-0.246,-0.246,-0.2436,-0.2424,-0.2452,0.0,0.0,0.0,0.0,0.0,0.0,0.0,0.0,0.0,-0.1797,-0.1797,-0.1797,-0.1741,-0.1685,-0.1628,-0.1468,-0.1311,-0.1183,0.0,0.0,0.0,0.0,0.0,0.0,0.0,0.0,0.0,0.0,0.0,0.0,0.0,0.0,0.0,0.0,0.0,0.0,0.0,0.0,0.0,0.0,0.0,0.4713,0.5111,0.5287,0.5201,0.5163,0.5063,0.4812,0.0,0.0,0.4037,0.3893,0.3895,0.3966,0.3994,0.4159,0.4582,0.4884,0.5099,0.0,0.0,0.0,0.0,0.0,0.0,0.0,0.0,0.0,0.0,0.0,0.6587,0.6453,0.6366,0.6333,0.6366,0.6219,0.6127,0.6098,0.6039,0.598,0.5916,0.5916,0.5916,0.5914,0.5853,0.5859,0.5908,0.5755,0.5669,0.5637,0.5545,0.5457,0.5382,0.5382,0.5382,0.5382,0.5382,0.5382,0.5382,0.0,0.0,0.0,0.0,0.0,0.0,0.0,-0.2246,-0.228,-0.228,-0.2311,-0.2366,-0.2366,-0.2319,-0.2248,-0.2241,-0.2207,0.0,0.0,0.0,0.0,0.0,0.0,0.0,0.0,-0.1852,-0.1797,-0.1741,-0.1741,-0.1629,-0.1459,-0.1459,-0.1291,-0.1122,-0.1066,0.0,0.0,0.0,0.0,0.0,0.0,0.0,0.1143,0.0,0.0,0.0,0.0,0.0,0.0,0.0,0.0,0.0,0.0,0.0,0.0,0.0,0.3131,0.0,0.0,0.4455,0.4753,0.4771,0.4781,0.0,0.0,0.0,0.0,0.0,0.0,0.3818,0.3918,0.3952,0.4124,0.4576,0.4886,0.5172,0.0,0.0,0.0,0.0,0.0,0.0,0.0,0.0,0.0,0.0,0.0,0.6439,0.6404,0.6315,0.6292,0.6349,0.6208,0.6117,0.6082,0.6029,0.5974,0.5916,0.5916,0.5916,0.5914,0.5859,0.5863,0.5908,0.5759,0.5676,0.0,0.5545,0.5457,0.5382,0.5382,0.5382,0.5382,0.5382,0.5382,0.5382,0.0,0.0,0.0,0.0,0.0,0.0,0.0,-0.2201,-0.2203,-0.2209,-0.2227,-0.2276,-0.2289,-0.2142,-0.2093,-0.2098,0.0,0.0,0.0,0.0,0.0,0.0,0.0,0.0,0.0,-0.1852,-0.1741,-0.1572,-0.1575,-0.1521,-0.1295,-0.1185,-0.1072,-0.107,-0.0957,0.0,0.0,0.0,0.0,0.0,0.0,0.0,0.0,0.0,0.0,0.0,0.0,0.0,0.0,0.0,0.0,0.0,0.0,0.0,0.0,0.0,0.0,0.0,0.0,0.0,0.0,0.0,0.0,0.0,0.0,0.0,0.0,0.0,0.0,0.0,0.0,0.4036,0.4126,0.44,0.4984,0.5367,0.0,0.0,0.0,0.0,0.0,0.0,0.0,0.0,0.0,0.0,0.666,0.6404,0.631,0.6227,0.6178,0.6172,0.6094,0.6012,0.5927,0.5921,0.5916,0.5916,0.5916,0.5916,0.5916,0.5916,0.5916,0.5912,0.5821,0.5729,0.5637,0.5545,0.5457,0.5382,0.5382,0.5382,0.5382,0.5382,0.5382,0.5382,0.0,0.0,0.0,0.0,0.0,0.0,0.0,0.0,0.0,0.0,-0.2165,-0.2094,-0.2221,-0.2029,-0.189,0.0,0.0,0.0,0.0,0.0,0.0,0.0,0.0,0.0,0.0,-0.1852,-0.1741,-0.1572,-0.1613,-0.1458,-0.1225,-0.1195,-0.1074,-0.0932,-0.099,-0.0976,0.0,0.0,0.0,0.0,0.0,0.0,0.0,0.0,0.0,0.0,0.2154,0.2288,0.0,0.0,0.0,0.0,0.0,0.0,0.0,0.0,0.294,0.2989,0.3212,0.0,0.3787,0.3743,0.0,0.0,0.0,0.0,0.0,0.0,0.0,0.0,0.0,0.0,0.4232,0.476,0.5124,0.5394,0.0,0.0,0.0,0.0,0.0,0.0,0.0,0.0,0.0,0.0,0.6954,0.6575,0.6217,0.6192,0.6151,0.6086,0.6063,0.6043,0.6023,0.5951,0.5916,0.5916,0.5916,0.5916,0.5916,0.5916,0.5916,0.5912,0.5821,0.5729,0.5637,0.5545,0.5457,0.5382,0.5382,0.5382,0.5382,0.5382,0.5382,0.5382,0.0,0.0,0.0,0.0,0.0,0.0,0.0,0.0,0.0,0.0,0.0,0.0,0.0,0.0,0.0,0.0,0.0,0.0,0.0,0.0,0.0,0.0,0.0,0.0,-0.1905,-0.1796,-0.1628,-0.1459,-0.145,-0.1297,-0.1061,-0.1096,-0.1041,-0.0964,-0.0783,-0.0537,0.0,0.0,0.0,0.0,0.169,0.0,0.0,0.0,0.0,0.0,0.2421,0.2487,0.0,0.2487,0.2554,0.2686,0.0,0.0,0.0,0.0,0.3231,0.3213,0.3262,0.3403,0.3527,0.3408,0.363,0.3916,0.0,0.0,0.0,0.0,0.0,0.0,0.0,0.0,0.0,0.0,0.5272,0.0,0.0,0.0,0.0,0.0,0.0,0.0,0.0,0.0,0.0,0.0,0.685,0.6608,0.6127,0.6123,0.6082,0.5994,0.599,0.599,0.599,0.5943,0.5916,0.5916,0.5916,0.5916,0.5916,0.5916,0.5916,0.5914,0.5865,0.5792,0.57,0.5608,0.5518,0.5435,0.5396,0.5382,0.5382,0.5382,0.5382,0.5382,0.0,0.0,0.0,0.0,0.0,0.0,0.0,0.0,0.0,0.0,0.0,0.0,0.0,0.0,0.0,0.0,0.0,0.0,0.0,0.0,0.0,0.0,0.0,-0.1732,-0.1741,-0.1628,-0.1464,-0.1301,-0.1227,-0.1131,-0.0898,-0.0988,-0.0937,-0.0746,-0.0431,0.0061,0.0,0.0,0.0,0.0,0.1926,0.0,0.0,0.0,0.0,0.0,0.0,0.0,0.0,0.2686,0.2753,0.282,0.2956,0.0,0.0,0.0,0.0,0.0,0.3577,0.3624,0.3557,0.3374,0.3536,0.3785,0.0,0.0,0.0,0.0,0.0,0.0,0.0,0.0,0.0,0.0,0.0,0.0,0.0,0.0,0.0,0.0,0.0,0.0,0.0,0.0,0.0,0.6663,0.662,0.6508,0.6037,0.6033,0.5996,0.5919,0.5916,0.5916,0.5916,0.5916,0.5916,0.5916,0.5916,0.5916,0.5916,0.5916,0.5916,0.5916,0.5916,0.5857,0.5753,0.5676,0.5582,0.5482,0.541,0.5382,0.5382,0.5382,0.5382,0.5382,0.0,0.0,0.0,0.0,0.0,0.0,0.0,0.0,0.0,0.0,0.0,0.0,0.0,0.0,0.0,0.0,0.0,0.0,0.0,0.0,0.0,0.0,-0.1524,-0.1471,-0.1402,-0.1347,-0.1309,-0.1229,-0.1208,-0.1119,-0.0957,-0.1051,-0.0591,0.0256,0.0243,0.0415,0.0892,0.1471,0.1862,0.1996,0.2108,0.0,0.0,0.0,0.0,0.0,0.0,0.0,0.0,0.2753,0.2889,0.3092,0.3023,0.0,0.0,0.0,0.0,0.0,0.3718,0.4034,0.4117,0.364,0.3661,0.3879,0.0,0.0,0.0,0.0,0.0,0.0,0.0,0.0,0.0,0.0,0.0,0.0,0.0,0.0,0.0,0.0,0.0,0.0,0.0,0.0,0.7633,0.7303,0.6892,0.6531,0.6309,0.606,0.5933,0.5916,0.5916,0.5916,0.5916,0.5916,0.5916,0.5916,0.5916,0.5916,0.5916,0.5916,0.5916,0.5916,0.5916,0.5821,0.5663,0.5649,0.5549,0.54,0.5388,0.5382,0.5382,0.5382,0.5382,0.5382,0.0,0.0,0.0,0.0,0.0,0.0,0.0,0.0,0.0,0.0,0.0,0.0,0.0,0.0,0.0,0.0,0.0,0.0,0.0,0.0,0.0,-0.0857,-0.1012,-0.1159,-0.129,-0.1234,-0.1198,-0.1179,-0.0913,-0.0753,-0.0711,-0.0399,-0.0,0.0659,0.101,0.13,0.1487,0.1884,0.202,0.2092,0.0,0.0,0.0,0.0,0.0,0.0,0.0,0.0,0.0,0.0,0.3092,0.3159,0.3159,0.0,0.0,0.0,0.0,0.0,0.3728,0.3983,0.4201,0.4,0.422,0.0,0.0,0.0,0.0,0.0,0.0,0.0,0.0,0.0,0.0,0.0,0.0,0.0,0.0,0.0,0.0,0.0,0.0,0.0,0.0,0.0,0.7619,0.715,0.6943,0.6577,0.6162,0.6039,0.5916,0.5916,0.5916,0.5916,0.5916,0.5916,0.5916,0.5916,0.5916,0.5916,0.5914,0.5865,0.5843,0.5841,0.5792,0.572,0.5639,0.559,0.5522,0.5445,0.54,0.5382,0.5382,0.5382,0.5382,0.5382,0.0,0.0,0.0,0.0,0.0,0.0,0.0,0.0,0.0,0.0,0.0,0.0,0.0,0.0,0.0,0.0,0.0,0.0,0.0,0.0,-0.0252,-0.0353,-0.0486,-0.0729,-0.1178,-0.1122,-0.1088,-0.1132,-0.061,-0.0315,-0.0196,0.0333,0.0739,0.1074,0.1685,0.1977,0.1979,0.2042,0.2106,0.2113,0.0,0.0,0.0,0.0,0.0,0.0,0.0,0.0,0.0,0.0,0.0,0.0,0.0,0.0,0.0,0.3467,0.3546,0.3695,0.3809,0.4032,0.432,0.4396,0.0,0.0,0.0,0.0,0.0,0.0,0.0,0.0,0.0,0.0,0.0,0.0,0.0,0.0,0.0,0.0,0.0,0.0,0.0,0.0,0.0,0.7945,0.763,0.7143,0.7023,0.6655,0.6162,0.6164,0.6039,0.5916,0.5916,0.6029,0.5886,0.5886,0.5896,0.5916,0.5896,0.5886,0.5882,0.579,0.5749,0.5745,0.5674,0.5631,0.5606,0.5537,0.5496,0.5471,0.5406,0.5369,0.5351,0.5373,0.5367,0.5349,0.0,0.0,0.0,0.0,0.0,0.0,0.0,0.0,0.0,0.0,0.0,0.0,0.0,0.0,0.0,0.0,0.0,0.0,0.0,0.0,-0.0202,-0.0202,-0.0108,-0.0336,-0.0898,-0.0898,-0.0926,-0.0985,-0.0494,0.0064,0.0603,0.094,0.1412,0.2082,0.184,0.1854,0.1978,0.2103,0.2165,0.2237,0.2564,0.0,0.0,0.0,0.0,0.0,0.0,0.0,0.0,0.0,0.0,0.0,0.0,0.0,0.3271,0.3377,0.3574,0.376,0.3793,0.4366,0.5009,0.4772,0.0,0.0,0.0,0.0,0.0,0.0,0.0,0.0,0.0,0.0,0.0,0.0,0.0,0.0,0.0,0.0,0.0,0.0,0.0,0.0,0.8051,0.7699,0.7508,0.775,0.7266,0.69,0.6778,0.6778,0.6532,0.5916,0.616,0.6239,0.5792,0.579,0.5833,0.5916,0.5831,0.579,0.5788,0.5696,0.5653,0.5653,0.5647,0.5596,0.5516,0.551,0.5461,0.539,0.5384,0.5331,0.5265,0.5349,0.5328,0.5253,0.0,0.0,0.0,0.0,0.0,0.0,0.0,0.0,0.0,0.0,0.0,0.0,0.0,0.0,0.0,0.0,0.0,0.0,0.0,0.0,0.0302,0.005,0.027,0.0224,-0.0224,-0.0224,-0.0229,-0.024,0.0311,0.0841,0.148,0.1547,0.1817,0.2217,0.213,0.2092,0.222,0.2347,0.2475,0.2483,0.2779,0.2926,0.0,0.0,0.0,0.0,0.0,0.0,0.0,0.0,0.3207,0.3218,0.3405,0.3426,0.3468,0.373,0.3932,0.4047,0.4176,0.4571,0.4948,0.4934,0.0,0.0,0.0,0.0,0.0,0.0,0.0,0.0,0.0,0.0,0.0,0.0,0.0,0.0,0.0,0.0,0.0,0.0,0.0,0.794,0.794,0.7777,0.7627,0.7627,0.7385,0.7113,0.6805,0.6556,0.6406,0.5992,0.5986,0.5848,0.5696,0.5696,0.5712,0.5747,0.5712,0.5696,0.5692,0.56,0.5559,0.5555,0.5504,0.5461,0.5429,0.5429,0.541,0.5382,0.5382,0.5292,0.5171,0.5263,0.5239,0.5159,0.0,0.0,0.0,0.0,0.0,0.0,0.0,0.0,0.0,0.0,0.0,0.0,0.0,0.0,0.0,0.0,0.0,0.0,0.0,0.0813,0.0746,0.0453,0.0803,0.0887,0.0673,0.0728,0.0627,0.0412,0.1127,0.1619,0.1966,0.2134,0.2209,0.2323,0.2343,0.2386,0.2386,0.2579,0.2708,0.2715,0.299,0.3039,0.0,0.0,0.0,0.0,0.0,0.0,0.0,0.0,0.335,0.3365,0.3593,0.3625,0.3668,0.4087,0.4247,0.4318,0.4455,0.4753,0.0,0.0,0.0,0.0,0.0,0.0,0.0,0.0,0.0,0.0,0.0,0.0,0.0,0.0,0.0,0.0,0.0,0.0,0.0,0.0,0.7872,0.7872,0.7872,0.7839,0.7696,0.7456,0.7422,0.7248,0.6815,0.6689,0.6537,0.612,0.5996,0.5748,0.56,0.56,0.5588,0.5561,0.5561,0.5573,0.5598,0.5508,0.5467,0.5463,0.5375,0.5355,0.538,0.5349,0.5339,0.5335,0.5306,0.5218,0.5116,0.5177,0.5161,0.5104,0.0,0.0,0.0,0.0,0.0,0.0,0.0,0.0,0.0,0.0,0.0,0.0,0.0,0.0,0.0,0.0,0.0,0.0,0.0716,0.0885,0.0969,0.0906,0.1411,0.168,0.1626,0.1849,0.1651,0.0943,0.1942,0.235,0.2222,0.2551,0.2647,0.2581,0.2582,0.2582,0.2647,0.2834,0.2896,0.2904,0.3123,0.3171,0.3206,0.0,0.0,0.0,0.0,0.0,0.0,0.0,0.3737,0.3692,0.3791,0.3823,0.3869,0.4303,0.452,0.4579,0.4564,0.5033,0.0,0.0,0.0,0.0,0.0,0.0,0.0,0.0,0.0,0.0,0.0,0.0,0.0,0.0,0.0,0.0,0.0,0.0,0.0,0.0,0.7872,0.7872,0.7872,0.7769,0.7701,0.7701,0.7587,0.7402,0.7054,0.7285,0.7049,0.6116,0.6462,0.6292,0.5506,0.5506,0.5463,0.538,0.538,0.5424,0.5504,0.5418,0.538,0.5375,0.5284,0.5296,0.5371,0.5279,0.5243,0.5233,0.5143,0.5106,0.5106,0.5106,0.5106,0.5092,0.0,0.0,0.0,0.0,0.0,0.0,0.0,0.0,0.0,0.0,0.0,0.0,0.0,0.0,0.0,0.0,0.0,0.0,0.1208,0.1304,0.1357,0.1411,0.1673,0.1843,0.1903,0.2071,0.2049,0.1883,0.2268,0.2427,0.2345,0.2567,0.2664,0.2772,0.2962,0.3123,0.3255,0.3315,0.3381,0.3321,0.3209,0.326,0.3306,0.0,0.0,0.0,0.0,0.0,0.0,0.0,0.0,0.0,0.3939,0.3964,0.4004,0.4512,0.4605,0.4686,0.4846,0.0,0.0,0.0,0.0,0.0,0.0,0.0,0.0,0.0,0.0,0.0,0.0,0.0,0.0,0.0,0.0,0.0,0.0,0.0,0.0,0.7872,0.7872,0.7872,0.7872,0.7769,0.7701,0.7701,0.7587,0.7364,0.7167,0.7085,0.6701,0.6254,0.6067,0.568,0.5322,0.5322,0.5277,0.519,0.519,0.5269,0.5416,0.5326,0.5286,0.5279,0.5188,0.5163,0.5188,0.5159,0.511,0.5057,0.5094,0.5028,0.4924,0.4988,0.4971,0.4912,0.0,0.0,0.0,0.0,0.0,0.0,0.0,0.0,0.0,0.0,0.0,0.0,0.0,0.0,0.0,0.0,0.0,0.0,0.0,0.0,0.1658,0.1725,0.1893,0.2081,0.2293,0.2437,0.2522,0.254,0.2565,0.2589,0.25,0.2831,0.3011,0.3042,0.33,0.3493,0.3629,0.3692,0.3625,0.3629,0.3422,0.3372,0.3451,0.0,0.0,0.0,0.0,0.0,0.0,0.0,0.0,0.0,0.4146,0.0,0.4219,0.464,0.476,0.486,0.0,0.0,0.0,0.0,0.0,0.0,0.0,0.0,0.0,0.0,0.0,0.0,0.0,0.0,0.0,0.0,0.0,0.0,0.0,0.0,0.0,0.7736,0.7774,0.7785,0.7736,0.7625,0.7535,0.7489,0.7375,0.7252,0.713,0.6837,0.6582,0.6369,0.6084,0.5726,0.5513,0.5407,0.5272,0.5216,0.5108,0.5165,0.5271,0.5214,0.519,0.5186,0.5132,0.5088,0.5053,0.5053,0.502,0.4973,0.4992,0.4955,0.4892,0.491,0.4906,0.4883,0.0,0.0,0.0,0.0,0.0,0.0,0.0,0.0,0.0,0.0,0.0,0.0,0.0,0.0,0.0,0.0,0.0,0.0,0.0,0.0,0.1872,0.1951,0.2179,0.2405,0.2742,0.2939,0.2998,0.2916,0.2898,0.2842,0.2763,0.3333,0.3549,0.3473,0.3736,0.3825,0.3825,0.3825,0.3825,0.3825,0.3689,0.3699,0.3699,0.3635,0.0,0.0,0.0,0.0,0.0,0.0,0.0,0.0,0.4256,0.4319,0.4355,0.4711,0.4904,0.5075,0.0,0.0,0.0,0.0,0.0,0.0,0.0,0.0,0.0,0.0,0.0,0.0,0.0,0.0,0.0,0.0,0.0,0.7505,0.7516,0.7614,0.7644,0.7532,0.7616,0.7641,0.7529,0.7396,0.7274,0.7163,0.7037,0.6921,0.6806,0.679,0.6687,0.6386,0.6373,0.6155,0.5836,0.5627,0.5413,0.5404,0.5189,0.5084,0.5084,0.5092,0.5092,0.5084,0.5084,0.5037,0.4959,0.4959,0.4959,0.4951,0.4867,0.4885,0.4949,0.4865,0.4888,0.4947,0.0,0.0,0.0,0.0,0.0,0.0,0.0,0.0,0.0,0.0,0.0,0.0,0.0,0.0,0.0,0.0,0.0,0.0,0.0,0.0,0.2234,0.2375,0.2644,0.2899,0.3019,0.3042,0.3098,0.3077,0.3124,0.3163,0.3203,0.3353,0.3578,0.3766,0.3901,0.4028,0.4164,0.4164,0.4097,0.3961,0.4097,0.4022,0.3875,0.3939,0.3966,0.0,0.0,0.0,0.0,0.0,0.0,0.0,0.4247,0.4253,0.4361,0.4657,0.4779,0.0,0.0,0.0,0.0,0.0,0.0,0.0,0.0,0.0,0.0,0.0,0.0,0.0,0.0,0.0,0.0,0.0,0.0,0.741,0.7505,0.754,0.7548,0.7521,0.7543,0.7548,0.7521,0.732,0.7182,0.7157,0.6959,0.6831,0.6804,0.6711,0.6599,0.6384,0.6086,0.5832,0.5523,0.5209,0.5068,0.4995,0.4894,0.4894,0.4896,0.4969,0.4961,0.4894,0.4894,0.4881,0.4863,0.4863,0.4863,0.4861,0.4843,0.4847,0.4861,0.4843,0.4847,0.4861,0.0,0.0,0.0,0.0,0.0,0.0,0.0,0.0,0.0,0.0,0.0,0.0,0.0,0.0,0.0,0.0,0.0,0.0,0.0,0.0,0.0,0.2564,0.2721,0.2902,0.3056,0.3111,0.3189,0.3244,0.3359,0.0,0.0,0.0,0.0,0.3993,0.4175,0.4361,0.4431,0.4498,0.4498,0.4361,0.4498,0.4446,0.427,0.4332,0.4234,0.4122,0.4122,0.0,0.0,0.0,0.0,0.0,0.0,0.0,0.4596,0.4779,0.4958,0.5126,0.0,0.0,0.0,0.0,0.0,0.0,0.0,0.0,0.0,0.0,0.0,0.0,0.0,0.0,0.0,0.0,0.0,0.7271,0.7334,0.7394,0.741,0.735,0.7396,0.7407,0.735,0.7179,0.7048,0.6989,0.6817,0.669,0.663,0.6564,0.646,0.6421,0.6159,0.5923,0.5725,0.5417,0.5187,0.5037,0.4834,0.4834,0.4836,0.4883,0.4879,0.4834,0.4834,0.4834,0.4834,0.4834,0.4834,0.4834,0.4834,0.4834,0.4834,0.4834,0.4834,0.4834,0.0,0.0,0.0,0.0,0.0,0.0,0.0,0.0,0.0,0.0,0.0,0.0,0.0,0.0,0.0,0.0,0.0,0.0,0.0,0.0,0.0,0.2659,0.268,0.2832,0.3083,0.321,0.3317,0.3413,0.0,0.0,0.0,0.0,0.0,0.4151,0.0,0.4628,0.4694,0.4764,0.4831,0.4831,0.4831,0.4748,0.4626,0.4626,0.4538,0.4321,0.4321,0.4307,0.4339,0.451,0.0,0.0,0.0,0.0,0.4849,0.4909,0.5164,0.5439,0.0,0.0,0.0,0.0,0.0,0.0,0.0,0.0,0.0,0.0,0.0,0.0,0.0,0.0,0.0,0.0,0.716,0.7095,0.7095,0.7182,0.7206,0.7105,0.7184,0.7203,0.7103,0.6989,0.688,0.6779,0.6657,0.6543,0.6442,0.6437,0.6437,0.6437,0.6337,0.6137,0.5942,0.5636,0.5338,0.514,0.4937,0.4834,0.4834,0.4834,0.4834,0.4834,0.4834,0.4834,0.4834,0.4834,0.4834,0.4834,0.4834,0.4834,0.4834,0.4834,0.4834,0.4834,0.0,0.0,0.0,0.0,0.0,0.0,0.0,0.0,0.0,0.0,0.0,0.0,0.0,0.0,0.0,0.0,0.0,0.0,0.0,0.0,0.0,0.2947,0.3045,0.3209,0.3345,0.3504,0.3566,0.3583,0.0,0.0,0.0,0.0,0.0,0.4265,0.0,0.0,0.4967,0.4831,0.4831,0.4831,0.4831,0.4817,0.4887,0.4887,0.4849,0.4827,0.4827,0.4813,0.48,0.482,0.484,0.0,0.0,0.0,0.4906,0.4983,0.5165,0.0,0.0,0.0,0.0,0.0,0.0,0.0,0.0,0.0,0.0,0.0,0.0,0.0,0.0,0.0,0.0,0.0,0.6861,0.685,0.685,0.6864,0.6866,0.6853,0.6864,0.6866,0.6853,0.6738,0.6662,0.6643,0.6529,0.6453,0.6437,0.6437,0.6437,0.6437,0.5937,0.5737,0.5636,0.5135,0.4935,0.4834,0.4834,0.4834,0.4834,0.4834,0.4834,0.4834,0.4834,0.4834,0.4834,0.4834,0.4834,0.4834,0.4834,0.4834,0.4834,0.4834,0.4834,0.4834,0.0,0.0,0.0,0.0,0.0,0.0,0.0,0.0,0.0,0.0,0.0,0.0,0.0,0.0,0.0,0.0,0.0,0.0,0.0,0.0,0.0,0.323,0.3285,0.3456,0.3767,0.372,0.3784,0.0,0.0,0.0,0.0,0.4125,0.4449,0.0,0.0,0.0,0.0,0.0,0.5163,0.5163,0.5163,0.5509,0.5984,0.5363,0.5417,0.5597,0.5192,0.4986,0.4931,0.5009,0.5036,0.5064,0.5152,0.0,0.0,0.0,0.5316,0.0,0.0,0.0,0.0,0.0,0.0,0.0,0.0,0.0,0.0,0.0,0.0,0.0,0.0,0.0,0.0,0.6801,0.6801,0.6801,0.6801,0.6801,0.6801,0.6801,0.6801,0.6801,0.6801,0.6692,0.6619,0.6619,0.6505,0.6437,0.6437,0.6437,0.6437,0.6437,0.6039,0.5737,0.5636,0.5238,0.4937,0.4834,0.4834,0.4834,0.4834,0.4834,0.4834,0.4834,0.4834,0.4834,0.4834,0.4834,0.4834,0.4834,0.4834,0.4834,0.4834,0.4834,0.4834,0.4834,0.0,0.0,0.0,0.0,0.0,0.0,0.0,0.0,0.0,0.0,0.0,0.0,0.0,0.0,0.0,0.0,0.0,0.0,0.0,0.0,0.0,0.3512,0.3598,0.3764,0.4082,0.3962,0.0,0.0,0.0,0.0,0.3613,0.4394,0.4791,0.0,0.4954,0.0,0.0,0.0,0.0,0.0,0.567,0.6169,0.6696,0.5956,0.6003,0.6256,0.5533,0.5137,0.5091,0.5158,0.522,0.5209,0.5325,0.5428,0.0,0.0,0.0,0.0,0.0,0.0,0.0,0.0,0.0,0.0,0.0,0.0,0.0,0.0,0.0,0.0,0.0,0.0,0.0,0.6709,0.6709,0.6709,0.6709,0.6709,0.6709,0.6709,0.6709,0.6709,0.6709,0.6627,0.6573,0.6573,0.6488,0.6437,0.6437,0.6437,0.6437,0.6437,0.6039,0.5839,0.5636,0.5238,0.5037,0.4834,0.4834,0.4834,0.4834,0.4834,0.4834,0.4834,0.4834,0.4834,0.4834,0.4834,0.4834,0.4834,0.4834,0.4834,0.4834,0.4834,0.4834,0.4834,0.0,0.0,0.0,0.0,0.0,0.0,0.0,0.0,0.0,0.0,0.0,0.0,0.0,0.2821,0.2909,0.299,0.0,0.0,0.0,0.0,0.0,0.385,0.4138,0.0,0.4089,0.4168,0.0,0.0,0.0,0.0,0.361,0.4789,0.5328,0.5345,0.5355,0.5362,0.5362,0.0,0.0,0.0,0.0,0.0,0.0,0.0,0.657,0.6496,0.0,0.5599,0.5458,0.554,0.5471,0.5418,0.5425,0.5428,0.5428,0.0,0.0,0.0,0.0,0.0,0.0,0.0,0.0,0.0,0.0,0.0,0.0,0.0,0.0,0.0,0.0,0.0,0.0,0.6456,0.6456,0.6456,0.6456,0.6456,0.6456,0.6456,0.6456,0.6456,0.6456,0.6448,0.6445,0.6445,0.6439,0.6437,0.6437,0.6437,0.6437,0.6437,0.5937,0.5636,0.5636,0.5035,0.4834,0.4834,0.4834,0.4834,0.4834,0.4834,0.4834,0.4834,0.4834,0.4834,0.4834,0.4834,0.4834,0.4834,0.4834,0.4834,0.4834,0.4834,0.4834,0.4834,0.0,0.0,0.0,0.0,0.0,0.0,0.0,0.0,0.0,0.0,0.0,0.0,0.0,0.3097,0.3206,0.3121,0.3343,0.0,0.0,0.0,0.0,0.4309,0.4473,0.4605,0.4761,0.0,0.0,0.0,0.0,0.4535,0.5255,0.5333,0.542,0.5463,0.6326,0.6242,0.5418,0.5418,0.0,0.0,0.0,0.0,0.0,0.0,0.0,0.0,0.0,0.0,0.0,0.5895,0.5573,0.5508,0.5508,0.544,0.5449,0.5481,0.5616,0.0,0.0,0.0,0.0,0.0,0.0,0.0,0.0,0.0,0.0,0.0,0.0,0.0,0.0,0.0,0.0,0.6437,0.6437,0.6437,0.6437,0.6437,0.6437,0.6437,0.6437,0.6437,0.6437,0.6437,0.6437,0.6437,0.6437,0.6437,0.6437,0.6239,0.6139,0.6139,0.5639,0.5238,0.5135,0.4935,0.4834,0.4834,0.4834,0.4834,0.4834,0.4834,0.4834,0.4834,0.4834,0.4834,0.4834,0.4834,0.4834,0.4834,0.4834,0.4834,0.4834,0.4834,0.4834,0.4834,0.0,0.0,0.0,0.0,0.0,0.0,0.0,0.0,0.0,0.0,0.0,0.0,0.0,0.0,0.3538,0.3585,0.3914,0.4222,0.444,0.4595,0.4719,0.4782,0.4904,0.5065,0.5175,0.0,0.0,0.0,0.0,0.0,0.0,0.5671,0.584,0.6156,0.6823,0.6515,0.0,0.0,0.0,0.6406,0.0,0.0,0.903,0.0,0.0,0.0,0.0,0.0,0.0,0.0,0.6162,0.6018,0.5755,0.553,0.5447,0.5498,0.5654,0.0,0.0,0.0,0.0,0.0,0.0,0.0,0.0,0.0,0.0,0.0,0.0,0.0,0.0,0.0,0.0,0.6437,0.6437,0.6437,0.6437,0.6437,0.6437,0.6437,0.6437,0.6437,0.6437,0.6437,0.6437,0.6437,0.6437,0.6437,0.6437,0.6139,0.5942,0.5741,0.534,0.5037,0.4834,0.4834,0.4834,0.4834,0.4834,0.4834,0.4834,0.4834,0.4834,0.4834,0.4834,0.4834,0.4834,0.4834,0.4834,0.4834,0.4834,0.4834,0.4834,0.4834,0.4834,0.4834,0.0,0.0,0.0,0.0,0.0,0.0,0.0,0.0,0.0,0.3407,0.0,0.0,0.0,0.0,0.0,0.4275,0.4668,0.4994,0.5128,0.5072,0.5092,0.5328,0.0,0.0,0.0,0.0,0.0,0.0,0.0,0.0,0.0,0.0,0.6648,0.0,0.6728,0.6049,0.547,0.0,0.6304,0.6348,0.0,0.8902,0.7992,0.0,0.0,0.0,0.8275,0.8189,0.0,0.7492,0.0,0.0,0.0,0.0,0.5566,0.5416,0.0,0.0,0.0,0.0,0.0,0.0,0.0,0.0,0.0,0.0,0.0,0.0,0.0,0.0,0.0,0.0,0.6437,0.6437,0.6437,0.6437,0.6437,0.6437,0.6437,0.6437,0.6437,0.6437,0.6437,0.6437,0.6437,0.6437,0.6437,0.6437,0.6437,0.6139,0.5741,0.524,0.514,0.5037,0.4834,0.4834,0.4834,0.4834,0.4834,0.4834,0.4834,0.4834,0.4834,0.4834,0.4834,0.4834,0.4834,0.4834,0.4834,0.4834,0.4834,0.4834,0.4834,0.4834,0.4834,0.4834,0.0,0.0,0.0,0.0,0.0,0.0,0.0,0.0,0.3535,0.0,0.0,0.0,0.4127,0.4385,0.4688,0.5018,0.512,0.5284,0.5479,0.5429,0.5508,0.5677,0.5736,0.5795,0.0,0.0,0.0,0.0,0.0,0.0,0.0,0.0,0.0,0.0,0.6401,0.6223,0.6085,0.6298,0.0,0.0,0.8529,0.9145,0.0,0.0,0.0,0.0,0.0,0.9503,0.953,0.0,0.7833,0.7042,0.0,0.0,0.0,0.0,0.0,0.0,0.5966,0.0,0.0,0.0,0.0,0.0,0.0,0.0,0.0,0.0,0.0,0.0,0.0,0.0,0.6437,0.6437,0.6437,0.6437,0.6437,0.6437,0.6437,0.6437,0.6437,0.6437,0.6437,0.6437,0.6437,0.0,0.6437,0.6337,0.6139,0.5641,0.524,0.4937,0.4937,0.4834,0.4834,0.4834,0.4834,0.4834,0.4834,0.4834,0.4834,0.4834,0.4834,0.4834,0.4834,0.4834,0.4834,0.4834,0.4834,0.4834,0.4834,0.4834,0.4834,0.4834,0.4834,0.4834,0.0,0.0,0.0,0.0,0.0,0.0,0.37,0.3811,0.3885,0.0,0.0,0.0,0.4542,0.4862,0.5115,0.5269,0.5511,0.5717,0.5837,0.5845,0.59,0.5959,0.5959,0.6018,0.0,0.0,0.0,0.0,0.0,0.0,0.0,0.0,0.0,0.0,0.0,0.0,0.0,0.0,0.0,0.0,0.8611,0.0,0.0,1.0674,1.1027,0.0,0.0,0.0,1.0449,0.9501,0.8408,0.0,0.0,0.0,0.0,0.0,0.0,0.0,0.0,0.0,0.0,0.0,0.0,0.0,0.6329,0.6316,0.0,0.0,0.0,0.0,0.0,0.0,0.6437,0.6437,0.6437,0.6437,0.6437,0.6437,0.6437,0.6437,0.6437,0.6437,0.6437,0.6437,0.6437,0.6437,0.6339,0.6039,0.5641,0.534,0.5039,0.4834,0.4834,0.4834,0.4834,0.4834,0.4834,0.4834,0.4834,0.4834,0.4834,0.4834,0.4834,0.4834,0.4834,0.4834,0.4834,0.4834,0.4834,0.4834,0.4834,0.4834,0.4834,0.4834,0.4834,0.4834,0.0,0.0,0.0,0.3464,0.3619,0.3766,0.3893,0.4078,0.424,0.0,0.4737,0.5012,0.5012,0.523,0.5448,0.5452,0.5885,0.6211,0.6265,0.6192,0.6178,0.6178,0.6178,0.6178,0.6178,0.0,0.0,0.0,0.0,0.0,0.0,0.0,0.0,0.0,0.0,0.0,0.0,0.0,0.0,0.755,0.8852,0.9367,0.0,0.0,1.0774,1.0774,1.0774,1.0995,1.117,1.0269,0.8896,0.0,0.0,0.0,0.0,0.0,0.5959,0.0,0.0,0.0,0.0,0.0,0.0,0.0,0.6276,0.63,0.6326,0.0,0.0,0.0,0.0,0.0,0.6361,0.6374,0.6388,0.6407,0.6431,0.6437,0.6437,0.6437,0.6437,0.6437,0.6437,0.6437,0.6437,0.6337,0.6039,0.5741,0.524,0.514,0.5037,0.4834,0.4834,0.4834,0.4834,0.4834,0.4834,0.4834,0.4834,0.4834,0.4834,0.4834,0.4834,0.4834,0.4834,0.4834,0.4834,0.4834,0.4834,0.4834,0.4834,0.4834,0.4834,0.4834,0.4834,0.4834,0.0,0.0,0.0,0.4002,0.4056,0.4213,0.4465,0.4773,0.5002,0.5166,0.5485,0.5719,0.5719,0.5956,0.6193,0.6493,0.6285,0.6246,0.6478,0.6336,0.6192,0.6178,0.6178,0.6178,0.6178,0.6178,0.0,0.0,0.0,0.0,0.0,0.0,0.0,0.0,0.0,0.0,0.0,0.0,0.0,0.852,0.9125,0.0,1.0486,1.098,1.1193,1.1193,1.1193,1.1225,1.1149,1.0349,0.9803,0.9419,0.0,0.0,0.0,0.6777,0.0,0.0,0.0,0.0,0.0,0.0,0.0,0.0,0.6435,0.635,0.6257,0.0,0.0,0.0,0.0,0.0,0.5901,0.5994,0.6089,0.6219,0.641,0.6437,0.6437,0.6437,0.6437,0.6437,0.6437,0.6437,0.6337,0.6142,0.5641,0.534,0.524,0.5037,0.4834,0.4834,0.4834,0.4834,0.4834,0.4834,0.4834,0.4834,0.4834,0.4834,0.4834,0.4834,0.4834,0.4834,0.4834,0.4834,0.4834,0.4834,0.4834,0.4834,0.4834,0.4834,0.4834,0.4834,0.4834,0.4834,0.0,0.0,0.0,0.4193,0.4475,0.4773,0.4912,0.5166,0.5426,0.0,0.0,0.0,0.0,0.0,0.6422,0.6602,0.6511,0.6393,0.6384,0.624,0.6187,0.6182,0.6201,0.6207,0.6207,0.6225,0.6178,0.0,0.0,0.0,0.0,0.0,0.0,0.0,0.0,0.0,0.0,0.0,0.8058,0.8709,0.9236,0.0,1.0763,1.1171,1.1262,1.1262,1.1262,1.1262,1.1246,1.0862,1.0398,0.0,0.0,0.8404,0.7492,0.0,0.6708,0.6218,0.0,0.0,0.0,0.6338,0.0,0.0,0.0,0.6185,0.6158,0.6037,0.5909,0.5819,0.5733,0.5644,0.557,0.5809,0.5874,0.6029,0.6244,0.6361,0.6337,0.6239,0.6337,0.6337,0.6239,0.6337,0.6237,0.5837,0.5441,0.514,0.5037,0.4834,0.4834,0.4834,0.4834,0.4834,0.4834,0.4834,0.4834,0.4834,0.4834,0.4834,0.4834,0.4834,0.4834,0.4834,0.4834,0.4834,0.4834,0.4834,0.4834,0.4834,0.4834,0.4834,0.4834,0.4834,0.4834,0.4834,0.0,0.0,0.0,0.0,0.478,0.5173,0.5177,0.5423,0.0,0.0,0.0,0.0,0.0,0.0,0.0,0.0,0.6922,0.6819,0.0,0.0,0.6401,0.6908,0.6641,0.6427,0.6339,0.6234,0.6234,0.6289,0.0,0.0,0.0,0.0,0.0,0.0,0.0,0.0,0.0,0.0,0.0,0.8906,0.0,1.0041,1.0674,1.1038,1.1225,1.1267,1.1262,1.1262,1.1262,1.1262,1.0872,1.0278,1.0149,0.9172,0.0,0.0,0.0,0.0,0.0,0.0,0.0,0.0,0.0,0.6325,0.0,0.0,0.0,0.0,0.5695,0.0,0.0,0.542,0.0,0.0,0.0,0.0,0.0,0.6069,0.0,0.6032,0.6239,0.6239,0.5939,0.6039,0.6037,0.5536,0.5238,0.5037,0.4834,0.4834,0.4834,0.4834,0.4834,0.4834,0.4834,0.4834,0.4834,0.4834,0.4834,0.4834,0.4834,0.4834,0.4834,0.4834,0.4834,0.4834,0.4834,0.4834,0.4834,0.4834,0.4834,0.4834,0.4834,0.4834,0.4834,0.4834,0.391,0.4079,0.0,0.0,0.4966,0.5192,0.5102,0.5911,0.0,0.0,0.0,0.0,0.0,0.0,0.0,0.0,0.0,0.0,0.733,0.0,0.0,0.9389,0.8089,0.7154,0.6732,0.6384,0.6317,0.6559,0.0,0.0,0.0,0.0,0.0,0.0,0.7438,0.0,0.0,0.0,0.9165,0.0,1.0067,1.0326,0.0,1.0679,1.091,1.1094,1.1267,1.1262,1.1267,0.0,1.1073,1.1096,0.0,1.0149,0.9763,0.8436,0.0,0.0,0.0,0.0,0.0,0.0,0.6447,0.0,0.0,0.0,0.5836,0.5701,0.0,0.5331,0.5097,0.0,0.0,0.0,0.0,0.0,0.5075,0.5191,0.5408,0.5894,0.6042,0.5939,0.5636,0.5438,0.534,0.524,0.5037,0.4834,0.4834,0.4834,0.4834,0.4834,0.4834,0.4834,0.4834,0.4834,0.4834,0.4834,0.4834,0.4834,0.4834,0.4834,0.4834,0.4834,0.4834,0.4834,0.4834,0.4834,0.4834,0.4834,0.4834,0.4834,0.4834,0.4834,0.4834,0.4834,0.3968,0.4079,0.0,0.0,0.5115,0.5491,0.5542,0.6233,0.0,0.0,0.0,0.0,0.0,0.0,0.0,0.0,0.0,0.8329,0.0,0.0,0.0,0.8472,0.7729,0.7197,0.701,0.6676,0.6536,0.6535,0.6445,0.0,0.0,0.0,0.0,0.0,0.778,0.0,0.8593,0.0,0.9555,0.0,0.0,0.0,0.0,1.0889,1.1091,1.1181,1.1267,1.1262,1.1262,0.0,1.1262,0.0,0.0,0.0,0.0,0.9047,0.0,0.0,0.0,0.0,0.0,0.0,0.0,0.0,0.6315,0.0,0.5712,0.0,0.0,0.0,0.0,0.0,0.0,0.0,0.4784,0.0,0.0,0.0,0.5032,0.0,0.0,0.0,0.5347,0.5271,0.524,0.524,0.4937,0.4834,0.4834,0.4834,0.4834,0.4834,0.4834,0.4834,0.4834,0.4834,0.4834,0.4834,0.4834,0.4834,0.4834,0.4834,0.4834,0.4834,0.4834,0.4834,0.4834,0.4834,0.4834,0.4834,0.4834,0.4834,0.4834,0.4834,0.4834,0.4834,0.0,0.0,0.0,0.0,0.0,0.0,0.0,0.0,0.0,0.0,0.0,0.0,0.8222,0.864,0.0,0.0,0.9025,0.9192,0.0,0.0,0.8311,0.8457,0.7918,0.0,0.0,0.7245,0.6913,0.6705,0.0,0.0,0.0,0.0,0.0,0.0,0.0,0.8483,0.9018,0.0,0.0,1.0013,1.0249,1.0439,1.0598,1.1026,1.1267,1.1262,1.1262,1.1262,1.1262,1.1267,1.1267,1.1262,1.1267,1.0755,1.0074,0.0,0.0,0.0,0.7889,0.0,0.0,0.0,0.0,0.0,0.0,0.0,0.0,0.0,0.5249,0.0,0.0,0.0,0.4779,0.4621,0.0,0.4458,0.0,0.4421,0.0,0.0,0.0,0.0,0.0,0.4829,0.4925,0.4925,0.4773,0.48,0.48,0.4822,0.4834,0.4834,0.4834,0.4834,0.4834,0.4834,0.4834,0.4834,0.4834,0.4834,0.4834,0.4834,0.4834,0.4834,0.4834,0.4834,0.4834,0.4834,0.482,0.4802,0.4824,0.482,0.4804,0.4826,0.4834,0.4834,0.4172,0.4192,0.0,0.0,0.0,0.0,0.0,0.0,0.0,0.0,0.0,0.0,0.0,0.0,0.0,0.0,0.0,1.0486,1.0366,0.0,1.0423,1.0762,0.9745,0.9108,0.0,0.0,0.7402,0.7202,0.0,0.0,0.0,0.0,0.0,0.0,0.0,0.8489,0.8808,0.9853,1.0429,1.0731,1.1059,1.1246,1.1251,0.0,1.1094,1.1262,1.1262,1.1262,1.1267,1.1094,1.1181,1.1267,1.1094,1.1488,1.1759,0.0,0.0,0.0,0.9836,0.8941,0.8281,0.8269,0.7541,0.6759,0.6299,0.6067,0.5787,0.5425,0.5168,0.5018,0.5018,0.5018,0.4859,0.4462,0.4382,0.0,0.0,0.0,0.0,0.0,0.0,0.0,0.0,0.4027,0.4168,0.4168,0.4514,0.4712,0.4712,0.479,0.4834,0.4834,0.4834,0.4834,0.4834,0.4834,0.4834,0.4834,0.4834,0.4834,0.4834,0.4834,0.4834,0.4834,0.4834,0.4834,0.4834,0.4834,0.4785,0.4722,0.4804,0.4783,0.4722,0.4804,0.4834,0.4834,0.0,0.0,0.0,0.0,0.0,0.0,0.0,0.6712,0.0,0.0,0.0,0.0,0.0,0.9941,1.0162,0.0,0.0,1.0568,1.0412,1.0247,0.0,0.0,0.0,0.915,0.0,0.0,0.0,0.0,0.0,0.0,0.0,0.0,0.0,0.0,0.0,0.8778,0.0,0.0,0.0,0.0,0.0,1.1181,1.1094,0.0,1.1267,1.1262,1.1262,1.1262,1.1262,1.1181,1.1267,1.1262,1.1181,1.1305,1.1336,1.0914,1.071,1.0542,1.0214,0.9683,0.9171,0.8726,0.8066,0.739,0.6566,0.6004,0.5662,0.5552,0.5286,0.5064,0.5222,0.5124,0.4859,0.4462,0.4242,0.3985,0.0,0.0,0.0,0.0,0.0,0.0,0.0,0.0,0.0,0.406,0.4454,0.4618,0.4618,0.4702,0.4751,0.4751,0.4806,0.4834,0.4834,0.4834,0.4834,0.4834,0.4834,0.4834,0.4834,0.4834,0.4834,0.483,0.4775,0.4751,0.4751,0.4751,0.4734,0.4716,0.4802,0.4816,0.4796,0.4824,0.4834,0.4834,0.4495,0.0,0.0,0.0,0.0,0.0,0.0,0.0,0.0,0.0,0.8995,0.0,0.9963,0.0,1.0315,0.0,1.063,1.0765,1.0593,1.0529,0.0,1.1028,1.029,0.0,0.0,0.0,0.0,0.0,0.0,0.7402,0.0,0.0,0.0,0.0,0.0,0.0,0.9555,0.0,1.08,0.0,0.0,1.1181,0.0,0.0,1.1262,1.1181,1.1267,1.1262,1.1262,1.1262,1.1262,1.1262,1.1262,1.1247,1.1273,1.1351,1.1253,1.1067,1.115,1.083,1.0202,0.9739,0.8874,0.7919,0.7116,0.6383,0.5782,0.5735,0.5394,0.5216,0.5455,0.5235,0.4886,0.4723,0.4334,0.3907,0.0,0.3301,0.0,0.0,0.0,0.0,0.0,0.0,0.3743,0.3967,0.424,0.4398,0.4522,0.461,0.4675,0.4708,0.4761,0.4804,0.4834,0.4834,0.4834,0.4834,0.4834,0.4834,0.4834,0.4834,0.4834,0.483,0.4777,0.4753,0.4753,0.4753,0.4736,0.4716,0.4802,0.4816,0.4794,0.4822,0.4834,0.4834,0.0,0.0,0.0,0.0,0.6102,0.0,0.0,0.0,0.8941,0.0,0.9419,1.0014,1.0024,1.0367,1.0491,1.0366,1.0921,1.1166,1.0926,1.1134,0.0,0.0,1.0958,1.0647,1.0426,0.0,0.0,0.0,0.0,0.0,0.0,0.0,0.0,0.0,0.799,0.0,0.9744,0.9898,1.0502,1.1262,1.1262,1.1262,1.1262,1.1262,1.1181,1.1008,1.1262,1.1262,1.1262,1.1262,1.1262,1.1262,1.1262,1.151,1.1747,1.1978,1.2221,1.2468,1.27,1.2112,1.1462,1.1452,0.9969,0.8385,0.7935,0.7083,0.6236,0.5771,0.5556,0.5458,0.5689,0.5349,0.5023,0.5064,0.4501,0.3868,0.3258,0.0,0.3127,0.0,0.0,0.0,0.0,0.0,0.3149,0.3793,0.398,0.4068,0.4424,0.4516,0.4608,0.47,0.471,0.4753,0.4832,0.4834,0.4834,0.4834,0.4834,0.4832,0.4828,0.4828,0.4826,0.482,0.4816,0.4814,0.4814,0.4814,0.4767,0.4704,0.4787,0.4773,0.4712,0.4802,0.483,0.4828,0.5234,0.5646,0.6044,0.0,0.6618,0.7124,0.0,0.0,0.0,0.0,1.0049,1.0543,1.0895,1.1048,1.1059,1.1086,1.1193,0.0,0.0,0.0,0.0,1.1262,1.1203,1.0974,1.0658,1.0288,0.0,0.8612,0.0,0.0,0.7521,0.0,0.0,0.0,0.0,0.0,0.9744,0.9898,1.0502,1.1262,1.1262,1.1181,1.1094,1.1267,1.1181,1.1008,1.1262,1.1262,1.1262,1.1262,1.1262,1.1262,1.1262,1.151,1.1747,1.1978,1.2221,1.2468,1.27,1.2619,1.2336,1.1772,1.0997,1.0039,0.8485,0.7635,0.6982,0.6149,0.5806,0.5659,0.5722,0.5483,0.5157,0.4639,0.4079,0.3603,0.0,0.0,0.0,0.3061,0.0,0.0,0.0,0.2919,0.3187,0.3462,0.3772,0.4066,0.4328,0.4236,0.4323,0.4604,0.4734,0.4812,0.4834,0.4834,0.4834,0.4834,0.4834,0.4802,0.4741,0.4741,0.4704,0.4636,0.4567,0.4538,0.4538,0.4538,0.4524,0.4514,0.4604,0.4626,0.4626,0.4777,0.4794,0.4741,0.5486,0.0,0.0,0.6563,0.0,0.0,0.8001,0.8551,0.0,1.0014,1.0589,0.0,1.1176,1.1284,1.1262,1.1262,1.1262,0.0,1.1262,0.0,0.0,1.1262,1.1262,1.1203,1.098,1.0668,0.0,0.9125,0.0,0.0,0.7598,0.0,0.0,0.0,0.0,0.8597,0.0,1.0034,1.0616,1.1033,1.1225,1.1262,0.0,1.1262,1.1262,1.1181,1.1262,1.1262,1.1262,1.1262,1.1262,1.1262,1.1262,1.144,1.1591,1.1828,1.2064,1.2307,1.2544,1.2684,1.2727,1.2299,1.1682,1.0891,0.9742,0.8613,0.7573,0.7075,0.6332,0.592,0.6021,0.576,0.5262,0.4576,0.4173,0.3804,0.0,0.0,0.0,0.0,0.3231,0.0,0.2822,0.304,0.3284,0.3324,0.3524,0.3787,0.3917,0.4037,0.4143,0.4414,0.4588,0.4779,0.4779,0.4779,0.4759,0.472,0.472,0.4696,0.4649,0.4649,0.462,0.4569,0.4518,0.4496,0.4496,0.4496,0.4496,0.45,0.4553,0.4573,0.4589,0.4728,0.4724,0.4649,0.0,0.0,0.0,0.0,0.0,0.0,0.0,0.8973,0.0,1.0331,0.0,1.1226,1.1164,1.1241,1.1262,1.1262,0.0,1.1262,1.1262,1.1262,1.1262,1.1262,1.1262,1.1262,1.1262,1.0974,1.046,0.0,0.0,0.0,0.0,0.0,0.0,0.0,0.0,0.0,0.0,1.03,1.0753,1.08,1.1182,1.1262,1.1262,1.1262,1.1262,1.1262,1.1262,1.1262,1.1262,1.1262,1.1262,1.1262,1.1262,1.1262,1.131,1.1628,1.1844,1.2054,1.2301,1.2538,1.2716,1.2716,1.2042,1.137,1.1268,0.9797,0.8418,0.8219,0.724,0.6376,0.6555,0.6029,0.5455,0.4734,0.4456,0.4151,0.0,0.0,0.0,0.0,0.0,0.0,0.3113,0.3174,0.3291,0.331,0.3385,0.3442,0.3472,0.3868,0.4074,0.4152,0.4504,0.4692,0.4692,0.4692,0.4651,0.4573,0.4585,0.4577,0.4555,0.4567,0.4559,0.4536,0.4536,0.4536,0.4536,0.4536,0.4536,0.4536,0.4536,0.4536,0.4549,0.4638,0.4622,0.4557,0.0,0.0,0.0,0.0,0.0,0.78,0.9188,1.0078,1.0753,1.1086,1.1197,1.1365,1.1646,1.1445,1.1262,1.1262,1.1262,0.0,0.0,0.0,0.0,1.1262,1.1262,1.1262,1.1262,1.1225,1.0705,0.0,0.0,0.0,0.0,0.0,0.0,0.0,0.0,0.0,0.9893,1.044,0.0,1.1203,1.1246,1.1262,1.1262,1.1262,1.1262,1.1262,1.1262,1.1262,1.1262,1.1262,1.1262,1.1262,1.1262,1.1262,1.131,1.1628,1.1731,1.1811,1.2048,1.2291,1.2474,1.2474,1.2523,1.2268,1.137,1.0877,1.0386,0.9505,0.8474,0.7596,0.7508,0.6374,0.5351,0.5027,0.4727,0.4499,0.0,0.0,0.0,0.0,0.0,0.3806,0.3455,0.3231,0.3174,0.3459,0.3385,0.3597,0.4152,0.4018,0.4076,0.434,0.4538,0.4596,0.4596,0.4596,0.4587,0.4573,0.4649,0.4606,0.4461,0.4538,0.4489,0.4346,0.4346,0.4346,0.4346,0.4346,0.4346,0.4346,0.4346,0.4346,0.4357,0.4449,0.4473,0.4481,0.0,0.0,0.0,0.0,0.0,0.0,0.0,1.0641,1.116,1.1241,1.144,1.1532,1.1332,1.1343,1.1262,1.1262,1.1262,1.1262,1.1262,1.1262,1.1262,1.1262,1.1262,1.1262,1.1262,1.1262,1.081,0.9827,0.0,0.0,0.0,0.0,0.0,0.0,0.0,0.8993,0.0,0.0,1.08,1.1001,1.1214,1.1262,1.1262,1.1262,1.1262,1.1262,1.1262,1.1262,1.1262,1.1262,1.1262,1.1262,1.1262,1.1262,1.1289,1.1483,1.1602,1.1725,1.1838,1.2043,1.2253,1.2382,1.2501,1.2512,1.2139,1.157,1.1072,1.0587,0.9604,0.8671,0.7935,0.6729,0.5637,0.5267,0.4994,0.473,0.4333,0.0,0.4175,0.0,0.0,0.0,0.0,0.3291,0.3262,0.0,0.0,0.3559,0.3804,0.3899,0.4057,0.4186,0.4452,0.462,0.4573,0.4573,0.4549,0.4502,0.4498,0.4451,0.4365,0.441,0.4381,0.43,0.43,0.43,0.43,0.43,0.43,0.43,0.43,0.43,0.431,0.4402,0.4434,0.4455,0.0,0.6651,0.0,0.0,0.9007,0.0,1.0509,1.1059,1.1462,1.1516,1.1607,1.1574,1.1149,1.1262,1.1262,1.1262,1.1262,1.1262,1.1262,1.1262,1.1262,1.1262,1.1262,1.1262,1.1262,1.1262,1.0889,0.0,0.9963,0.9383,0.8537,0.0,0.0,0.0,0.0,0.0,0.9737,1.0414,1.0768,1.0826,1.1187,1.1262,1.1262,1.1262,1.1262,1.1262,1.1262,1.1262,1.1262,1.1262,1.1262,1.1262,1.1262,1.1262,1.1262,1.1262,1.1483,1.1623,1.1623,1.1795,1.2021,1.2215,1.2339,1.2463,1.2646,1.2129,1.157,1.157,1.0685,0.9604,0.8517,0.7349,0.6351,0.5968,0.544,0.4952,0.4569,0.0,0.0,0.0,0.0,0.0,0.3703,0.3546,0.3549,0.3531,0.3592,0.3624,0.3572,0.3873,0.4036,0.4036,0.4416,0.4587,0.4514,0.4514,0.4477,0.4406,0.4353,0.4318,0.43,0.4318,0.4318,0.43,0.43,0.43,0.43,0.43,0.43,0.43,0.43,0.43,0.431,0.4402,0.4449,0.4477,0.0,0.0,0.0,0.0,0.0,0.9836,1.0482,1.1273,1.1875,1.216,1.1741,1.1429,1.1706,1.1467,1.1262,1.1262,1.1262,1.1262,1.1262,1.1262,1.1262,1.1262,1.1262,1.1262,1.1262,1.1262,1.1048,1.0622,1.035,0.9837,0.9054,0.8727,0.8793,0.9034,0.9276,0.9857,1.059,1.0637,1.0948,1.123,1.1257,1.1262,1.1262,1.1262,1.1262,1.1262,1.1262,1.1262,1.1262,1.1262,1.1262,1.1262,1.1262,1.1262,1.1262,1.1262,1.1278,1.1381,1.1381,1.1553,1.1736,1.1758,1.2097,1.242,1.2441,1.2512,1.2662,1.2662,1.177,1.0681,0.9604,0.859,0.7687,0.739,0.6382,0.5445,0.5065,0.4795,0.452,0.4412,0.0,0.0,0.4228,0.4087,0.3956,0.414,0.3826,0.3756,0.4172,0.4289,0.43,0.43,0.4324,0.4334,0.4324,0.4324,0.432,0.4312,0.4387,0.4379,0.4302,0.4385,0.4377,0.43,0.43,0.43,0.43,0.43,0.43,0.43,0.43,0.43,0.431,0.4402,0.4487,0.4573,0.0,0.0,0.0,0.0,0.0,0.0,0.0,1.1074,1.1871,1.1973,1.1741,1.1548,1.1499,1.1408,1.1262,1.1262,1.1262,1.1262,1.1262,1.1262,1.1262,1.1262,1.1262,1.1262,1.1262,1.1262,1.1059,1.0737,1.0401,1.0028,0.9473,0.9315,0.9399,0.9652,1.0034,1.0398,1.0747,1.0974,1.1177,1.1262,1.1262,1.1262,1.1262,1.1262,1.1262,1.1262,1.1262,1.1262,1.1262,1.1262,1.1262,1.1262,1.1262,1.1262,1.1262,1.1262,1.1262,1.1262,1.1262,1.1418,1.1526,1.1666,1.1951,1.2231,1.2382,1.2597,1.2764,1.2764,1.1965,1.1072,1.0685,0.9702,0.8616,0.7524,0.703,0.6315,0.5083,0.4852,0.0,0.4522,0.0,0.4257,0.4151,0.4128,0.411,0.4091,0.3938,0.3859,0.3963,0.4152,0.4186,0.4049,0.4236,0.4381,0.4381,0.4381,0.4381,0.4381,0.4361,0.4334,0.43,0.4336,0.4334,0.43,0.43,0.43,0.43,0.43,0.43,0.43,0.43,0.43,0.431,0.4402,0.4459,0.4512,0.6081,0.0,0.664,0.0,0.7734,0.8885,0.9237,1.0603,1.1612,1.1623,1.1612,1.1537,1.137,1.1262,1.1262,1.1262,1.1198,1.1187,1.1257,1.1284,1.1273,1.1262,1.1262,1.1262,1.1262,1.1262,1.1182,1.0842,1.0673,1.0297,0.9993,0.9846,0.9938,1.0177,1.0585,1.0774,1.0937,1.1193,1.1262,1.1262,1.1262,1.1262,1.1262,1.1262,1.1262,1.1262,1.1262,1.1262,1.1262,1.1262,1.1262,1.1262,1.1262,1.1262,1.1262,1.1262,1.1262,1.1262,1.1262,1.1262,1.1392,1.1558,1.1774,1.2011,1.2253,1.249,1.2678,1.2748,1.2165,1.1668,1.1668,1.064,0.9445,0.8499,0.775,0.6819,0.564,0.52,0.4895,0.4869,0.4559,0.4339,0.4383,0.426,0.4173,0.4083,0.4099,0.4028,0.3856,0.4142,0.4182,0.4035,0.4264,0.4422,0.4395,0.4422,0.4422,0.4393,0.433,0.43,0.43,0.43,0.43,0.43,0.43,0.43,0.43,0.43,0.43,0.43,0.43,0.43,0.4306,0.4371,0.4412,0.4457,0.5094,0.5889,0.635,0.5838,0.6913,0.7796,0.7796,0.9763,1.1305,1.1342,1.13,1.1267,1.1262,1.1262,1.1262,1.1262,1.1038,1.1,1.1246,1.1122,1.1095,1.1251,1.1262,1.1262,1.1262,1.1262,1.1262,1.1262,1.1089,1.0883,1.0643,1.0177,1.0275,1.0648,1.0737,1.0953,1.1262,1.1262,1.1262,1.1262,1.1262,1.1262,1.1262,1.1262,1.1262,1.1262,1.1262,1.1262,1.1262,1.1262,1.1262,1.1262,1.1262,1.1262,1.1262,1.1262,1.1262,1.1262,1.1262,1.1262,1.1262,1.1267,1.1532,1.1763,1.2,1.2242,1.2484,1.2716,1.2764,1.2759,1.2759,1.1308,1.0368,1.1039,0.8438,0.6555,0.6929,0.5704,0.4956,0.53,0.4748,0.4567,0.528,0.4743,0.0,0.4177,0.4249,0.4295,0.4295,0.4297,0.43,0.4297,0.4387,0.4391,0.4302,0.4389,0.4389,0.4302,0.43,0.43,0.43,0.43,0.43,0.43,0.43,0.43,0.43,0.43,0.43,0.43,0.43,0.43,0.43,0.43,0.4357,0.4449,0.5398,0.567,0.5678,0.4905,0.5151,0.5753,0.6744,0.934,1.1332,1.1342,1.0193,0.9443,0.9461,1.0032,1.0619,1.1246,1.1038,1.1,1.1246,1.1278,1.1268,1.1262,1.1262,1.1262,1.1262,1.1262,1.1262,1.1262,1.1094,1.0971,1.0893,1.074,1.0825,1.115,1.115,1.1193,1.1262,1.1262,1.1262,1.1262,1.1262,1.1262,1.1262,1.1262,1.1262,1.1262,1.1262,1.1262,1.1262,1.1262,1.1262,1.1262,1.1262,1.1262,1.1262,1.1262,1.1262,1.1262,1.1262,1.1262,1.1262,1.1262,1.1526,1.1758,1.1995,1.2361,1.2673,1.2748,1.2635,1.2527,1.2527,1.1942,1.1243,1.0547,0.9703,0.8881,0.7851,0.6897,0.625,0.5938,0.5145,0.4569,0.4656,0.4478,0.4287,0.4261,0.423,0.4098,0.3863,0.4144,0.4182,0.4037,0.4206,0.4328,0.43,0.4328,0.4326,0.43,0.43,0.43,0.43,0.43,0.43,0.43,0.43,0.43,0.43,0.43,0.43,0.43,0.43,0.43,0.4306,0.4369,0.441,0.4457,0.5102,0.5104,0.5015,0.4385,0.4273,0.461,0.5499,0.8261,1.0251,1.0265,0.93,0.874,0.9043,0.931,0.9731,1.0409,1.0486,1.0605,1.0937,1.1048,1.116,1.1257,1.1262,1.1262,1.1262,1.1262,1.1262,1.1262,1.1181,1.1094,1.1094,1.1094,1.1181,1.1262,1.1262,1.1262,1.1262,1.1262,1.1262,1.1262,1.1262,1.1262,1.1262,1.1262,1.1262,1.1262,1.1262,1.1262,1.1262,1.1262,1.1262,1.1262,1.1262,1.1262,1.1262,1.1262,1.1262,1.1262,1.1262,1.1262,1.1262,1.1262,1.1462,1.1628,1.1865,1.2215,1.2495,1.2495,1.2377,1.2274,1.2274,1.1989,1.1486,1.091,1.0337,0.9622,0.8674,0.7727,0.7095,0.6731,0.5679,0.5015,0.5099,0.4565,0.43,0.43,0.4249,0.4106,0.3964,0.412,0.4154,0.4045,0.4214,0.4334,0.43,0.4332,0.4332,0.43,0.43,0.43,0.43,0.43,0.43,0.43,0.43,0.43,0.43,0.43,0.43,0.43,0.43,0.43,0.4306,0.4363,0.4383,0.4406,0.43,0.43,0.4295,0.4289,0.4455,0.4619,0.4606,0.6913,0.8627,0.8564,0.8607,0.8948,0.9814,0.9154,0.8712,0.899,0.9404,0.9837,1.0272,1.0429,1.076,1.1219,1.1235,1.1246,1.1262,1.1262,1.1257,1.1241,1.1225,1.1225,1.1241,1.1241,1.1246,1.1262,1.1262,1.1262,1.1262,1.1262,1.1262,1.1262,1.1262,1.1262,1.1262,1.1262,1.1262,1.1262,1.1262,1.1262,1.1262,1.1262,1.1262,1.1262,1.1262,1.1262,1.1262,1.1262,1.1262,1.1262,1.1262,1.1262,1.1262,1.1262,1.1278,1.1435,1.165,1.1881,1.214,1.214,1.2129,1.2118,1.2118,1.1472,1.121,1.1962,1.0459,0.9297,0.9293,0.8286,0.7577,0.7489,0.6254,0.5636,0.6163,0.5099,0.43,0.43,0.4293,0.4293,0.43,0.422,0.4212,0.4295,0.4381,0.4385,0.43,0.4383,0.4383,0.43,0.43,0.43,0.43,0.43,0.43,0.43,0.43,0.43,0.43,0.43,0.43,0.43,0.43,0.43,0.43,0.43,0.43,0.4312,0.43,0.4295,0.4291,0.4289,0.6157,0.7588,0.758,0.8201,0.856,0.8568,0.8627,0.8707,0.892,0.8388,0.809,0.823,0.8845,0.9373,0.9635,0.9927,1.0264,1.0642,1.0905,1.116,1.1262,1.1262,1.1257,1.1069,1.0891,1.0896,1.1069,1.1069,1.1171,1.1262,1.1262,1.1262,1.1262,1.1262,1.1262,1.1262,1.1262,1.1262,1.1262,1.1262,1.1262,1.1262,1.1262,1.1262,1.1262,1.1262,1.1262,1.1262,1.1262,1.1262,1.1262,1.1262,1.1262,1.1262,1.1262,1.1262,1.1262,1.1262,1.1483,1.1634,1.1688,1.1881,1.214,1.214,1.1903,1.1779,1.1779,1.1503,1.1276,1.1417,1.0794,1.0299,1.0265,0.9091,0.8013,0.7302,0.6248,0.5366,0.4832,0.4476,0.43,0.43,0.4238,0.423,0.4295,0.422,0.4212,0.4295,0.432,0.432,0.43,0.432,0.432,0.43,0.43,0.43,0.43,0.43,0.43,0.43,0.43,0.43,0.43,0.43,0.43,0.43,0.43,0.43,0.43,0.43,0.43,0.4312,0.4295,0.4291,0.4734,0.6074,0.7595,0.8584,0.858,0.8572,0.8568,0.8568,0.8644,0.8519,0.8446,0.809,0.7889,0.7902,0.837,0.8737,0.9011,0.9346,0.9685,0.9907,1.0429,1.0747,1.0679,1.1038,1.1063,1.0826,1.0697,1.0697,1.0826,1.0934,1.1052,1.1187,1.13,1.1289,1.1182,1.1182,1.1182,1.1182,1.1182,1.1252,1.1262,1.1262,1.1262,1.1262,1.1262,1.1262,1.1262,1.1262,1.1262,1.1262,1.1262,1.1262,1.1262,1.1262,1.1262,1.1262,1.1262,1.1262,1.1289,1.1483,1.1526,1.1569,1.1677,1.1715,1.1731,1.1731,1.1628,1.1542,1.1542,1.1435,1.1262,1.1262,1.1084,1.0819,1.0381,0.968,0.8807,0.7929,0.6782,0.5808,0.5277,0.4654,0.43,0.43,0.4257,0.4251,0.4297,0.4257,0.4253,0.4297,0.43,0.43,0.43,0.43,0.43,0.43,0.43,0.43,0.43,0.43,0.43,0.43,0.43,0.43,0.43,0.43,0.43,0.43,0.43,0.43,0.43,0.43,0.43,0.4306,0.4289,0.4285,0.5174,0.8136,0.8584,0.858,0.8568,0.8568,0.8568,0.8568,0.8568,0.8495,0.8223,0.8038,0.7947,0.7776,0.7905,0.8095,0.833,0.8742,0.9072,0.9275,0.9868,1.014,0.9892,1.0542,1.0696,1.0584,1.0546,1.0546,1.0589,1.0789,1.0896,1.0939,1.1149,1.1128,1.0934,1.0934,1.095,1.0982,1.0982,1.1133,1.1262,1.1262,1.1262,1.1262,1.1262,1.1262,1.1262,1.1262,1.1262,1.1262,1.1262,1.1262,1.1262,1.1262,1.1262,1.1262,1.1262,1.1262,1.131,1.1596,1.1499,1.1402,1.1602,1.1494,1.1262,1.1262,1.1262,1.1262,1.1262,1.1262,1.1262,1.1262,1.1262,1.0911,1.0212,0.9951,0.9519,0.8652,0.7408,0.652,0.6254,0.5188,0.4389,0.43,0.43,0.43,0.43,0.43,0.43,0.43,0.43,0.43,0.43,0.43,0.43,0.43,0.43,0.43,0.43,0.43,0.43,0.43,0.43,0.43,0.43,0.43,0.43,0.43,0.43,0.43,0.43,0.43,0.43,0.43,0.4289,0.4269,0.5235,0.8128,0.8576,0.8568,0.8568,0.8568,0.8568,0.8568,0.8568,0.8495,0.8223,0.8038,0.7947,0.7776,0.7667,0.7573,0.7675,0.8069,0.8389,0.8661,0.9025,0.9351,0.949,0.9747,1.0058,1.0347,1.0137,1.0137,1.0347,1.0385,1.0503,1.0692,1.0729,1.0724,1.0692,1.0692,1.0805,1.0982,1.0982,1.1133,1.1262,1.1262,1.1262,1.1262,1.1262,1.1262,1.1262,1.1262,1.1262,1.1262,1.1262,1.1262,1.1262,1.1262,1.1262,1.1262,1.1262,1.1262,1.1273,1.131,1.1289,1.1273,1.131,1.1289,1.1262,1.1262,1.1262,1.1262,1.1262,1.1262,1.1262,1.1262,1.0992,1.0641,1.0549,0.9864,0.9082,0.8376,0.7669,0.6871,0.5638,0.5371,0.5013,0.4389,0.43,0.43,0.43,0.43,0.43,0.43,0.43,0.43,0.43,0.43,0.43,0.43,0.43,0.43,0.43,0.43,0.43,0.43,0.43,0.43,0.43,0.43,0.43,0.43,0.43,0.43,0.43,0.43,0.43,0.43,0.5257,0.6051,0.7031,0.8392,0.8572,0.844,0.8072,0.8321,0.8495,0.8207,0.8267,0.8308,0.8032,0.7927,0.7805,0.7626,0.7622,0.763,0.763,0.7773,0.7829,0.7991,0.8492,0.8909,0.9247,0.9433,0.9555,0.9792,0.9824,0.9981,1.0094,1.0229,1.0353,1.0455,1.0579,1.0568,1.0449,1.0449,1.0514,1.0611,1.0611,1.0756,1.0883,1.0883,1.0883,1.0883,1.0883,1.1047,1.1155,1.1155,1.1241,1.1262,1.1262,1.1262,1.1262,1.1262,1.1262,1.1262,1.1262,1.1262,1.1294,1.151,1.1445,1.1381,1.151,1.144,1.1262,1.1262,1.1262,1.1262,1.1262,1.1262,1.1262,1.1262,1.1084,1.0906,1.0636,1.0033,0.9428,0.8907,0.8021,0.7048,0.6077,0.5638,0.5104,0.4387,0.43,0.43,0.43,0.43,0.43,0.43,0.43,0.43,0.43,0.43,0.43,0.43,0.43,0.43,0.43,0.43,0.43,0.43,0.43,0.43,0.43,0.43,0.43,0.43,0.43,0.43,0.43,0.43,0.43,0.43,0.5775,0.7394,0.8568,0.8603,0.8595,0.8348,0.7635,0.799,0.8247,0.7879,0.7963,0.8034,0.7849,0.7821,0.776,0.7618,0.7736,0.7801,0.7764,0.7626,0.7545,0.7545,0.803,0.8479,0.888,0.8952,0.9094,0.9322,0.9625,0.9846,0.9922,1.0116,1.0207,1.0213,1.039,1.0374,1.0207,1.0207,1.0239,1.0293,1.0293,1.0433,1.0638,1.0638,1.0638,1.0638,1.0638,1.0789,1.0982,1.0982,1.1149,1.1262,1.1262,1.1262,1.1262,1.1262,1.1262,1.1262,1.1262,1.1262,1.131,1.1575,1.1483,1.131,1.158,1.1478,1.1262,1.1262,1.1262,1.1262,1.1262,1.1262,1.1262,1.1262,1.1262,1.1176,1.0814,1.0381,0.9951,0.9519,0.8548,0.7489,0.6517,0.5899,0.528,0.4387,0.43,0.43,0.43,0.43,0.43,0.43,0.43,0.43,0.43,0.43,0.43,0.43,0.43,0.43,0.43,0.43,0.43,0.43,0.43,0.43,0.43,0.43,0.43,0.43,0.43,0.43,0.43,0.43,0.43,0.43,0.4696,0.6662,0.8603,0.861,0.8581,0.8336,0.7631,0.7529,0.7616,0.7761,0.7851,0.7851,0.7996,0.7996,0.7988,0.7975,0.7983,0.7927,0.7772,0.7748,0.774,0.774,0.7663,0.7735,0.82,0.8187,0.856,0.9322,0.9322,0.9544,0.9922,0.9938,0.9949,0.9949,0.9965,0.9965,0.9949,0.9949,1.0083,1.0293,1.0293,1.0433,1.0638,1.0638,1.0638,1.0638,1.0638,1.0789,1.0982,1.0982,1.1149,1.1262,1.1262,1.1262,1.1262,1.1262,1.1262,1.1262,1.1262,1.1262,1.1267,1.1283,1.1278,1.1273,1.1283,1.1278,1.1262,1.1262,1.1262,1.1262,1.1262,1.1262,1.1262,1.1262,1.1262,1.1262,1.1262,1.0819,1.0376,1.0038,0.9519,0.8464,0.6605,0.6343,0.5719,0.4389,0.43,0.43,0.43,0.43,0.43,0.43,0.43,0.43,0.43,0.43,0.43,0.43,0.43,0.43,0.43,0.43,0.43,0.43,0.43,0.43,0.43,0.43,0.43,0.43,0.43,0.43,0.43,0.43,0.43,0.43,0.6933,0.7837,0.842,0.7967,0.7936,0.7838,0.7562,0.7519,0.755,0.7785,0.7861,0.7889,0.7866,0.7951,0.7971,0.7866,0.7951,0.8036,0.8085,0.7882,0.7707,0.7594,0.7521,0.7561,0.7714,0.825,0.8632,0.8932,0.9392,0.9771,0.9922,0.9922,0.9922,0.9922,0.9922,0.9922,0.9922,0.9922,0.9976,1.0062,1.0062,1.0116,1.0191,1.0191,1.0191,1.0191,1.0191,1.0439,1.0767,1.0767,1.1031,1.1262,1.1262,1.1262,1.1262,1.1262,1.1262,1.1262,1.1262,1.1262,1.1262,1.1262,1.1262,1.1262,1.1262,1.1262,1.1262,1.1262,1.1262,1.1262,1.1262,1.1262,1.1262,1.1262,1.1262,1.1262,1.1262,1.0906,1.0463,1.0038,0.9607,0.8552,0.6605,0.6428,0.5808,0.4387,0.43,0.43,0.43,0.43,0.43,0.43,0.43,0.43,0.43,0.43,0.43,0.43,0.43,0.43,0.43,0.43,0.43,0.4302,0.4359,0.4383,0.4383,0.4383,0.4383,0.4377,0.432,0.43,0.43,0.43,0.43,0.4308,0.8202,0.8611,0.8443,0.7962,0.7636,0.7506,0.747,0.7521,0.7552,0.7687,0.7772,0.7825,0.7768,0.791,0.7967,0.7849,0.8052,0.8191,0.8203,0.7975,0.7732,0.7492,0.7537,0.7541,0.7484,0.8016,0.8399,0.8475,0.916,0.9614,0.9695,0.9846,0.9922,0.9922,0.9922,0.9922,0.9922,0.9922,0.9922,0.9922,0.9922,0.9922,0.9922,0.9922,0.9922,0.9922,0.9922,1.018,1.0541,1.0611,1.0902,1.1252,1.1241,1.1262,1.1262,1.1262,1.1262,1.1262,1.1262,1.1262,1.1262,1.1262,1.1262,1.1262,1.1262,1.1262,1.1262,1.1262,1.1262,1.1262,1.1262,1.1262,1.1262,1.1262,1.1262,1.1262,1.1262,1.0997,1.0641,1.0207,0.9777,0.8811,0.7136,0.6605,0.5897,0.4746,0.4389,0.43,0.43,0.43,0.43,0.43,0.43,0.43,0.43,0.43,0.43,0.43,0.43,0.4314,0.4342,0.4342,0.4357,0.4387,0.4451,0.4479,0.4477,0.4447,0.4434,0.4426,0.4334,0.4316,0.4342,0.4342,0.4359,0.4393,0.7993,0.8576,0.8617,0.8613,0.7959,0.7529,0.7508,0.7484,0.7484,0.7484,0.7484,0.7557,0.774,0.791,0.8016,0.8012,0.8353,0.8406,0.8032,0.8016,0.7858,0.7496,0.7659,0.7671,0.7488,0.7484,0.7714,0.8102,0.8479,0.8937,0.9322,0.9695,0.9922,0.9922,0.9922,0.9922,0.9922,0.9922,0.9922,0.9922,0.9922,0.9922,0.9922,0.9922,0.9922,0.9922,0.9922,1.0083,1.0331,1.0557,1.0789,1.1025,1.1273,1.1262,1.1262,1.1262,1.1262,1.1262,1.1262,1.1262,1.1262,1.1262,1.1262,1.1262,1.1262,1.1262,1.1262,1.1262,1.1262,1.1262,1.1262,1.1262,1.1262,1.1262,1.1262,1.1262,1.1262,1.1262,1.117,1.0636,1.0207,0.951,0.8285,0.7136,0.6166,0.546,0.4746,0.43,0.43,0.43,0.43,0.43,0.43,0.43,0.43,0.43,0.43,0.43,0.43,0.4346,0.4434,0.4436,0.4485,0.4573,0.4573,0.4573,0.4567,0.4475,0.4436,0.4428,0.4336,0.4357,0.4436,0.4436,0.4493,0.4573,0.7741,0.8226,0.8405,0.7938,0.7625,0.7529,0.7508,0.7484,0.7529,0.7659,0.7679,0.7699,0.7752,0.8028,0.8154,0.8024,0.8231,0.8219,0.7858,0.8191,0.8126,0.7508,0.7659,0.7671,0.7488,0.7791,0.7949,0.8102,0.8789,0.917,0.9322,0.9695,0.9922,0.9922,0.9922,0.9922,0.9922,0.9922,0.9922,0.9922,0.9922,0.9922,0.9922,0.9922,0.9922,0.9922,0.9922,1.0083,1.0331,1.0557,1.0789,1.0999,1.1069,1.1095,1.1095,1.1095,1.1095,1.1095,1.1095,1.1219,1.1262,1.1262,1.1262,1.1262,1.1262,1.1262,1.1262,1.1262,1.1262,1.1262,1.1262,1.1262,1.1262,1.1262,1.1262,1.1262,1.1262,1.1262,1.117,1.0636,1.0463,0.9676,0.7654,0.7126,0.6245,0.4746,0.4389,0.43,0.43,0.43,0.43,0.43,0.43,0.43,0.43,0.43,0.43,0.43,0.4363,0.441,0.4436,0.4502,0.4547,0.4575,0.464,0.4667,0.4665,0.4638,0.4626,0.4618,0.4526,0.4508,0.453,0.453,0.4549,0.4581,0.7562,0.7854,0.8045,0.7597,0.7529,0.7528,0.75,0.7484,0.7525,0.7638,0.765,0.765,0.765,0.7906,0.8004,0.7821,0.8036,0.8122,0.7979,0.8345,0.8276,0.7622,0.7764,0.7744,0.7488,0.7714,0.7872,0.7872,0.8632,0.9089,0.9089,0.962,0.9922,0.9922,0.9922,0.9922,0.9922,0.9922,0.9922,0.9922,0.9922,0.9922,0.9922,0.9922,0.9922,0.9922,0.9922,1.0019,1.018,1.0423,1.0654,1.0848,1.0848,1.0848,1.0848,1.0848,1.0912,1.0982,1.0982,1.1165,1.1241,1.123,1.1278,1.1241,1.1225,1.1278,1.1262,1.1262,1.1262,1.1262,1.1262,1.1262,1.1262,1.1262,1.1262,1.1262,1.1262,1.1262,1.1176,1.0906,1.0722,0.9932,0.8089,0.7386,0.6352,0.4439,0.4353,0.4369,0.4406,0.4408,0.4408,0.4408,0.4408,0.4408,0.4408,0.4408,0.4389,0.4353,0.441,0.4473,0.4545,0.46,0.4645,0.4679,0.4734,0.4757,0.4755,0.4722,0.4708,0.47,0.4608,0.4594,0.4626,0.4626,0.4649,0.4683,0.7533,0.7516,0.7533,0.7537,0.7512,0.7484,0.7484,0.7484,0.7484,0.7484,0.7484,0.7484,0.7484,0.765,0.7691,0.7525,0.7833,0.8109,0.828,0.8446,0.8308,0.7784,0.7906,0.7829,0.7488,0.7561,0.7561,0.7561,0.8322,0.878,0.878,0.9539,0.9922,0.9922,0.9922,0.9922,0.9922,0.9922,0.9922,0.9922,0.9922,0.9922,0.9922,0.9922,0.9922,0.9922,0.9922,0.9922,0.996,1.0213,1.0444,1.0632,1.0611,1.0606,1.0606,1.0606,1.0767,1.095,1.095,1.1149,1.1284,1.102,1.1155,1.1284,1.1042,1.1171,1.1262,1.1262,1.1262,1.1262,1.1262,1.1262,1.1262,1.1262,1.1262,1.1262,1.1262,1.1262,1.1262,1.1262,1.0906,1.0284,0.9318,0.7929,0.6311,0.452,0.4442,0.4483,0.4569,0.4573,0.4573,0.4573,0.4573,0.4573,0.4573,0.4573,0.453,0.4449,0.4457,0.4547,0.4708,0.4716,0.4763,0.4834,0.4834,0.4834,0.4828,0.4751,0.472,0.4712,0.4628,0.4647,0.472,0.472,0.4769,0.4834,0.7533,0.7508,0.7496,0.7533,0.7508,0.7484,0.7484,0.7484,0.7484,0.7484,0.7484,0.7484,0.7484,0.765,0.7744,0.7703,0.8024,0.8247,0.8288,0.8329,0.8174,0.7776,0.7797,0.7711,0.7488,0.7795,0.7949,0.7949,0.8789,0.917,0.917,0.9695,0.9922,0.9922,0.9922,0.9922,0.9922,0.9922,0.9922,0.9922,0.9922,0.9922,0.9922,0.9922,0.9922,0.9922,0.9922,0.9922,0.996,1.0213,1.0444,1.0606,1.0423,1.0369,1.0369,1.0369,1.053,1.0713,1.0713,1.1025,1.1161,1.0821,1.1036,1.1284,1.1042,1.1171,1.1262,1.1262,1.1262,1.1262,1.1262,1.1262,1.1262,1.1262,1.1262,1.1262,1.1262,1.1262,1.1262,1.1262,1.1176,1.0727,0.9579,0.7585,0.5866,0.4524,0.4502,0.4551,0.4571,0.4573,0.4573,0.4573,0.4573,0.4573,0.4573,0.4573,0.4563,0.4545,0.4616,0.4669,0.471,0.4777,0.4818,0.4834,0.4834,0.4834,0.4832,0.4814,0.4808,0.4806,0.4785,0.479,0.4808,0.4808,0.4818,0.4834,0.7484,0.7484,0.7484,0.7484,0.7484,0.7484,0.7484,0.7484,0.7484,0.7484,0.7484,0.7484,0.7484,0.7569,0.7663,0.7832,0.7931,0.8073,0.815,0.8158,0.804,0.7772,0.784,0.7832,0.7795,0.8174,0.8331,0.8102,0.8941,0.9322,0.9322,0.9695,0.9922,0.9922,0.9922,0.9922,0.9922,0.9922,0.9922,0.9922,0.9922,0.9922,0.9922,0.9922,0.9922,0.9922,0.9922,0.9922,0.9938,1.0073,1.0196,1.0272,1.0153,1.0116,1.0116,1.0116,1.0283,1.0498,1.0606,1.0902,1.1117,1.0864,1.1079,1.1284,1.1042,1.1171,1.1262,1.1262,1.1262,1.1262,1.1262,1.1262,1.1262,1.1262,1.1262,1.1262,1.1262,1.1262,1.1392,1.1505,1.1515,1.1108,1.0041,0.8234,0.6656,0.5593,0.5934,0.5805,0.489,0.5472,0.5569,0.4895,0.4895,0.4795,0.4698,0.4698,0.4698,0.4698,0.4706,0.473,0.4771,0.4814,0.4834,0.4834,0.4834,0.4834,0.4834,0.4834,0.4834,0.4834,0.4834,0.4834,0.4834,0.4834,0.5035,0.5436,0.7512,0.7516,0.7528,0.748,0.7484,0.7484,0.7484,0.7484,0.7484,0.7484,0.7484,0.7484,0.7484,0.7484,0.7557,0.7744,0.784,0.7833,0.8004,0.7983,0.7906,0.7768,0.7811,0.7956,0.8106,0.8556,0.8632,0.8331,0.9018,0.9397,0.9397,0.9771,0.9922,0.9922,0.9922,0.9922,0.9922,0.9922,0.9922,0.9922,0.9922,0.9922,0.9922,0.9922,0.9922,0.9922,0.9922,0.9922,0.9922,0.9922,0.9922,0.9922,0.9922,0.9922,0.9922,0.9922,1.0126,1.0396,1.0584,1.0837,1.1047,1.1047,1.1203,1.13,1.1095,1.1203,1.1262,1.1262,1.1262,1.1262,1.1262,1.1381,1.1413,1.1413,1.1445,1.1472,1.1472,1.1472,1.1542,1.1736,1.1758,1.1377,1.0357,0.9194,0.8044,0.7112,0.7624,0.7302,0.5634,0.6628,0.6628,0.5338,0.524,0.5138,0.4935,0.4935,0.4935,0.4933,0.4862,0.4866,0.4834,0.4834,0.4834,0.4834,0.4834,0.4834,0.4834,0.4834,0.4834,0.5035,0.5035,0.5135,0.5236,0.5236,0.5636,0.6342,0.7463,0.7497,0.7468,0.7536,0.7484,0.7484,0.7484,0.7484,0.7484,0.7484,0.7484,0.7484,0.7484,0.7484,0.7557,0.7744,0.784,0.7833,0.8004,0.7878,0.7784,0.784,0.8,0.8056,0.8102,0.8865,0.917,0.917,0.962,0.9846,0.9846,0.9846,0.9922,0.9922,0.9922,0.9922,0.9922,0.9922,0.9922,0.9922,0.9922,0.9922,0.9922,0.9922,0.9922,0.9922,0.9922,0.9922,0.9922,0.9922,0.9922,0.9922,0.9922,0.9922,0.9922,0.9922,1.0239,1.0595,1.0627,1.0877,1.13,1.13,1.1241,1.1257,1.1311,1.1241,1.1262,1.1262,1.1262,1.1262,1.1262,1.1515,1.1655,1.1655,1.1822,1.1957,1.1957,1.1957,1.1968,1.1995,1.2091,1.1548,1.0366,1.0153,0.9594,0.8557,0.8593,0.8192,0.7024,0.7123,0.6728,0.5536,0.5536,0.5536,0.5534,0.5534,0.5534,0.5534,0.5522,0.5222,0.4834,0.4834,0.4834,0.4834,0.4834,0.4834,0.4834,0.4834,0.5238,0.5842,0.5842,0.6239,0.6836,0.6836,0.6936,0.7039,0.7286,0.738,0.7475,0.7472,0.7484,0.7484,0.7484,0.7484,0.7484,0.7484,0.7484,0.7484,0.7484,0.7484,0.7516,0.7598,0.7606,0.7634,0.7711,0.7646,0.7762,0.7922,0.8073,0.8331,0.8789,0.9094,0.9397,0.962,0.9846,0.9922,0.9922,0.9922,0.9922,0.9922,0.9922,0.9922,0.9922,0.9922,0.9922,0.9922,0.9922,0.9922,0.9922,0.9922,0.9922,0.9922,0.9922,0.9922,0.9922,0.9922,0.9922,0.9922,0.9922,0.9922,0.9949,1.0089,1.018,1.0326,1.0719,1.0891,1.0931,1.1198,1.1262,1.13,1.1515,1.1548,1.151,1.1289,1.1262,1.1392,1.1521,1.1628,1.1741,1.1876,1.1978,1.214,1.214,1.214,1.2097,1.2237,1.2366,1.2252,1.1772,1.1476,1.0946,0.9964,1.0338,0.9895,0.8407,0.8996,0.8898,0.7614,0.7614,0.7518,0.7419,0.7419,0.7419,0.7419,0.7419,0.6924,0.6129,0.5534,0.5929,0.7021,0.6426,0.6526,0.7021,0.7021,0.722,0.7524,0.7229,0.7135,0.7238,0.7736,0.7836,0.7935]},{"header":{"parameterUnit":"m.s-1","parameterCategory":1,"la1":30.6,"la2":28.766,"lo1":-90.7593,"lo2":-88.6598,"dy":0.0162,"dx":0.0183,"nx":116,"ny":114,"refTime":"2023-05-17T00:00:00:Z","depth":0,"parameterNumber":3,"parameterNumberName":"V-component_of_WINDS"},"data":[0.0,0.0,0.0,0.0,0.0,0.0,0.0,0.0,0.0,0.0,0.0,0.0,0.0,0.0,0.0,0.0,0.0,0.0,0.0,0.0,0.0,0.0,0.0,0.0,0.0,0.0,0.0,0.0,0.0,0.0,0.0,0.0,0.0,0.0,0.0,0.0,0.0,0.0,0.0,0.0,0.0,0.0,0.0,0.0,0.0,0.0,0.0,0.0,0.0,0.0,0.0,0.0,0.0,0.0,0.0,0.0,0.0,0.0,0.0,0.0,0.0,0.0,0.0,0.0,0.0,0.0,0.0,0.0,0.0,0.0,0.0,0.0,0.0,0.0,0.0,0.0,0.0,0.0,0.0,0.0,0.0,0.0,0.0,0.0,0.0,0.0,0.0,0.0,0.0,0.0,0.0,0.0,0.0,0.0,0.0,0.0,0.0,0.0,0.0,0.0,0.0,0.0,0.0,0.0,0.0,0.0,0.0,0.0,0.0,0.0,0.0,0.0,0.0,0.0,0.0,0.0,0.0,0.0,0.0,0.0,0.0,0.0,0.0,0.0,0.0,0.0,0.0,0.0,0.0,0.0,0.0,0.0,0.0,0.0,0.0,0.0,0.0,0.0,0.0,0.0,0.0,0.0,0.0,0.0,0.0,0.0,0.0,0.0,0.0,0.0,0.0,0.0,0.0,0.0,0.0,0.0,0.0,0.0,0.0,0.0,0.0,0.0,0.0,0.0,0.0,0.0,0.0,0.0,0.0,0.0,0.0,0.0,0.0,0.0,0.0,0.0,0.0,0.0,0.0,0.0,0.0,0.0,0.0,0.0,0.0,0.0,0.0,0.0,0.0,0.0,0.0,0.0,0.0,0.0,0.0,0.0,0.0,0.0,0.0,0.0,0.0,0.0,0.0,0.0,0.0,0.0,0.0,0.0,0.0,0.0,0.0,0.0,0.0,0.0,0.0,0.0,0.0,0.0,0.0,0.0,0.0,0.0,0.0,0.0,0.0,0.0,0.0,0.0,0.0,0.0,0.0,0.0,0.0,0.0,0.0,0.0,0.0,0.0,0.0,0.0,0.0,0.0,0.0,0.0,0.0,0.0,0.0,0.0,0.0,0.0,0.0,0.0,0.0,0.0,0.0,0.0,0.0,0.0,0.0,0.0,0.0,0.0,0.0,0.0,0.0,0.0,0.0,0.0,0.0,0.0,0.0,0.0,0.0,0.0,0.0,0.0,0.0,0.0,0.0,0.0,0.0,0.0,0.0,0.0,0.0,0.0,0.0,0.0,0.0,0.0,0.0,0.0,0.0,0.0,0.0,0.0,0.0,0.0,0.0,0.0,0.0,0.0,0.0,0.0,0.0,0.0,0.0,0.0,0.0,0.0,0.0,0.0,0.0,0.0,0.0,0.0,0.0,0.0,0.0,0.0,0.0,0.0,0.0,0.0,0.0,0.0,0.0,0.0,0.0,0.0,0.0,0.0,0.0,0.0,0.0,0.0,0.0,0.0,0.0,0.0,0.0,0.0,0.0,0.0,0.0,0.0,0.0,0.0,0.0,0.0,0.0,0.0,0.0,0.0,0.0,0.0,0.0,0.0,0.0,0.0,0.0,0.0,0.0,0.0,0.0,0.0,0.0,0.0,0.0,0.0,0.0,0.0,0.0,0.0,0.0,0.0,0.0,0.0,0.0,0.0,0.0,0.0,0.0,0.0,0.0,0.0,0.0,0.0,0.0,0.0,0.0,0.0,0.0,0.0,0.0,0.0,0.0,0.0,0.0,0.0,0.0,0.0,0.0,0.0,0.0,0.0,0.0,0.0,0.0,0.0,0.0,0.0,0.0,0.0,0.0,0.0,0.0,0.0,0.0,0.0,0.0,0.0,0.0,0.0,0.0,0.0,0.0,0.0,0.0,0.0,0.0,0.0,0.0,0.0,0.0,0.0,0.0,0.0,0.0,0.0,0.0,0.0,0.0,0.0,0.0,0.0,0.0,0.0,0.0,0.0,0.0,0.0,0.0,0.0,0.0,0.0,0.0,0.0,0.0,0.0,0.0,0.0,0.0,0.0,0.0,0.0,0.0,0.0,0.0,0.0,0.0,0.0,0.0,0.0,0.0,0.0,0.0,0.0,0.0,0.0,0.0,0.0,0.0,0.0,0.0,0.0,0.0,0.0,0.0,0.0,0.0,0.0,0.0,0.0,0.0,0.0,0.0,0.0,0.0,0.0,0.0,0.0,0.0,0.0,0.0,0.0,0.0,0.0,0.0,0.0,0.0,0.0,0.0,0.0,0.0,0.0,0.0,0.0,0.0,0.0,0.0,0.0,0.0,0.0,0.0,0.0,0.0,0.0,0.0,0.0,0.0,0.0,0.0,0.0,0.0,0.0,0.0,0.0,0.0,0.0,0.0,0.0,0.0,0.0,0.0,0.0,0.0,0.0,0.0,0.0,0.0,0.0,0.0,0.0,0.0,0.0,0.0,0.0,0.0,0.0,0.0,0.0,0.0,0.0,0.0,0.0,0.0,0.0,0.0,0.0,0.0,0.0,0.0,0.0,0.0,0.0,0.0,0.0,0.0,0.0,0.0,0.0,0.0,0.0,0.0,0.0,0.0,0.0,0.0,0.0,0.0,0.0,0.0,0.0,0.0,0.0,0.0,0.0,0.0,0.0,0.0,0.0,0.0,0.0,0.0,0.0,0.0,0.0,0.0,0.0,0.0,0.0,0.0,0.0,0.0,0.0,0.0,0.0,0.0,0.0,0.0,0.0,0.0,0.0,0.0,0.0,0.0,0.0,0.0,0.0,0.0,0.0,0.0,0.0,0.0,0.0,0.0,0.0,0.0,0.0,0.0,0.0,0.0,0.0,0.0,0.0,0.0,0.0,0.0,0.0,0.0,0.0,0.0,0.0,0.0,0.0,0.0,0.0,0.0,0.0,0.0,0.0,0.0,0.0,0.0,0.0,0.0,0.0,0.0,0.0,0.0,0.0,0.0,0.0,0.0,0.0,0.0,0.0,0.0,0.0,0.0,0.0,0.0,0.0,0.0,0.0,0.0,0.0,0.0,0.0,0.0,0.0,0.0,0.0,0.0,0.0,0.0,0.0,0.0,0.0,0.0,0.0,0.0,0.0,0.0,0.0,0.0,0.0,0.0,0.0,0.0,0.0,0.0,0.0,0.0,0.0,0.0,0.0,0.0,0.0,0.0,0.0,0.0,0.0,0.0,0.0,0.0,0.0,0.0,0.0,0.0,0.0,0.0,0.0,0.0,0.0,0.0,0.0,0.0,0.0,0.0,0.0,0.0,0.0,0.0,0.0,0.0,0.0,0.0,0.0,0.0,0.0,0.0,0.0,0.0,0.0,0.0,0.0,0.0,0.0,0.0,0.0,0.0,0.0,0.0,0.0,0.0,0.0,0.0,0.0,0.0,0.0,0.0,0.0,0.0,0.0,0.0,0.0,0.0,0.0,0.0,0.0,0.0,0.0,0.0,0.0,0.0,0.0,0.0,0.0,0.0,0.0,0.0,0.0,0.0,0.0,0.0,0.0,0.0,0.0,0.0,0.0,0.0,0.0,0.0,0.0,0.0,0.0,0.0,0.0,0.0,0.0,0.0,0.0,0.0,0.0,0.0,0.0,0.0,0.0,0.0,0.0,0.0,0.0,0.0,0.0,0.0,0.0,0.0,0.0,0.0,0.0,0.0,0.0,0.0,0.0,0.0,0.0,0.0,0.0,0.0,0.0,0.0,0.0,0.0,0.0,0.0,0.0,0.0,0.0,0.0,0.0,0.0,0.0,0.0,0.0,0.0,0.0,0.0,0.0,0.0,0.0,0.0,0.0,0.0,0.0,0.0,0.0,0.0,0.0,0.0,0.0,0.0,0.0,0.0,0.0,0.0,0.0,0.0,0.0,0.0,0.0,0.0,0.0,0.0,0.0,0.0,0.0,0.0,0.0,0.0,0.0,0.0,0.0,0.0,0.0,0.0,0.0,0.0,0.0,0.0,0.0,0.0,0.0,0.0,0.0,0.0,0.0,0.0,0.0,0.0,0.0,0.0,0.0,0.0,0.0,0.0,0.0,0.0,0.0,0.0,0.0,0.0,0.0,0.0,0.0,0.0,0.0,0.0,0.0,0.0,0.0,0.0,0.0,0.0,0.0,0.0,0.0,0.0,0.0,0.0,0.0,0.0,0.0,0.0,0.0,0.0,0.0,0.0,0.0,0.0,0.0,0.0,0.0,0.0,0.0,0.0,0.0,0.0,0.0,0.0,0.0,0.0,0.0,0.0,0.0,0.0,0.0,0.0,0.0,0.0,0.0,0.0,0.0,0.0,0.0,0.0,0.0,0.0,0.0,0.0,0.0,0.0,0.0,0.0,0.0,0.0,0.0,0.0,0.0,0.0,0.0,0.0,0.0,0.0,0.0,0.0,0.0,0.0,0.0,0.0,0.0,0.0,0.0,0.0,0.0,0.0,0.0,0.0,0.0,0.0,0.0,0.0,0.0,0.0,0.0,0.0,0.0,0.0,0.0,0.0,0.0,0.0,0.0,0.0,0.0,0.0,0.0,0.0,0.0,0.0,0.0,0.0,0.0,0.0,0.0,0.0,0.0,0.0,0.0,0.0,0.0,0.0,0.0,0.0,0.0,0.0,0.0,0.0,0.0,0.0,0.0,0.0,0.0,0.0,0.0,0.0,0.0,0.0,0.0,0.0,0.0,0.0,0.0,0.0,0.0,0.0,0.0,0.0,0.0,0.0,0.0,0.0,0.0,0.0,0.0,0.0,0.0,0.0,0.0,0.0,0.0,0.0,0.0,0.0,0.0,0.0,0.0,0.0,0.0,0.0,0.0,0.0,0.0,0.0,0.0,0.0,0.0,0.0,0.0,0.0,0.0,0.0,0.0,0.0,0.0,0.0,0.0,0.0,0.0,0.0,0.0,0.0,0.0,0.0,0.0,0.0,0.0,0.0,0.0,0.0,0.0,0.0,0.0,0.0,0.0,0.0,0.0,0.0,0.0,0.0,0.0,0.0,0.0,0.0,0.0,0.0,0.0,0.0,0.0,0.0,0.0,0.0,0.0,0.0,0.0,0.0,0.0,0.0,0.0,0.0,0.0,0.0,0.0,0.0,0.0,0.0,0.0,0.0,0.0,0.0,0.0,0.0,0.0,0.0,0.0,0.0,0.0,0.0,0.0,0.0,0.0,0.0,0.0,0.0,0.0,0.0,0.0,0.0,0.0,0.0,0.0,0.0,0.0,0.0,0.0,0.0,0.0,0.0,0.0,0.0,0.0,0.0,0.0,0.0,0.0,0.0,0.0,0.0,0.0,0.0,0.0,0.0,0.0,0.0,0.0,0.0,0.0,0.0,0.0,0.0,0.0,0.0,0.0,0.0,0.0,0.0,0.0,0.0,0.0,0.0,0.0,0.0,0.0,0.0,0.0,0.0,0.0,0.0,0.0,0.0,0.0,0.0,0.0,0.0,0.0,0.0,0.0,0.0,0.0,0.0,0.0,0.0,0.0,0.0,0.0,0.0,0.0,0.0,0.0,0.0,0.0,0.0,0.0,0.0,0.0,0.0,0.0,0.0,0.0,0.0,0.0,0.0,0.0,0.0,0.0,0.0,0.0,0.0,0.0,0.0,0.0,0.0,0.0,0.0,0.0,0.0,0.0,0.0,0.0,0.0,0.0,0.0,0.0,0.0,0.0,0.0,0.0,0.0,0.0,0.0,0.0,0.0,0.0,0.0,0.0,0.0,0.0,0.0,0.0,0.0,0.0,0.0,0.0,0.0,0.0,0.0,0.0,0.0,0.0,0.0,0.0,0.0,0.0,0.0,0.0,0.0,0.0,0.0,0.0,0.0,0.0,0.0,0.0,0.0,0.0,0.0,0.0,0.0,0.0,0.0,0.0,0.0,0.0,0.0,0.0,0.0,0.0,0.0,0.0,0.0,0.0,0.0,0.0,0.0,0.0,0.0,0.0,0.0,0.0,0.0,0.0,0.0,0.0,0.0,0.0,0.0,0.0,0.0,0.0,0.0,0.0,0.0,0.0,0.0,0.0,0.0,0.0,0.0,0.0,0.0,0.0,0.0,0.0,0.0,0.0,0.0,0.0,0.0,0.0,-2.789,0.0,0.0,0.0,0.0,0.0,0.0,0.0,0.0,0.0,0.0,0.0,0.0,0.0,0.0,0.0,0.0,0.0,0.0,0.0,0.0,0.0,0.0,0.0,0.0,0.0,0.0,0.0,0.0,0.0,0.0,0.0,0.0,0.0,0.0,0.0,0.0,0.0,0.0,0.0,0.0,0.0,0.0,0.0,0.0,0.0,0.0,0.0,0.0,0.0,0.0,0.0,0.0,0.0,0.0,0.0,0.0,0.0,0.0,0.0,0.0,0.0,0.0,0.0,0.0,0.0,0.0,0.0,0.0,0.0,0.0,0.0,0.0,0.0,0.0,0.0,0.0,0.0,0.0,0.0,0.0,0.0,0.0,0.0,0.0,0.0,0.0,0.0,0.0,0.0,0.0,0.0,0.0,0.0,0.0,0.0,0.0,0.0,0.0,0.0,0.0,0.0,0.0,0.0,0.0,0.0,0.0,0.0,0.0,0.0,0.0,0.0,0.0,0.0,0.0,0.0,0.0,-2.8777,0.0,0.0,0.0,0.0,0.0,0.0,0.0,0.0,0.0,0.0,0.0,0.0,0.0,0.0,0.0,0.0,0.0,0.0,0.0,0.0,0.0,0.0,0.0,0.0,0.0,0.0,0.0,0.0,0.0,0.0,0.0,0.0,0.0,0.0,0.0,0.0,0.0,0.0,0.0,0.0,0.0,0.0,0.0,0.0,0.0,0.0,0.0,0.0,0.0,0.0,0.0,0.0,0.0,0.0,0.0,0.0,0.0,0.0,0.0,0.0,0.0,0.0,0.0,0.0,0.0,0.0,0.0,0.0,0.0,0.0,0.0,0.0,0.0,0.0,0.0,0.0,0.0,0.0,0.0,0.0,0.0,0.0,0.0,0.0,0.0,0.0,0.0,0.0,0.0,0.0,0.0,0.0,0.0,0.0,0.0,0.0,0.0,0.0,0.0,0.0,0.0,0.0,0.0,0.0,0.0,0.0,0.0,0.0,-3.3158,-3.3178,-3.3184,-3.4501,-3.512,-3.5023,-3.3087,-3.2277,-3.2217,-3.0904,0.0,0.0,0.0,0.0,0.0,0.0,0.0,0.0,0.0,0.0,0.0,0.0,0.0,0.0,0.0,0.0,0.0,0.0,0.0,0.0,0.0,0.0,0.0,0.0,0.0,0.0,0.0,0.0,0.0,0.0,0.0,0.0,0.0,0.0,0.0,0.0,0.0,0.0,-3.2837,-3.4464,-3.5336,-3.536,-3.1617,0.0,0.0,0.0,0.0,0.0,0.0,0.0,0.0,0.0,0.0,0.0,0.0,0.0,0.0,0.0,0.0,0.0,0.0,0.0,0.0,0.0,0.0,0.0,0.0,0.0,0.0,0.0,0.0,0.0,0.0,0.0,0.0,0.0,0.0,0.0,0.0,0.0,0.0,0.0,0.0,0.0,0.0,0.0,-2.9584,-2.9677,0.0,0.0,0.0,0.0,0.0,0.0,0.0,0.0,0.0,0.0,0.0,0.0,0.0,-3.3163,-3.3257,-3.4773,-3.5531,-3.5539,-3.6152,-3.6483,-3.6464,-3.669,-3.6784,-3.6802,-3.7197,0.0,-3.3212,-3.3006,0.0,0.0,0.0,0.0,0.0,0.0,0.0,0.0,0.0,0.0,0.0,0.0,0.0,0.0,0.0,0.0,0.0,0.0,0.0,0.0,0.0,0.0,0.0,0.0,0.0,0.0,0.0,0.0,0.0,0.0,0.0,0.0,0.0,0.0,0.0,0.0,-3.3177,-3.5309,-3.7589,-3.8355,-3.8908,-3.9199,-3.7311,-3.4958,-3.224,-3.0536,0.0,0.0,0.0,0.0,0.0,0.0,0.0,0.0,0.0,0.0,0.0,0.0,0.0,0.0,0.0,0.0,0.0,0.0,0.0,0.0,0.0,0.0,0.0,0.0,0.0,0.0,0.0,0.0,0.0,0.0,0.0,0.0,0.0,0.0,0.0,0.0,0.0,0.0,0.0,-2.897,-2.9522,-3.0003,-2.977,-2.9221,0.0,0.0,0.0,0.0,0.0,0.0,0.0,0.0,0.0,-3.4396,-3.5684,-3.6551,-3.6974,-3.8578,-3.9364,-3.9383,-3.9702,-3.9858,-3.9858,-3.9858,-3.9858,-3.9877,-4.0234,-3.9051,-3.6798,-3.5859,-3.4564,-3.3137,0.0,0.0,0.0,0.0,-3.1785,-3.1785,0.0,0.0,0.0,0.0,0.0,0.0,0.0,0.0,0.0,0.0,0.0,0.0,0.0,0.0,0.0,-2.6968,0.0,0.0,0.0,0.0,0.0,0.0,0.0,0.0,0.0,0.0,0.0,0.0,-3.6705,-3.8831,-4.1548,-4.178,-4.1974,-4.217,-4.1955,-3.9529,-3.5456,-3.3706,-3.1999,0.0,0.0,0.0,0.0,0.0,0.0,0.0,0.0,0.0,0.0,0.0,0.0,0.0,0.0,0.0,0.0,0.0,0.0,0.0,0.0,0.0,0.0,0.0,0.0,0.0,0.0,0.0,0.0,0.0,0.0,0.0,0.0,0.0,0.0,0.0,0.0,0.0,0.0,-2.988,-3.0551,-3.121,-3.1464,-3.114,0.0,0.0,0.0,0.0,0.0,0.0,-3.4829,-3.5647,-3.6534,-3.7495,-3.8735,-3.9675,-4.0215,-4.1383,-4.2002,-4.2002,-4.201,-4.1991,-4.1991,-4.1991,-4.1991,-4.1991,-4.1991,-4.1323,-4.0084,-3.8413,-3.7117,-3.6141,-3.5484,-3.524,-3.5165,-3.4564,-3.4358,-3.4358,0.0,0.0,0.0,0.0,0.0,0.0,0.0,0.0,0.0,0.0,0.0,0.0,0.0,0.0,-2.8811,-3.0391,-3.0629,-3.0294,0.0,0.0,0.0,0.0,0.0,0.0,0.0,0.0,0.0,-3.6978,-4.0206,-4.2299,-4.3288,-4.4122,-4.4916,-4.5626,-4.4839,-4.2159,-3.8082,-3.6351,-3.4646,-3.29,0.0,0.0,0.0,0.0,0.0,0.0,0.0,0.0,0.0,0.0,0.0,0.0,0.0,0.0,0.0,0.0,0.0,0.0,0.0,0.0,0.0,0.0,0.0,0.0,0.0,0.0,0.0,0.0,0.0,0.0,0.0,0.0,0.0,0.0,0.0,0.0,0.0,0.0,0.0,-3.4468,-3.5202,0.0,0.0,0.0,0.0,-3.4661,-3.5413,-3.6583,-3.8165,-3.8949,-4.0071,-4.1661,-4.1773,-4.1822,-4.189,-4.1972,-4.1991,-4.1991,-4.1991,-4.1991,-4.1991,-4.1991,-4.1991,-4.1991,-4.1991,-4.1935,-4.1755,-4.014,-3.8507,-3.7024,-3.6986,-3.6967,-3.6967,-3.6911,-3.6892,-3.6892,0.0,0.0,0.0,0.0,0.0,0.0,0.0,0.0,0.0,0.0,0.0,0.0,0.0,-3.054,-3.2658,-3.3269,-3.4305,-3.4096,-3.2142,0.0,0.0,0.0,0.0,0.0,0.0,0.0,-3.7583,-4.0392,-4.2131,-4.3702,-4.5087,-4.5917,-4.6758,-4.7592,-4.7818,-4.6784,-4.4633,-4.0694,-3.8054,-3.6293,-3.3743,-3.1884,0.0,0.0,0.0,0.0,0.0,0.0,0.0,0.0,0.0,0.0,0.0,0.0,0.0,0.0,0.0,0.0,0.0,0.0,0.0,0.0,0.0,0.0,0.0,0.0,0.0,0.0,0.0,0.0,0.0,0.0,0.0,0.0,0.0,0.0,0.0,0.0,0.0,-3.5644,-3.7281,0.0,-3.6944,-3.7527,-3.7999,-3.7999,-3.9133,-4.0107,-4.0726,-4.0998,-4.141,-4.1983,-4.2546,-4.2846,-4.2835,-4.3342,-4.3613,-4.3613,-4.3613,-4.3613,-4.3613,-4.3613,-4.3613,-4.3613,-4.3613,-4.3332,-4.2787,-4.2224,-4.1304,-4.0215,-3.969,-3.9483,-3.9352,-3.8263,-3.7868,-3.7793,0.0,0.0,0.0,0.0,0.0,0.0,0.0,0.0,0.0,0.0,0.0,-2.7363,-2.9698,-3.3067,-3.5259,-3.5558,-3.6578,-3.6113,-3.3569,0.0,0.0,0.0,0.0,0.0,0.0,-3.7371,-3.9777,-4.2597,-4.4335,-4.5603,-4.6445,-4.7856,-4.8658,-4.8941,-4.978,-4.9824,-4.9083,-4.537,-4.2334,-3.9781,-3.725,-3.5216,-3.3459,0.0,0.0,0.0,0.0,0.0,0.0,0.0,0.0,0.0,0.0,0.0,0.0,0.0,0.0,0.0,0.0,0.0,0.0,0.0,0.0,0.0,0.0,0.0,0.0,0.0,0.0,0.0,0.0,0.0,0.0,0.0,0.0,0.0,0.0,0.0,-3.6977,-3.7345,-3.9199,-4.0056,-3.8973,-3.9849,-4.0484,-4.0484,-4.1418,-4.2239,-4.2795,-4.2607,-4.2685,-4.3221,-4.3821,-4.3971,-4.3707,-4.4796,-4.5078,-4.4515,-4.4796,-4.4777,-4.4515,-4.4515,-4.4515,-4.4515,-4.4515,-4.4214,-4.3707,-4.3707,-4.3369,-4.275,-4.1642,-4.121,-4.1079,-3.9971,-3.9558,-3.9445,0.0,0.0,0.0,0.0,0.0,0.0,0.0,0.0,0.0,0.0,-2.663,-2.9569,-3.3015,-3.4992,-3.6423,-3.7262,-3.7282,-3.6169,-3.362,-3.3414,0.0,0.0,0.0,0.0,-3.7206,-3.971,-4.1811,-4.3527,-4.6841,-4.805,-4.7301,-4.9873,-5.0602,-4.9819,-5.0715,-5.1091,-5.1022,-5.0268,-4.7478,-4.3356,-4.0787,-3.8724,-3.682,0.0,0.0,0.0,0.0,0.0,0.0,0.0,0.0,0.0,0.0,0.0,0.0,0.0,0.0,0.0,0.0,0.0,0.0,0.0,0.0,0.0,0.0,0.0,0.0,0.0,0.0,0.0,0.0,0.0,0.0,0.0,0.0,0.0,-3.6326,-3.7621,-3.8968,-3.9797,-4.1224,-4.2141,-4.2141,-4.2141,-4.2141,-4.2168,-4.2156,-4.2878,-4.4496,-4.3847,-4.412,-4.5687,-4.5754,-4.5378,-4.459,-4.6204,-4.6186,-4.459,-4.5378,-4.5341,-4.459,-4.4552,-4.4552,-4.4552,-4.4515,-4.4515,-4.4515,-4.4515,-4.4515,-4.4346,-4.2667,-4.2029,-4.2029,-4.1991,-4.1991,-4.1905,0.0,0.0,0.0,0.0,0.0,0.0,0.0,0.0,0.0,0.0,-2.6786,-3.0239,-3.309,-3.6085,-3.7985,-3.8219,-3.8179,-3.705,-3.4509,0.0,0.0,0.0,0.0,0.0,-4.0727,-4.2092,-4.3918,-4.6238,-4.7179,-4.7827,-4.823,-4.955,-5.0681,-5.1649,-5.3112,-5.4088,-5.4688,-5.5062,-5.3091,-4.9374,-4.4995,-4.147,-3.8665,0.0,0.0,0.0,0.0,0.0,0.0,0.0,0.0,0.0,0.0,0.0,0.0,0.0,0.0,0.0,0.0,0.0,0.0,0.0,0.0,0.0,0.0,0.0,0.0,0.0,0.0,0.0,0.0,0.0,0.0,0.0,0.0,-3.8961,-3.8731,-4.0597,-4.2502,-4.3893,-4.4965,-4.5641,-4.5641,-4.5641,-4.5622,-4.5641,-4.5623,-4.5829,-4.6299,-4.611,-4.6194,-4.6636,-4.6655,-4.6542,-4.6317,-4.6786,-4.6786,-4.6336,-4.6542,-4.6542,-4.6298,-4.566,-4.5378,-4.5341,-4.4759,-4.4515,-4.4515,-4.4515,-4.4515,-4.4402,-4.3351,-4.2938,-4.2881,-4.2243,-4.1991,-4.1954,0.0,0.0,0.0,0.0,0.0,0.0,0.0,0.0,0.0,0.0,-2.7374,-3.0902,-3.3149,-3.6183,-3.8063,-3.8063,-3.7985,-3.6874,-3.431,0.0,0.0,0.0,0.0,-4.0073,-4.3209,-4.4472,-4.6171,-4.8386,-4.8755,-4.9365,-5.0227,-5.18,-5.3016,-5.4017,-5.5699,-5.6714,-5.7221,-5.7654,-5.6283,-5.3536,-5.0577,-4.6485,-4.2044,-4.0881,-3.9402,-3.7831,-3.6948,-3.6483,-3.5997,-3.4012,0.0,0.0,0.0,0.0,0.0,0.0,0.0,0.0,0.0,0.0,0.0,0.0,0.0,0.0,0.0,0.0,0.0,0.0,0.0,0.0,0.0,0.0,0.0,0.0,-4.1024,-4.2573,-4.3657,-4.4392,-4.5322,-4.6599,-4.7181,-4.75,-4.75,-4.7199,-4.6993,-4.6985,-4.7003,-4.7154,-4.7473,-4.717,-4.717,-4.75,-4.75,-4.735,-4.7012,-4.7706,-4.7687,-4.7012,-4.735,-4.7331,-4.6993,-4.6486,-4.6242,-4.6223,-4.5754,-4.5566,-4.5528,-4.5153,-4.5003,-4.4928,0.0,0.0,0.0,0.0,-4.287,-4.2622,0.0,0.0,0.0,0.0,0.0,0.0,0.0,0.0,0.0,0.0,0.0,-3.1471,-3.3214,-3.5737,-3.7301,-3.7301,-3.7164,-3.607,0.0,0.0,0.0,-3.7539,-4.0727,-4.3266,-4.5045,-4.6735,-4.8405,-5.0037,-5.0911,-5.1804,-5.2737,-5.5068,-5.6239,-5.6432,-5.8013,-5.8761,-5.8864,-5.8891,-5.7906,-5.6302,-5.6302,-5.2388,-4.6442,-4.4744,-4.3129,-4.1613,-4.0654,-3.9315,-3.7948,-3.7666,0.0,0.0,0.0,0.0,0.0,0.0,0.0,0.0,0.0,0.0,0.0,0.0,0.0,0.0,0.0,0.0,0.0,0.0,0.0,0.0,0.0,0.0,0.0,0.0,-4.4651,-4.6974,-4.9434,-4.857,-4.7932,-4.8532,-4.8607,-4.857,-4.8495,-4.7838,-4.7387,-4.7293,-4.7282,-4.7601,-4.8307,0.0,0.0,0.0,0.0,-4.8269,-4.7575,-4.8945,-4.8889,-4.7425,-4.8044,-4.7969,-4.7293,-4.7181,-4.7143,-4.7143,-4.7049,-4.7012,-4.6936,-4.6167,-4.5791,-4.5622,-4.4815,-4.4515,-4.4515,-4.4515,-4.4127,-4.3636,0.0,0.0,0.0,0.0,0.0,0.0,0.0,0.0,0.0,-2.4288,-2.8138,-3.1471,-3.3214,-3.5737,-3.7301,-3.7301,-3.6657,-3.5718,0.0,0.0,-3.6343,-4.0101,-4.2188,-4.4372,-4.6754,-4.8502,-4.9901,-5.095,-5.1766,-5.297,-5.4504,-5.5009,-5.6,-5.7366,-5.8348,-5.9172,-5.9875,-6.0522,-5.9755,-5.8172,-5.8114,-5.5249,-5.0786,-4.9122,-4.7845,-4.6737,-4.5169,-4.4376,-4.3776,-4.1792,-4.0893,-4.0137,-3.7395,0.0,0.0,0.0,0.0,0.0,0.0,0.0,0.0,0.0,0.0,0.0,0.0,0.0,0.0,0.0,0.0,0.0,0.0,0.0,0.0,-4.499,-4.724,-4.9396,-5.118,-5.1762,-5.1799,-5.1255,-5.118,-5.0935,-5.0284,-5.0078,-4.9721,-4.9077,-4.902,-4.9096,-4.9246,-4.9715,-5.0053,-5.0203,-5.0842,-5.1104,-5.0954,-5.0616,-5.0297,-4.9978,0.0,0.0,-4.9002,-4.8288,-4.7969,-4.7932,-4.7274,-4.7012,-4.6993,-4.6824,-4.6336,-4.5622,-4.4815,-4.4515,-4.4515,-4.4515,-4.4484,-4.4466,0.0,0.0,0.0,0.0,0.0,0.0,0.0,0.0,0.0,0.0,-2.6763,-2.9549,-3.1256,-3.2996,-3.4212,-3.4664,-3.43,0.0,0.0,-3.6767,-3.8722,-4.2149,-4.4703,-4.6646,-4.792,-5.0056,-5.1571,-5.2445,-5.3281,-5.4582,-5.6311,-5.6719,-5.7593,-5.8894,-5.9687,-6.0293,-6.074,-6.112,-6.0796,-6.0005,-5.9966,-5.8651,-5.6375,-5.3398,-5.1447,-5.0132,-4.8817,-4.7521,-4.6259,-4.5015,-4.4312,-4.3576,-4.147,-3.9652,-3.7899,0.0,0.0,0.0,0.0,0.0,0.0,0.0,0.0,0.0,0.0,0.0,0.0,0.0,0.0,-4.1528,0.0,0.0,-4.7852,-4.9887,-5.1187,-5.2531,-5.4165,-5.4409,-5.3939,-5.27,-5.2193,-5.1748,-5.1321,-5.096,-5.0378,-4.9565,-4.9865,-5.0091,-5.0091,-5.0466,-5.0691,-5.0691,-5.148,-5.1705,-5.1292,-5.1292,-5.1292,-5.1292,-5.0898,-5.071,-5.0673,-4.9828,-4.9434,-4.9396,-4.8607,-4.8251,-4.8194,-4.735,-4.6486,-4.5622,-4.4815,-4.4515,-4.4515,-4.4515,-4.4578,-4.4712,0.0,0.0,0.0,0.0,0.0,0.0,0.0,0.0,0.0,0.0,-2.5488,-2.7631,-2.9315,-3.0274,-3.1077,0.0,0.0,0.0,0.0,-3.881,-4.1022,-4.397,-4.7003,-4.8768,-4.9098,-5.1447,-5.3086,-5.3941,-5.499,-5.6291,-5.7845,-5.8661,-5.9516,-6.039,-6.1041,-6.1318,-6.1322,-6.131,-6.1411,-6.1546,-6.1372,-6.1358,-6.0997,-5.6859,-5.4326,-5.2782,-5.1583,-4.9301,-4.6864,-4.7038,-4.6303,-4.522,-4.4755,-4.3195,-4.1102,-3.8937,-3.7318,0.0,0.0,0.0,0.0,0.0,0.0,0.0,0.0,0.0,-3.9689,-4.1336,-4.4026,-4.6461,-4.7662,-4.99,-5.2272,-5.4311,-5.4634,-5.516,-5.6681,-5.6023,-5.4916,-5.3639,-5.2836,-5.2329,-5.2179,-5.1579,-5.0866,-5.0053,-5.0579,-5.0935,-5.0917,-5.1086,-5.118,-5.118,-5.1968,-5.2062,-5.1424,-5.1912,-5.2156,-5.2156,-5.1987,-5.1818,-5.1649,-5.0992,-5.0598,-5.0429,-4.9771,-4.9509,-4.9377,-4.7856,-4.673,-4.5866,-4.5059,-4.4646,-4.4524,-4.4524,-4.4632,-4.4764,0.0,0.0,0.0,0.0,0.0,0.0,0.0,0.0,0.0,0.0,0.0,0.0,0.0,0.0,0.0,0.0,0.0,0.0,-3.6991,-3.8824,-4.1627,-4.5734,-4.7684,-4.9395,-5.0875,-5.2658,-5.398,-5.4854,-5.6505,-5.7768,-5.8681,-5.9555,-6.0429,-6.1264,-6.1347,-6.1386,-6.1386,-6.1386,-6.1798,-6.2389,-6.1613,-6.1718,-6.1959,-5.8451,-5.6466,-5.5277,-5.2898,-4.9417,-4.6051,-4.6844,-4.5529,-4.3711,-4.4388,-4.4407,-4.3395,-3.9467,0.0,-3.7472,-3.5033,-3.5055,-3.6464,-3.9448,-3.8962,-3.9089,0.0,0.0,-4.4649,-4.6836,-4.8773,-5.0127,-5.0284,-5.2339,-5.4349,-5.531,-5.5479,-5.5817,-5.6756,-5.5535,-5.4559,-5.4612,-5.4315,-5.3846,-5.3128,-5.2986,-5.2578,-5.1678,-5.1696,-5.1767,-5.178,-5.2494,-5.2907,-5.2907,-5.3695,-5.409,-5.3996,-5.3357,-5.3038,-5.3038,-5.2268,-5.1536,-5.0823,-5.0729,-5.0297,-4.9621,-4.9546,-4.9509,-4.9434,-4.8457,-4.7594,-4.6768,-4.5904,-4.5199,-4.4685,-4.4685,-4.4745,-4.4895,0.0,0.0,0.0,0.0,0.0,0.0,0.0,0.0,0.0,0.0,0.0,0.0,0.0,0.0,0.0,0.0,0.0,0.0,-3.6916,-3.881,-4.1676,-4.6007,-4.7813,-4.9017,-4.9664,-5.2358,-5.3913,-5.4232,-5.6971,-5.8467,-5.8836,-6.0215,-6.105,-6.14,-6.14,-6.14,-6.14,-6.14,-6.158,-6.1876,-6.1507,-6.1244,-6.0845,-5.8381,-5.5641,-5.2825,-5.0768,-4.823,0.0,0.0,-4.4944,-4.4118,-4.4498,-4.3918,-4.2698,-4.0458,-3.9441,0.0,-3.8191,-3.862,0.0,0.0,-4.3721,-4.4836,-4.8701,-4.9105,-4.9144,-5.097,-5.2523,-5.3743,-5.4421,-5.6191,-5.7711,0.0,-5.7756,-5.754,-5.8053,-5.6111,-5.4537,-5.4295,-5.3762,-5.3429,-5.3447,-5.2821,-5.2296,-5.1921,-5.2367,-5.2663,-5.2663,-5.2982,-5.3188,-5.3188,-5.3977,-5.4183,-5.3695,-5.3827,-5.3902,-5.3883,-5.3526,-5.3188,-5.2832,-5.2362,-5.1686,-5.0879,-5.0391,-5.0185,-5.0091,-4.8739,-4.7988,-4.7556,-4.629,-4.5658,-4.5334,-4.4881,-4.477,-4.4919,0.0,0.0,0.0,0.0,0.0,0.0,0.0,0.0,0.0,0.0,0.0,0.0,0.0,0.0,0.0,0.0,0.0,0.0,0.0,-3.8079,-4.1051,-4.5636,-4.722,-4.8424,-4.9332,-5.1794,-5.3302,-5.3716,-5.6421,-5.7748,-5.7787,-5.9535,-6.0468,-6.0701,-6.0934,-6.1167,-6.14,-6.14,-6.1536,-6.1711,-6.0973,-6.0298,-5.9415,-5.6504,-5.3139,-4.9815,-4.8587,-4.6421,0.0,0.0,-4.3261,-4.2939,-4.3434,-4.2761,-4.1613,-4.0791,-4.0092,-3.9809,-4.0713,0.0,0.0,-4.6086,-4.7946,-4.9798,-5.2338,-5.2861,-5.3207,-5.4696,-5.5813,-5.6757,-5.7485,-5.8489,-5.9334,-5.9693,-5.8756,-5.8155,-5.8463,-5.604,-5.4107,-5.3726,-5.2482,-5.1999,-5.2894,-5.241,-5.2083,-5.2254,-5.293,-5.3408,-5.3634,-5.3653,-5.3653,-5.3653,-5.4138,-5.4108,-5.3526,-5.4108,-5.4409,-5.4409,-5.4409,-5.4277,-5.4033,-5.3207,-5.2494,-5.1874,-5.1273,-5.0898,-5.0598,-4.9439,-4.8668,-4.8152,-4.707,-4.6528,-4.6278,-4.5496,-4.5114,-4.5042,0.0,0.0,0.0,0.0,0.0,0.0,0.0,0.0,0.0,0.0,0.0,0.0,0.0,0.0,0.0,0.0,0.0,0.0,0.0,-3.6308,-3.9569,-4.4715,-4.5804,-4.7834,-5.1156,-5.1258,-5.2113,-5.3797,-5.468,-5.5126,-5.5145,-5.6894,-5.8137,-5.8914,-5.9768,-6.0604,-6.14,-6.14,-6.1886,-6.2449,-5.9904,-5.8855,-5.8195,-5.2348,-4.9007,-4.7392,-4.728,0.0,0.0,0.0,-3.9898,-3.8801,-4.0481,-4.0975,0.0,-3.9879,-3.9617,0.0,0.0,0.0,-4.6383,-4.8938,-5.0692,-5.2435,-5.4914,-5.593,-5.6752,-5.8178,-5.869,-5.8797,-5.8515,-5.81,-5.7939,-5.8458,-5.7434,-5.6739,-5.7282,-5.4693,-5.284,-5.3094,-5.0696,-4.9663,0.0,-5.195,-5.2523,-5.3109,-5.3433,-5.3935,-5.4701,-5.4739,-5.4739,-5.4739,-5.45,-5.439,-5.4352,-5.439,-5.4409,-5.4409,-5.4409,-5.3977,-5.3188,-5.2344,-5.1931,-5.1912,-5.1874,-5.1424,-5.0723,-5.0772,-4.9852,-4.8391,-4.8499,-4.8118,-4.7448,-4.671,-4.5952,-4.5322,0.0,0.0,0.0,0.0,0.0,0.0,0.0,0.0,0.0,0.0,0.0,0.0,0.0,0.0,0.0,0.0,0.0,0.0,0.0,-3.4215,-3.7012,-4.0504,-4.3668,-4.586,-4.6963,-4.9224,-5.0677,-5.12,-5.2605,-5.3572,-5.4155,-5.532,-5.633,-5.7146,-5.7457,-5.7748,-5.802,-5.802,-5.8525,-5.9088,-5.6466,-5.5417,-5.4815,-4.9429,-4.5959,-4.3762,0.0,0.0,0.0,0.0,0.0,-3.7697,-3.8829,-3.8818,-3.8435,-3.873,-4.0791,-4.3227,0.0,0.0,-5.0022,-5.3108,-5.4682,-5.6135,-5.8665,-5.8828,-5.839,-5.8291,-5.7282,-5.6274,-5.5798,-5.5571,-5.5742,-5.6678,-5.6787,-5.6902,-5.7258,-5.5753,-5.4104,-5.2665,-5.1661,0.0,0.0,0.0,0.0,-5.3343,-5.3651,-5.4158,-5.5023,-5.4905,-5.4806,-5.4806,-5.4519,-5.4409,-5.4409,-5.4409,-5.4409,-5.4409,-5.4409,-5.4259,-5.3977,-5.3695,-5.3564,-5.3526,-5.2982,-5.2333,-5.1581,-5.1096,-5.0316,-4.9351,-4.8915,-4.8574,-4.8329,-4.7818,-4.7085,-4.6313,0.0,0.0,0.0,0.0,0.0,0.0,0.0,0.0,0.0,0.0,0.0,0.0,0.0,0.0,0.0,0.0,0.0,0.0,0.0,0.0,-3.3923,-3.6523,-3.9883,-4.1968,-4.2549,-4.5332,-4.6918,-4.7189,-4.8545,-4.9498,-5.0081,-5.1233,-5.2251,-5.3125,-5.4058,-5.464,-5.4912,-5.4912,-5.5048,-5.5048,-5.2146,-5.0603,-4.9526,-4.4742,-4.1899,0.0,0.0,0.0,0.0,0.0,0.0,0.0,-3.7654,-3.7957,-3.8249,-3.9419,-4.2316,-4.5514,0.0,-5.0197,-5.3452,-5.6244,-5.7811,-5.9087,-6.0731,-6.0325,-5.9216,-5.7934,-5.6252,-5.4671,-5.3603,-5.3243,-5.3417,-5.4341,-5.4632,-5.5094,-5.6097,-5.49,-5.3609,-5.2771,-5.2111,-5.1329,0.0,0.0,0.0,-5.3164,-5.3798,-5.4412,-5.5154,-5.542,-5.5322,-5.4825,-5.4944,-5.4806,-5.4409,-5.4409,-5.4409,-5.4409,-5.4458,-5.4472,-5.4453,-5.4237,-5.4118,-5.4081,-5.327,-5.2484,-5.1725,-5.1272,-5.0654,-4.9929,-4.961,-4.9449,-4.935,-4.8908,-4.8369,-4.7731,0.0,0.0,0.0,0.0,0.0,0.0,0.0,0.0,0.0,0.0,0.0,0.0,0.0,0.0,0.0,0.0,0.0,0.0,0.0,0.0,0.0,-3.2929,-3.4785,-3.6543,-3.8203,-3.9871,-4.1158,-4.2031,-4.2798,-4.3221,-4.3337,-4.4919,-4.6143,-4.7084,-4.9571,-5.1105,-5.1824,-5.1824,-5.1396,-5.0456,-4.7067,-4.4733,-4.2855,-3.8669,0.0,0.0,0.0,0.0,0.0,0.0,0.0,0.0,0.0,0.0,-4.0215,-4.1897,-4.4256,-4.7036,-5.0405,-5.3727,-5.667,-5.8372,-5.9957,-6.1079,-6.0983,-6.0306,-5.9109,-5.7016,-5.5441,-5.379,0.0,0.0,-5.1006,-5.1607,-5.1391,-5.1925,-5.4081,-5.2589,-5.1868,0.0,0.0,0.0,0.0,0.0,0.0,-5.2896,0.0,-5.4658,-5.5205,-5.6303,-5.6266,-5.4884,-5.5662,-5.5586,-5.4458,-5.4424,-5.4424,-5.439,-5.4552,-5.4597,-5.4591,-5.3932,-5.3594,-5.3556,-5.2769,-5.1935,-5.1166,-5.14,-5.0971,-5.0163,-5.0548,-5.0625,-5.0432,-4.9892,-4.9674,-4.9431,0.0,0.0,0.0,0.0,0.0,0.0,0.0,0.0,0.0,0.0,0.0,0.0,0.0,0.0,0.0,0.0,0.0,0.0,0.0,0.0,0.0,0.0,0.0,0.0,0.0,0.0,0.0,0.0,0.0,-3.9408,-4.0676,-4.1111,-4.1766,-4.2634,-4.3296,-4.3713,-4.3912,-4.3909,-4.416,-4.4314,0.0,-4.0485,-4.0278,0.0,0.0,0.0,0.0,0.0,0.0,0.0,0.0,0.0,0.0,0.0,-4.2857,-4.4538,-4.8172,-5.2225,-5.4943,-5.7695,-6.0054,-6.1157,-6.1253,-6.077,-5.9513,-5.8062,-5.613,-5.3063,-5.0658,-4.8595,0.0,0.0,0.0,-5.0011,-5.2746,0.0,-5.5494,-5.617,0.0,0.0,0.0,-5.4508,-5.4067,-5.4624,0.0,0.0,-5.5247,-5.5015,-5.577,-5.6498,-5.6448,-5.5427,-5.6059,-5.5938,-5.4998,-5.4806,-5.4661,-5.4552,-5.4597,-5.468,-5.4803,-5.4078,-5.3762,-5.3704,-5.3003,-5.2303,-5.1628,-5.1694,-5.1257,-5.0548,-5.0548,-5.0587,-5.0546,-4.9826,-4.9193,-4.8695,0.0,0.0,0.0,0.0,0.0,0.0,0.0,0.0,0.0,0.0,0.0,0.0,0.0,0.0,0.0,0.0,0.0,0.0,0.0,0.0,0.0,0.0,0.0,0.0,0.0,0.0,0.0,0.0,0.0,0.0,0.0,-3.6155,-3.6801,-3.7649,-3.8429,-3.8961,-3.9326,-3.9337,0.0,0.0,0.0,0.0,0.0,0.0,0.0,0.0,0.0,0.0,0.0,0.0,0.0,-4.0385,-4.1991,-4.4258,-4.6785,-4.9237,0.0,-5.5845,-5.8327,-6.0342,-6.1814,-6.2278,-6.1485,-6.0035,-5.7964,-5.6145,-5.3823,-5.0046,-4.7901,0.0,0.0,0.0,0.0,0.0,0.0,0.0,-5.4746,-5.6065,-5.6667,0.0,-5.6631,0.0,-5.6515,-5.6882,-5.7346,0.0,-5.665,-5.6209,-5.6927,-5.7756,-5.7711,-5.6606,-5.6999,-5.6606,-5.5262,-5.5026,-5.4905,-5.4817,-5.4876,-5.4981,-5.5045,-5.4044,-5.3564,-5.3529,-5.237,-5.1664,-5.1318,-5.1393,-5.114,-5.0696,-5.0786,-5.0822,-5.0778,-5.038,-4.9741,-4.911,0.0,0.0,0.0,0.0,0.0,0.0,0.0,0.0,0.0,0.0,0.0,0.0,0.0,0.0,0.0,0.0,0.0,0.0,0.0,0.0,0.0,0.0,0.0,0.0,0.0,0.0,0.0,0.0,0.0,0.0,0.0,0.0,0.0,0.0,0.0,0.0,0.0,0.0,0.0,0.0,0.0,0.0,0.0,0.0,0.0,0.0,0.0,0.0,0.0,0.0,-4.177,-4.3391,-4.5843,-4.8427,-5.1222,-5.4531,-5.6678,-5.8552,-6.1031,-6.2177,-6.2624,-6.2471,-6.0982,-5.8871,-5.6198,-5.4146,-5.1663,-4.7527,0.0,-4.4979,-4.3272,0.0,-4.6087,-4.7113,0.0,-5.1053,-5.3491,-5.4675,-5.5816,-5.7153,-5.8178,-5.8758,-5.8758,-5.8758,-5.8816,-5.8913,-5.8139,-5.7815,-5.8231,-5.9302,-5.9338,-5.8125,-5.8081,-5.7258,-5.5538,-5.5301,-5.5193,-5.5167,-5.5268,-5.5361,-5.5327,-5.4072,-5.3433,-5.324,-5.1617,-5.0863,-5.0784,-5.0952,-5.0917,-5.08,-5.1056,-5.1121,-5.1015,-5.1017,-5.053,-4.9998,0.0,0.0,0.0,0.0,0.0,0.0,0.0,0.0,0.0,0.0,-2.259,-2.3503,0.0,0.0,0.0,0.0,0.0,0.0,0.0,0.0,0.0,0.0,0.0,0.0,0.0,0.0,0.0,0.0,0.0,0.0,0.0,0.0,0.0,0.0,0.0,0.0,0.0,0.0,0.0,0.0,0.0,0.0,0.0,0.0,0.0,0.0,0.0,0.0,0.0,0.0,-4.2816,-4.6765,-4.8649,-5.1474,-5.4647,-5.7338,-5.9323,-6.119,-6.3721,-6.3994,-6.3393,-6.2676,-6.014,-5.6982,-5.3688,-5.1106,0.0,0.0,0.0,-4.2535,-4.1432,-4.3257,0.0,-4.7821,0.0,0.0,0.0,0.0,-5.779,0.0,0.0,0.0,0.0,0.0,0.0,0.0,0.0,-5.9166,-5.8567,-5.9398,-5.9784,-5.9534,-5.8237,-5.7273,-5.6713,-5.5979,-5.557,-5.5522,-5.5522,-5.5607,-5.5691,-5.4895,-5.4149,-5.3414,-5.251,-5.1735,-5.1114,-5.1146,-5.1146,-5.1102,-5.1062,-5.1095,-5.1069,-5.0267,-4.9925,-4.992,0.0,0.0,0.0,0.0,0.0,0.0,0.0,-2.1439,-2.2027,-2.2935,-2.3426,-2.3834,-2.4255,-2.5077,-2.5601,0.0,0.0,0.0,0.0,0.0,0.0,0.0,0.0,0.0,0.0,0.0,0.0,0.0,0.0,0.0,0.0,0.0,0.0,0.0,0.0,0.0,0.0,0.0,0.0,0.0,0.0,0.0,0.0,0.0,0.0,0.0,0.0,0.0,0.0,0.0,-4.2755,-4.7796,-5.0398,-5.3572,-5.6932,-5.9934,-6.1721,-6.3157,-6.5225,-6.4821,-6.3638,-6.2732,-5.9611,-5.5753,-5.189,0.0,0.0,0.0,0.0,-4.1383,-4.0953,0.0,0.0,0.0,0.0,0.0,0.0,0.0,0.0,0.0,0.0,0.0,0.0,0.0,0.0,0.0,0.0,-6.0344,-5.9919,-6.0324,-6.0379,-5.9913,-5.8761,-5.7835,-5.7282,-5.6341,-5.5843,-5.5808,-5.5808,-5.5844,-5.5879,-5.5215,-5.4677,-5.4211,-5.2945,-5.2173,-5.1785,-5.1377,-5.1202,-5.119,-5.1134,-5.1146,-5.1132,-5.0655,-5.0234,-4.9959,0.0,0.0,0.0,0.0,0.0,0.0,0.0,-2.1755,-2.2474,-2.3828,-2.4352,-2.4585,-2.4585,-2.5193,-2.5601,0.0,0.0,0.0,0.0,0.0,0.0,0.0,0.0,0.0,0.0,0.0,0.0,0.0,0.0,0.0,0.0,0.0,0.0,0.0,0.0,0.0,0.0,0.0,0.0,0.0,0.0,0.0,0.0,0.0,0.0,0.0,0.0,0.0,0.0,0.0,-4.1305,-4.6084,-4.9448,-5.339,-5.7412,-6.0656,-6.223,-6.3381,-6.5549,-6.4928,-6.3418,-6.2493,-5.8944,-5.458,-5.0494,-4.7427,0.0,0.0,-4.0907,-4.0898,-4.0907,0.0,0.0,0.0,0.0,0.0,0.0,0.0,0.0,0.0,0.0,0.0,0.0,0.0,0.0,0.0,0.0,0.0,-6.1117,-6.1173,-6.084,-5.9985,-5.9196,-5.8392,-5.7533,-5.6563,-5.6052,-5.6052,-5.6052,-5.6052,-5.6048,-5.5514,-5.5184,-5.4912,-5.3553,-5.2756,-5.2348,-5.1727,-5.1358,-5.1202,-5.1202,-5.1202,-5.1202,-5.1202,-5.0775,-5.027,0.0,0.0,0.0,0.0,0.0,0.0,0.0,-2.1911,-2.294,-2.3095,-2.4494,-2.5485,-2.5485,-2.5543,-2.5601,0.0,0.0,0.0,0.0,0.0,0.0,0.0,0.0,0.0,0.0,0.0,0.0,0.0,0.0,0.0,0.0,0.0,0.0,0.0,0.0,0.0,0.0,0.0,0.0,0.0,0.0,0.0,0.0,0.0,0.0,0.0,0.0,0.0,0.0,0.0,0.0,-3.9903,-4.3253,-4.8847,-5.4657,-5.7301,0.0,0.0,-6.4236,-6.4085,-6.259,-6.1716,-5.7677,-5.3009,-4.9512,0.0,0.0,0.0,-4.0907,-4.0898,-4.0907,-4.1675,0.0,0.0,0.0,0.0,0.0,0.0,0.0,0.0,0.0,0.0,0.0,0.0,0.0,0.0,0.0,0.0,-6.1192,-6.1245,-6.0926,-6.0104,-5.9265,-5.8406,-5.7593,-5.6706,-5.6278,-5.6278,-5.6278,-5.6278,-5.6278,-5.6214,-5.5747,-5.499,-5.4835,-5.3863,-5.2387,-5.2329,-5.1863,-5.1202,-5.1202,-5.1202,-5.1202,-5.1202,-5.1144,-5.1086,0.0,0.0,0.0,0.0,0.0,0.0,-2.1148,-2.2221,-2.3193,-2.3717,-2.4844,-2.5601,-2.5601,-2.5601,-2.5601,-2.5601,0.0,0.0,0.0,0.0,0.0,0.0,0.0,0.0,0.0,0.0,0.0,-2.5699,-2.5699,0.0,0.0,0.0,0.0,0.0,0.0,0.0,0.0,0.0,0.0,0.0,0.0,0.0,0.0,0.0,0.0,0.0,0.0,0.0,0.0,0.0,0.0,0.0,-3.8676,-4.2218,0.0,0.0,-5.662,-5.8921,-6.2682,-6.3206,-6.2235,-6.0312,-5.635,-5.2018,-4.8599,0.0,0.0,-4.0422,-3.9761,-3.9567,-4.0073,-4.0451,-4.1354,0.0,0.0,0.0,0.0,0.0,0.0,0.0,0.0,0.0,0.0,0.0,0.0,0.0,0.0,0.0,-6.1255,-6.1291,-6.1151,-6.0837,-6.0032,-5.9172,-5.8331,-5.7496,-5.6816,-5.6291,-5.6291,-5.6291,-5.6272,-5.5767,-5.5612,-5.5728,-5.466,-5.3824,-5.3145,-5.262,-5.1921,-5.1202,-5.1202,-5.1202,-5.1202,-5.1202,-5.1202,-5.1202,0.0,0.0,0.0,0.0,0.0,-2.0682,-2.1265,-2.2066,-2.2843,-2.344,-2.4508,-2.5213,-2.5213,-2.5213,-2.5213,-2.5213,-2.5446,0.0,0.0,0.0,0.0,0.0,0.0,0.0,0.0,0.0,0.0,-2.5699,-2.5699,-2.5699,0.0,0.0,0.0,0.0,0.0,0.0,0.0,0.0,0.0,0.0,0.0,0.0,0.0,0.0,0.0,0.0,0.0,0.0,0.0,0.0,0.0,0.0,0.0,0.0,0.0,0.0,-5.3094,-5.6135,-5.9821,-6.1167,-6.105,-5.8952,-5.5223,-5.1144,0.0,0.0,0.0,-3.9528,-3.8829,-3.8682,-3.9548,-3.9703,-4.0247,-4.1917,0.0,-4.4311,0.0,0.0,0.0,0.0,0.0,0.0,0.0,0.0,0.0,0.0,0.0,0.0,-6.1337,-6.1085,-6.0832,-6.0561,-5.9774,-5.8933,-5.8078,-5.7496,-5.6913,-5.6291,-5.6291,-5.6291,-5.6272,-5.565,-5.5728,-5.6214,-5.4718,-5.3941,-5.363,-5.2756,-5.1921,-5.1202,-5.1202,-5.1202,-5.1202,-5.1202,-5.1202,-5.1202,0.0,0.0,0.0,0.0,0.0,0.0,-2.0507,-2.1206,-2.1716,-2.1736,-2.3245,-2.4313,-2.4313,-2.4313,-2.4313,-2.4313,-2.5096,0.0,0.0,0.0,0.0,0.0,0.0,0.0,0.0,0.0,-2.5699,-2.5699,-2.5699,-2.5699,-2.5699,-2.5707,-2.6158,-2.6958,0.0,0.0,0.0,0.0,0.0,0.0,0.0,0.0,0.0,0.0,0.0,0.0,0.0,0.0,0.0,0.0,0.0,0.0,0.0,0.0,0.0,0.0,-4.731,-5.0918,-5.5197,-5.7573,-5.8642,-5.7806,-5.4388,-5.0309,0.0,0.0,0.0,-3.8762,-3.841,-3.8663,-3.9537,-3.9703,-4.0247,-4.1917,-4.2888,-4.4311,-4.6931,0.0,0.0,0.0,0.0,0.0,0.0,0.0,0.0,0.0,0.0,0.0,-6.1386,-6.0584,-5.9729,-5.8855,-5.804,-5.7204,-5.633,-5.6311,-5.6311,-5.6291,-5.6291,-5.6291,-5.6291,-5.6291,-5.6291,-5.6253,-5.5378,-5.4504,-5.363,-5.2756,-5.1921,-5.1202,-5.1202,-5.1202,-5.1202,-5.1202,-5.1202,-5.1202,0.0,0.0,0.0,0.0,0.0,0.0,0.0,-2.1187,-2.1697,-2.1697,-2.2707,-2.3406,-2.3406,-2.3406,-2.3173,-2.2585,-2.3328,0.0,0.0,0.0,0.0,0.0,0.0,0.0,0.0,0.0,-2.5699,-2.5699,-2.5699,-2.5703,-2.5707,-2.5691,-2.5857,-2.61,-2.5813,0.0,0.0,0.0,0.0,0.0,0.0,0.0,0.0,0.0,0.0,0.0,0.0,0.0,0.0,0.0,0.0,0.0,0.0,0.0,0.0,0.0,0.0,0.0,-5.0091,-5.1897,-5.2508,-5.1653,-4.9124,-4.6227,-4.3936,0.0,0.0,-3.7616,-3.7042,-3.7061,-3.8546,-3.8818,-3.9567,-4.184,-4.2867,-4.3904,0.0,0.0,0.0,0.0,0.0,0.0,0.0,0.0,0.0,0.0,0.0,-6.1386,-6.14,-6.0565,-6.0254,-6.0565,-5.9166,-5.8292,-5.802,-5.7457,-5.6894,-5.6291,-5.6291,-5.6291,-5.6272,-5.5689,-5.5747,-5.6214,-5.4757,-5.3941,-5.363,-5.2756,-5.1921,-5.1202,-5.1202,-5.1202,-5.1202,-5.1202,-5.1202,-5.1202,0.0,0.0,0.0,0.0,0.0,0.0,0.0,-2.0934,-2.1245,-2.1245,-2.1988,-2.2513,-2.2513,-2.2537,-2.2328,-2.1779,-2.192,0.0,0.0,0.0,0.0,0.0,0.0,0.0,0.0,-2.5675,-2.5699,-2.5703,-2.5703,-2.571,-2.5701,-2.5701,-2.571,-2.5698,-2.5701,0.0,0.0,0.0,0.0,0.0,0.0,0.0,-3.0799,0.0,0.0,0.0,0.0,0.0,0.0,0.0,0.0,0.0,0.0,0.0,0.0,0.0,-3.7683,0.0,0.0,-4.7349,-4.8262,-4.7377,-4.5491,0.0,0.0,0.0,0.0,0.0,0.0,-3.6323,-3.808,-3.841,-3.9237,-4.1781,-4.2886,-4.3699,0.0,0.0,0.0,0.0,0.0,0.0,0.0,0.0,0.0,0.0,0.0,-6.1264,-6.0934,-6.0079,-5.9865,-6.0409,-5.9069,-5.8195,-5.7865,-5.736,-5.6835,-5.6291,-5.6291,-5.6291,-5.6272,-5.5747,-5.5786,-5.6214,-5.4796,-5.3999,0.0,-5.2756,-5.1921,-5.1202,-5.1202,-5.1202,-5.1202,-5.1202,-5.1202,-5.1202,0.0,0.0,0.0,0.0,0.0,0.0,0.0,-2.0507,-2.0527,-2.0585,-2.1192,-2.1658,-2.1775,-2.175,-2.1735,-2.1794,0.0,0.0,0.0,0.0,0.0,0.0,0.0,0.0,0.0,-2.5675,-2.5703,-2.5694,-2.5753,-2.5795,-2.5788,-2.5852,-2.5857,-2.5798,-2.5783,0.0,0.0,0.0,0.0,0.0,0.0,0.0,0.0,0.0,0.0,0.0,0.0,0.0,0.0,0.0,0.0,0.0,0.0,0.0,0.0,0.0,0.0,0.0,0.0,0.0,0.0,0.0,0.0,0.0,0.0,0.0,0.0,0.0,0.0,0.0,0.0,-3.8402,-3.9256,-4.1859,-4.2915,-4.3715,0.0,0.0,0.0,0.0,0.0,0.0,0.0,0.0,0.0,0.0,-6.0808,-6.0934,-6.004,-5.9244,-5.8778,-5.8719,-5.7981,-5.7204,-5.6388,-5.633,-5.6291,-5.6291,-5.6291,-5.6291,-5.6291,-5.6291,-5.6291,-5.6253,-5.5378,-5.4504,-5.363,-5.2756,-5.1921,-5.1202,-5.1202,-5.1202,-5.1202,-5.1202,-5.1202,-5.1202,0.0,0.0,0.0,0.0,0.0,0.0,0.0,0.0,0.0,0.0,-2.1041,-2.1264,-2.2547,-2.1565,-2.1068,0.0,0.0,0.0,0.0,0.0,0.0,0.0,0.0,0.0,0.0,-2.5675,-2.5703,-2.5694,-2.6376,-2.6698,-2.671,-2.7376,-2.7323,-2.6683,-2.6681,-2.631,0.0,0.0,0.0,0.0,0.0,0.0,0.0,0.0,0.0,0.0,-3.0804,-3.0794,0.0,0.0,0.0,0.0,0.0,0.0,0.0,0.0,-3.3602,-3.4166,-3.6715,0.0,-3.933,-3.9785,0.0,0.0,0.0,0.0,0.0,0.0,0.0,0.0,0.0,0.0,-3.9441,-4.2606,-4.3291,-4.3928,0.0,0.0,0.0,0.0,0.0,0.0,0.0,0.0,0.0,0.0,-5.9871,-6.0032,-5.9147,-5.8914,-5.8525,-5.7904,-5.769,-5.7496,-5.7301,-5.6622,-5.6291,-5.6291,-5.6291,-5.6291,-5.6291,-5.6291,-5.6291,-5.6253,-5.5378,-5.4504,-5.363,-5.2756,-5.1921,-5.1202,-5.1202,-5.1202,-5.1202,-5.1202,-5.1202,-5.1202,0.0,0.0,0.0,0.0,0.0,0.0,0.0,0.0,0.0,0.0,0.0,0.0,0.0,0.0,0.0,0.0,0.0,0.0,0.0,0.0,0.0,0.0,0.0,0.0,-2.5632,-2.5679,-2.5691,-2.5701,-2.6562,-2.7,-2.701,-2.7889,-2.8047,-2.76,-2.7606,-2.7338,0.0,0.0,0.0,0.0,-2.9757,0.0,0.0,0.0,0.0,0.0,-3.0764,-3.0739,0.0,-3.0739,-3.0734,-3.0703,0.0,0.0,0.0,0.0,-3.3556,-3.4146,-3.5495,-3.6168,-3.6627,-3.709,-3.6853,-3.649,0.0,0.0,0.0,0.0,0.0,0.0,0.0,0.0,0.0,0.0,-4.3726,0.0,0.0,0.0,0.0,0.0,0.0,0.0,0.0,0.0,0.0,0.0,-5.8978,-5.9144,-5.8292,-5.8253,-5.7865,-5.7029,-5.6991,-5.6991,-5.6991,-5.6544,-5.6291,-5.6291,-5.6291,-5.6291,-5.6291,-5.6291,-5.6291,-5.6272,-5.5806,-5.5106,-5.4232,-5.3358,-5.2504,-5.1707,-5.1338,-5.1202,-5.1202,-5.1202,-5.1202,-5.1202,0.0,0.0,0.0,0.0,0.0,0.0,0.0,0.0,0.0,0.0,0.0,0.0,0.0,0.0,0.0,0.0,0.0,0.0,0.0,0.0,0.0,0.0,0.0,-2.5566,-2.5703,-2.5691,-2.5779,-2.5905,-2.6769,-2.7262,-2.7427,-2.8283,-2.8637,-2.8486,-2.8219,-2.8105,0.0,0.0,0.0,0.0,-3.0408,0.0,0.0,0.0,0.0,0.0,0.0,0.0,0.0,-3.0703,-3.0697,-3.0691,-3.0698,0.0,0.0,0.0,0.0,0.0,-3.5523,-3.599,-3.6114,-3.5857,-3.59,-3.6012,0.0,0.0,0.0,0.0,0.0,0.0,0.0,0.0,0.0,0.0,0.0,0.0,0.0,0.0,0.0,0.0,0.0,0.0,0.0,0.0,0.0,-5.7368,-5.8101,-5.8251,-5.7437,-5.7399,-5.7049,-5.6311,-5.6291,-5.6291,-5.6291,-5.6291,-5.6291,-5.6291,-5.6291,-5.6291,-5.6291,-5.6291,-5.6291,-5.6291,-5.6291,-5.5728,-5.4737,-5.3999,-5.3106,-5.2154,-5.1474,-5.1202,-5.1202,-5.1202,-5.1202,-5.1202,0.0,0.0,0.0,0.0,0.0,0.0,0.0,0.0,0.0,0.0,0.0,0.0,0.0,0.0,0.0,0.0,0.0,0.0,0.0,0.0,0.0,0.0,-2.4053,-2.4937,-2.5684,-2.5707,-2.6061,-2.6808,-2.7669,-2.8474,-2.9223,-3.0099,-3.0111,-2.9335,-2.785,-2.7204,-2.7251,-2.8067,-2.8416,-2.8544,-3.0141,0.0,0.0,0.0,0.0,0.0,0.0,0.0,0.0,-3.0697,-3.0704,-3.0704,-3.0691,0.0,0.0,0.0,0.0,0.0,-3.5371,-3.683,-3.7588,-3.6145,-3.6359,-3.6906,0.0,0.0,0.0,0.0,0.0,0.0,0.0,0.0,0.0,0.0,0.0,0.0,0.0,0.0,0.0,0.0,0.0,0.0,0.0,0.0,-5.7976,-5.6424,-5.7164,-5.7324,-5.6465,-5.6473,-5.6447,-5.6291,-5.6291,-5.6291,-5.6291,-5.6291,-5.6291,-5.6291,-5.6291,-5.6291,-5.6291,-5.6291,-5.6291,-5.6291,-5.6291,-5.5378,-5.3883,-5.3747,-5.2795,-5.1377,-5.126,-5.1202,-5.1202,-5.1202,-5.1202,-5.1202,0.0,0.0,0.0,0.0,0.0,0.0,0.0,0.0,0.0,0.0,0.0,0.0,0.0,0.0,0.0,0.0,0.0,0.0,0.0,0.0,0.0,-2.3109,-2.4393,-2.5286,-2.569,-2.5693,-2.6125,-2.7005,-2.7876,-2.876,-2.962,-3.0447,-3.0625,-3.0188,-2.8928,-2.8349,-2.8379,-2.8747,-2.8894,-2.9007,0.0,0.0,0.0,0.0,0.0,0.0,0.0,0.0,0.0,0.0,-3.0704,-3.0697,-3.0697,0.0,0.0,0.0,0.0,0.0,-3.5469,-3.6365,-3.6871,-3.652,-3.7773,0.0,0.0,0.0,0.0,0.0,0.0,0.0,0.0,0.0,0.0,0.0,0.0,0.0,0.0,0.0,0.0,0.0,0.0,0.0,0.0,0.0,-5.6914,-5.6207,-5.6548,-5.6631,-5.6265,-5.6278,-5.6291,-5.6291,-5.6291,-5.6291,-5.6291,-5.6291,-5.6291,-5.6291,-5.6291,-5.6291,-5.6272,-5.5806,-5.5592,-5.5573,-5.5106,-5.4427,-5.365,-5.3183,-5.2542,-5.1804,-5.1377,-5.1202,-5.1202,-5.1202,-5.1202,-5.1202,0.0,0.0,0.0,0.0,0.0,0.0,0.0,0.0,0.0,0.0,0.0,0.0,0.0,0.0,0.0,0.0,0.0,0.0,0.0,0.0,-2.3104,-2.3103,-2.4761,-2.5693,-2.5696,-2.5698,-2.6227,-2.7301,-2.7962,-2.8846,-2.9882,-3.0506,-3.0792,-3.0743,-2.9679,-2.9191,-2.921,-2.9206,-2.9201,-2.9299,0.0,0.0,0.0,0.0,0.0,0.0,0.0,0.0,0.0,0.0,0.0,0.0,0.0,0.0,0.0,-3.2982,-3.374,-3.4431,-3.5499,-3.6084,-3.6503,-3.7143,0.0,0.0,0.0,0.0,0.0,0.0,0.0,0.0,0.0,0.0,0.0,0.0,0.0,0.0,0.0,0.0,0.0,0.0,0.0,0.0,0.0,-5.6534,-5.6065,-5.6149,-5.6184,-5.6228,-5.6265,-5.6284,-5.6278,-5.6291,-5.6291,-5.6181,-5.6,-5.6,-5.6097,-5.6291,-5.6097,-5.6,-5.5961,-5.5087,-5.4699,-5.466,-5.398,-5.3572,-5.3339,-5.2678,-5.229,-5.2057,-5.1435,-5.1086,-5.0911,-5.1125,-5.1066,-5.0891,0.0,0.0,0.0,0.0,0.0,0.0,0.0,0.0,0.0,0.0,0.0,0.0,0.0,0.0,0.0,0.0,0.0,0.0,0.0,0.0,-2.3105,-2.3105,-2.4765,-2.5701,-2.5707,-2.5707,-2.6527,-2.8205,-2.8277,-2.9121,-3.0717,-3.0767,-3.0807,-3.073,-2.9043,-2.8279,-2.829,-2.8301,-2.8296,-2.8428,-3.0067,0.0,0.0,0.0,0.0,0.0,0.0,0.0,0.0,0.0,0.0,0.0,0.0,0.0,-3.1118,-3.2815,-3.3305,-3.3658,-3.5344,-3.6891,-3.805,-3.8179,0.0,0.0,0.0,0.0,0.0,0.0,0.0,0.0,0.0,0.0,0.0,0.0,0.0,0.0,0.0,0.0,0.0,0.0,0.0,0.0,-5.7288,-5.6568,-5.6082,-5.6029,-5.6133,-5.6199,-5.6214,-5.6214,-5.6243,-5.6291,-5.6246,-5.5844,-5.5106,-5.5087,-5.5495,-5.6291,-5.5476,-5.5087,-5.5068,-5.4194,-5.3786,-5.3786,-5.3727,-5.3242,-5.2484,-5.2426,-5.196,-5.128,-5.1222,-5.0717,-5.0095,-5.0891,-5.0697,-4.9978,0.0,0.0,0.0,0.0,0.0,0.0,0.0,0.0,0.0,0.0,0.0,0.0,0.0,0.0,0.0,0.0,0.0,0.0,0.0,0.0,-2.3103,-2.3105,-2.4764,-2.5702,-2.5702,-2.5702,-2.6288,-2.7499,-2.8533,-2.9656,-3.0804,-3.0801,-3.0806,-3.074,-2.9533,-2.9007,-2.9017,-2.9007,-2.9016,-2.9113,-3.0244,-3.0387,0.0,0.0,0.0,0.0,0.0,0.0,0.0,0.0,-2.9887,-2.9984,-3.0474,-3.0668,-3.1037,-3.2737,-3.3225,-3.3565,-3.5281,-3.6571,-3.7586,-3.8119,0.0,0.0,0.0,0.0,0.0,0.0,0.0,0.0,0.0,0.0,0.0,0.0,0.0,0.0,0.0,0.0,0.0,0.0,0.0,-5.6495,-5.6495,-5.6222,-5.6046,-5.6046,-5.6098,-5.5916,-5.5423,-5.5394,-5.5156,-5.4712,-5.4654,-5.4492,-5.4194,-5.4194,-5.4349,-5.4679,-5.4349,-5.4194,-5.4155,-5.3281,-5.2892,-5.2853,-5.2368,-5.196,-5.1649,-5.1649,-5.1474,-5.1202,-5.1202,-5.0348,-4.9202,-5.0076,-4.9843,-4.9085,0.0,0.0,0.0,0.0,0.0,0.0,0.0,0.0,0.0,0.0,0.0,0.0,0.0,0.0,0.0,0.0,0.0,0.0,0.0,-2.1899,-2.28,-2.3081,-2.4518,-2.5414,-2.5694,-2.5673,-2.6106,-2.7009,-2.8689,-2.9663,-2.9994,-3.0511,-3.0624,-3.036,-2.9771,-2.9493,-2.9493,-2.9477,-2.9466,-2.9543,-3.0361,-3.0179,0.0,0.0,0.0,0.0,0.0,0.0,0.0,0.0,-2.94,-2.9535,-3.0354,-3.0626,-3.0995,-3.2695,-3.3383,-3.3945,-3.5641,-3.6725,0.0,0.0,0.0,0.0,0.0,0.0,0.0,0.0,0.0,0.0,0.0,0.0,0.0,0.0,0.0,0.0,0.0,0.0,0.0,0.0,-5.6012,-5.6012,-5.6012,-5.578,-5.5642,-5.5694,-5.5443,-5.5052,-5.4517,-5.4474,-5.4217,-5.3715,-5.367,-5.356,-5.3281,-5.3281,-5.3164,-5.2912,-5.2912,-5.3028,-5.3261,-5.2407,-5.2018,-5.1979,-5.1144,-5.095,-5.1183,-5.0891,-5.0794,-5.0755,-5.0484,-4.9648,-4.8677,-4.926,-4.9104,-4.8561,0.0,0.0,0.0,0.0,0.0,0.0,0.0,0.0,0.0,0.0,0.0,0.0,0.0,0.0,0.0,0.0,0.0,0.0,-2.0495,-2.1329,-2.2186,-2.3068,-2.3923,-2.4806,-2.5671,-2.5636,-2.6061,-2.6995,-2.8665,-2.9046,-2.8233,-2.9911,-3.0255,-2.9497,-2.9516,-2.9516,-2.951,-2.9434,-2.9408,-2.9486,-3.0348,-3.0166,-2.9278,0.0,0.0,0.0,0.0,0.0,0.0,0.0,-2.9373,-2.9536,-3.033,-3.0582,-3.095,-3.2687,-3.3761,-3.4778,-3.6513,-3.7594,0.0,0.0,0.0,0.0,0.0,0.0,0.0,0.0,0.0,0.0,0.0,0.0,0.0,0.0,0.0,0.0,0.0,0.0,0.0,0.0,-5.6012,-5.6012,-5.6012,-5.5277,-5.4793,-5.4793,-5.3981,-5.3514,-5.3581,-5.353,-5.3542,-5.3676,-5.3596,-5.3164,-5.2387,-5.2387,-5.1979,-5.1183,-5.1183,-5.161,-5.2368,-5.1552,-5.1183,-5.1144,-5.027,-5.0386,-5.1105,-5.0231,-4.9881,-4.9784,-4.893,-4.858,-4.858,-4.858,-4.858,-4.8444,0.0,0.0,0.0,0.0,0.0,0.0,0.0,0.0,0.0,0.0,0.0,0.0,0.0,0.0,0.0,0.0,0.0,0.0,-2.0492,-2.1327,-2.2185,-2.3062,-2.3926,-2.4795,-2.5613,-2.56,-2.6033,-2.6926,-2.8033,-2.8451,-2.8223,-2.9341,-2.9705,-2.946,-3.0069,-3.0348,-3.0334,-3.0268,-3.0261,-3.0326,-3.0535,-2.9763,-2.8461,0.0,0.0,0.0,0.0,0.0,0.0,0.0,0.0,0.0,-2.9425,-3.0111,-3.0933,-3.2619,-3.3296,-3.3877,-3.5609,0.0,0.0,0.0,0.0,0.0,0.0,0.0,0.0,0.0,0.0,0.0,0.0,0.0,0.0,0.0,0.0,0.0,0.0,0.0,0.0,-5.6012,-5.6012,-5.6012,-5.6012,-5.5277,-5.4793,-5.4793,-5.3981,-5.3243,-5.2659,-5.2059,-5.1775,-5.187,-5.1263,-5.0836,-5.0639,-5.0639,-5.0212,-4.9376,-4.9376,-5.0134,-5.1532,-5.0678,-5.0289,-5.0231,-4.9357,-4.9124,-4.9357,-4.9085,-4.8619,-4.8114,-4.8463,-4.7842,-4.6851,-4.7453,-4.7298,-4.6735,0.0,0.0,0.0,0.0,0.0,0.0,0.0,0.0,0.0,0.0,0.0,0.0,0.0,0.0,0.0,0.0,0.0,0.0,0.0,0.0,-2.1675,-2.2551,-2.34,-2.4404,-2.5561,-2.5901,-2.6187,-2.6382,-2.7262,-2.7515,-2.721,-2.8748,-2.926,-2.8942,-3.0132,-3.0661,-3.0665,-3.0618,-3.0626,-3.0665,-3.063,-2.9594,-2.8109,0.0,0.0,0.0,0.0,0.0,0.0,0.0,0.0,0.0,-2.9041,0.0,-3.1003,-3.3015,-3.3866,-3.4582,0.0,0.0,0.0,0.0,0.0,0.0,0.0,0.0,0.0,0.0,0.0,0.0,0.0,0.0,0.0,0.0,0.0,0.0,0.0,0.0,0.0,-5.5045,-5.5316,-5.5393,-5.5045,-5.4252,-5.3614,-5.3285,-5.2472,-5.1602,-5.0732,-5.024,-4.9998,-5.0065,-4.955,-4.9297,-4.9341,-4.9373,-4.9132,-4.8608,-4.8599,-4.9143,-5.0153,-4.9609,-4.9376,-4.9337,-4.8832,-4.8405,-4.8075,-4.8075,-4.7764,-4.7317,-4.7492,-4.7143,-4.654,-4.6715,-4.6676,-4.6463,0.0,0.0,0.0,0.0,0.0,0.0,0.0,0.0,0.0,0.0,0.0,0.0,0.0,0.0,0.0,0.0,0.0,0.0,0.0,0.0,-2.0873,-2.1749,-2.263,-2.3883,-2.5556,-2.6301,-2.6314,-2.5596,-2.6463,-2.6488,-2.5751,-2.8163,-2.8904,-2.8284,-2.9885,-3.0602,-3.0602,-3.0602,-3.0602,-3.0602,-3.0599,-2.9594,-2.8097,-2.8086,0.0,0.0,0.0,0.0,0.0,0.0,0.0,0.0,-2.8907,-2.9786,-3.0984,-3.3518,-3.4891,-3.611,0.0,0.0,0.0,0.0,0.0,0.0,0.0,0.0,0.0,0.0,0.0,0.0,0.0,0.0,0.0,0.0,0.0,-5.3401,-5.3478,-5.4175,-5.4387,-5.3594,-5.4194,-5.4368,-5.3575,-5.2627,-5.1757,-5.0964,-5.0074,-4.9243,-4.843,-4.8314,-4.8348,-4.8507,-4.841,-4.838,-4.8399,-4.8444,-4.8448,-4.8371,-4.8355,-4.8366,-4.8366,-4.8444,-4.8444,-4.8366,-4.8366,-4.792,-4.7181,-4.7181,-4.7181,-4.7104,-4.6307,-4.6482,-4.7084,-4.6288,-4.6502,-4.7065,0.0,0.0,0.0,0.0,0.0,0.0,0.0,0.0,0.0,0.0,0.0,0.0,0.0,0.0,0.0,0.0,0.0,0.0,0.0,0.0,-2.0818,-2.1687,-2.3209,-2.4497,-2.5506,-2.5699,-2.5693,-2.5518,-2.6398,-2.6727,-2.6565,-2.7806,-2.8625,-2.9093,-3.0139,-3.0595,-3.0597,-3.0597,-3.0606,-3.0604,-3.0606,-2.9552,-2.8014,-2.8025,-2.6936,0.0,0.0,0.0,0.0,0.0,0.0,0.0,-2.8,-2.8888,-3.0076,-3.2618,-3.4002,0.0,0.0,0.0,0.0,0.0,0.0,0.0,0.0,0.0,0.0,0.0,0.0,0.0,0.0,0.0,0.0,0.0,0.0,-5.2724,-5.3401,-5.3652,-5.371,-5.3517,-5.3672,-5.371,-5.3517,-5.2086,-5.1099,-5.0925,-4.9513,-4.8604,-4.8411,-4.7753,-4.771,-4.8488,-4.7837,-4.7495,-4.7551,-4.7567,-4.7229,-4.6549,-4.656,-4.656,-4.6579,-4.7279,-4.7201,-4.656,-4.656,-4.6443,-4.6268,-4.6268,-4.6268,-4.6249,-4.6074,-4.6113,-4.6249,-4.6074,-4.6113,-4.6249,0.0,0.0,0.0,0.0,0.0,0.0,0.0,0.0,0.0,0.0,0.0,0.0,0.0,0.0,0.0,0.0,0.0,0.0,0.0,0.0,0.0,-2.1665,-2.2571,-2.3631,-2.4891,-2.4884,-2.5071,-2.5498,-2.5955,0.0,0.0,0.0,0.0,-2.9339,-3.0181,-3.055,-3.0559,-3.055,-3.055,-3.055,-3.055,-2.9748,-2.8569,-2.856,-2.7508,-2.6023,-2.6023,0.0,0.0,0.0,0.0,0.0,0.0,0.0,-3.0298,-3.2463,-3.368,-3.482,0.0,0.0,0.0,0.0,0.0,0.0,0.0,0.0,0.0,0.0,0.0,0.0,0.0,0.0,0.0,0.0,0.0,-5.1738,-5.2182,-5.2608,-5.2724,-5.2298,-5.2627,-5.2705,-5.2298,-5.108,-5.0152,-4.9726,-4.8508,-4.7599,-4.7173,-4.6709,-4.6704,-4.7182,-4.6784,-4.6558,-4.6622,-4.6639,-4.643,-4.5994,-4.5997,-4.5997,-4.6016,-4.6463,-4.6424,-4.5997,-4.5997,-4.5997,-4.5997,-4.5997,-4.5997,-4.5997,-4.5997,-4.5997,-4.5997,-4.5997,-4.5997,-4.5997,0.0,0.0,0.0,0.0,0.0,0.0,0.0,0.0,0.0,0.0,0.0,0.0,0.0,0.0,0.0,0.0,0.0,0.0,0.0,0.0,0.0,-2.1654,-2.1828,-2.2656,-2.4238,-2.4379,-2.4779,-2.5495,0.0,0.0,0.0,0.0,0.0,-2.9534,0.0,-3.051,-3.05,-3.0509,-3.0499,-3.0499,-3.0499,-2.9978,-2.9206,-2.9206,-2.8251,-2.6901,-2.6901,-2.6448,-2.5928,-2.6593,0.0,0.0,0.0,0.0,-3.0614,-3.2364,-3.355,-3.4832,0.0,0.0,0.0,0.0,0.0,0.0,0.0,0.0,0.0,0.0,0.0,0.0,0.0,0.0,0.0,0.0,-5.0945,-5.048,-5.048,-5.1099,-5.1273,-5.0558,-5.1119,-5.1254,-5.0538,-4.9726,-4.8952,-4.8237,-4.7366,-4.6554,-4.5838,-4.58,-4.58,-4.58,-4.5814,-4.5841,-4.5906,-4.5905,-4.596,-4.6003,-4.6005,-4.5997,-4.5997,-4.5997,-4.5997,-4.5997,-4.5997,-4.5997,-4.5997,-4.5997,-4.5997,-4.5997,-4.5997,-4.5997,-4.5997,-4.5997,-4.5997,-4.5997,0.0,0.0,0.0,0.0,0.0,0.0,0.0,0.0,0.0,0.0,0.0,0.0,0.0,0.0,0.0,0.0,0.0,0.0,0.0,0.0,0.0,-2.1656,-2.2372,-2.3197,-2.4184,-2.4931,-2.5376,-2.5492,0.0,0.0,0.0,0.0,0.0,-3.0346,0.0,0.0,-3.0497,-3.0499,-3.0499,-3.0499,-3.0499,-2.9987,-2.9203,-2.9203,-2.8596,-2.7727,-2.7727,-2.7651,-2.7574,-2.7689,-2.7804,0.0,0.0,0.0,-2.9715,-3.1463,-3.3076,0.0,0.0,0.0,0.0,0.0,0.0,0.0,0.0,0.0,0.0,0.0,0.0,0.0,0.0,0.0,0.0,0.0,-4.8817,-4.874,-4.874,-4.8836,-4.8856,-4.8759,-4.8836,-4.8856,-4.8759,-4.7947,-4.7405,-4.727,-4.6457,-4.5916,-4.58,-4.58,-4.58,-4.58,-4.5867,-4.5893,-4.5905,-4.5964,-4.5986,-4.5997,-4.5997,-4.5997,-4.5997,-4.5997,-4.5997,-4.5997,-4.5997,-4.5997,-4.5997,-4.5997,-4.5997,-4.5997,-4.5997,-4.5997,-4.5997,-4.5997,-4.5997,-4.5997,0.0,0.0,0.0,0.0,0.0,0.0,0.0,0.0,0.0,0.0,0.0,0.0,0.0,0.0,0.0,0.0,0.0,0.0,0.0,0.0,0.0,-2.1615,-2.1982,-2.2786,-2.4122,-2.4524,-2.4949,0.0,0.0,0.0,0.0,-2.8452,-2.9332,0.0,0.0,0.0,0.0,0.0,-3.0444,-3.0444,-3.0444,-3.0463,-3.0433,-3.0033,-2.9586,-2.9135,-2.8714,-2.8275,-2.7967,-2.8409,-2.8563,-2.8717,-2.9594,0.0,0.0,0.0,-3.2201,0.0,0.0,0.0,0.0,0.0,0.0,0.0,0.0,0.0,0.0,0.0,0.0,0.0,0.0,0.0,0.0,-4.8392,-4.8392,-4.8392,-4.8392,-4.8392,-4.8392,-4.8392,-4.8392,-4.8392,-4.8392,-4.7618,-4.7096,-4.7096,-4.6283,-4.58,-4.58,-4.58,-4.58,-4.58,-4.5874,-4.5893,-4.5905,-4.5972,-4.6005,-4.5997,-4.5997,-4.5997,-4.5997,-4.5997,-4.5997,-4.5997,-4.5997,-4.5997,-4.5997,-4.5997,-4.5997,-4.5997,-4.5997,-4.5997,-4.5997,-4.5997,-4.5997,-4.5997,0.0,0.0,0.0,0.0,0.0,0.0,0.0,0.0,0.0,0.0,0.0,0.0,0.0,0.0,0.0,0.0,0.0,0.0,0.0,0.0,0.0,-2.1868,-2.2092,-2.2797,-2.407,-2.4328,0.0,0.0,0.0,0.0,-2.7912,-2.855,-2.9417,0.0,-3.0419,0.0,0.0,0.0,0.0,0.0,-3.0592,-3.1013,-3.1503,-3.1373,-3.1245,-3.1096,-3.0597,-2.9894,-2.9248,-2.9632,-2.9602,-2.9544,-3.0198,-3.0398,0.0,0.0,0.0,0.0,0.0,0.0,0.0,0.0,0.0,0.0,0.0,0.0,0.0,0.0,0.0,0.0,0.0,0.0,0.0,-4.7734,-4.7734,-4.7734,-4.7734,-4.7734,-4.7734,-4.7734,-4.7734,-4.7734,-4.7734,-4.7154,-4.6767,-4.6767,-4.6167,-4.58,-4.58,-4.58,-4.58,-4.58,-4.5874,-4.5899,-4.5905,-4.5972,-4.5994,-4.5997,-4.5997,-4.5997,-4.5997,-4.5997,-4.5997,-4.5997,-4.5997,-4.5997,-4.5997,-4.5997,-4.5997,-4.5997,-4.5997,-4.5997,-4.5997,-4.5997,-4.5997,-4.5997,0.0,0.0,0.0,0.0,0.0,0.0,0.0,0.0,0.0,0.0,0.0,0.0,0.0,-2.0392,-2.0379,-2.0308,0.0,0.0,0.0,0.0,0.0,-2.2703,-2.3466,0.0,-2.4109,-2.4908,0.0,0.0,0.0,0.0,-2.7892,-2.7873,-2.8749,-3.0314,-3.0371,-3.041,-3.041,0.0,0.0,0.0,0.0,0.0,0.0,0.0,-3.3801,-3.3815,0.0,-3.346,-3.2613,-3.1826,-3.1025,-3.034,-3.0379,-3.0398,-3.0398,0.0,0.0,0.0,0.0,0.0,0.0,0.0,0.0,0.0,0.0,0.0,0.0,0.0,0.0,0.0,0.0,0.0,0.0,-4.5935,-4.5935,-4.5935,-4.5935,-4.5935,-4.5935,-4.5935,-4.5935,-4.5935,-4.5935,-4.5877,-4.5858,-4.5858,-4.5819,-4.58,-4.58,-4.58,-4.58,-4.58,-4.5867,-4.5905,-4.5905,-4.5975,-4.5997,-4.5997,-4.5997,-4.5997,-4.5997,-4.5997,-4.5997,-4.5997,-4.5997,-4.5997,-4.5997,-4.5997,-4.5997,-4.5997,-4.5997,-4.5997,-4.5997,-4.5997,-4.5997,-4.5997,0.0,0.0,0.0,0.0,0.0,0.0,0.0,0.0,0.0,0.0,0.0,0.0,0.0,-2.1694,-2.1777,-2.1197,-2.1104,0.0,0.0,0.0,0.0,-2.3535,-2.3842,-2.4254,-2.4781,0.0,0.0,0.0,0.0,-2.6391,-2.7033,-2.8092,-2.889,-2.9478,-3.0084,-3.0341,-3.034,-3.034,0.0,0.0,0.0,0.0,0.0,0.0,0.0,0.0,0.0,0.0,0.0,-3.343,-3.2435,-3.1237,-3.1237,-3.0852,-3.0513,-3.1083,-3.2685,0.0,0.0,0.0,0.0,0.0,0.0,0.0,0.0,0.0,0.0,0.0,0.0,0.0,0.0,0.0,0.0,-4.58,-4.58,-4.58,-4.58,-4.58,-4.58,-4.58,-4.58,-4.58,-4.58,-4.58,-4.58,-4.58,-4.58,-4.58,-4.58,-4.5847,-4.586,-4.586,-4.5925,-4.5972,-4.5964,-4.5986,-4.5997,-4.5997,-4.5997,-4.5997,-4.5997,-4.5997,-4.5997,-4.5997,-4.5997,-4.5997,-4.5997,-4.5997,-4.5997,-4.5997,-4.5997,-4.5997,-4.5997,-4.5997,-4.5997,-4.5997,0.0,0.0,0.0,0.0,0.0,0.0,0.0,0.0,0.0,0.0,0.0,0.0,0.0,0.0,-2.2655,-2.2015,-2.1919,-2.2239,-2.3112,-2.3102,-2.3456,-2.4319,-2.4375,-2.4621,-2.5157,0.0,0.0,0.0,0.0,0.0,0.0,-2.7567,-2.839,-2.8962,-2.9555,-3.0004,0.0,0.0,0.0,-3.0466,0.0,0.0,-3.341,0.0,0.0,0.0,0.0,0.0,0.0,0.0,-3.4076,-3.2872,-3.2641,-3.1768,-3.0891,-3.1179,-3.248,0.0,0.0,0.0,0.0,0.0,0.0,0.0,0.0,0.0,0.0,0.0,0.0,0.0,0.0,0.0,0.0,-4.58,-4.58,-4.58,-4.58,-4.58,-4.58,-4.58,-4.58,-4.58,-4.58,-4.58,-4.58,-4.58,-4.58,-4.58,-4.58,-4.586,-4.5906,-4.5932,-4.598,-4.5994,-4.5997,-4.5997,-4.5997,-4.5997,-4.5997,-4.5997,-4.5997,-4.5997,-4.5997,-4.5997,-4.5997,-4.5997,-4.5997,-4.5997,-4.5997,-4.5997,-4.5997,-4.5997,-4.5997,-4.5997,-4.5997,-4.5997,0.0,0.0,0.0,0.0,0.0,0.0,0.0,0.0,0.0,-2.2794,0.0,0.0,0.0,0.0,0.0,-2.2786,-2.2689,-2.2999,-2.3869,-2.3861,-2.4216,-2.5065,0.0,0.0,0.0,0.0,0.0,0.0,0.0,0.0,0.0,0.0,-2.7167,0.0,-2.8855,-2.9404,-3.0251,0.0,-3.0308,-3.0519,0.0,-3.3222,-3.2971,0.0,0.0,0.0,-3.7716,-3.7715,0.0,-3.6824,0.0,0.0,0.0,0.0,-3.1564,-3.0717,0.0,0.0,0.0,0.0,0.0,0.0,0.0,0.0,0.0,0.0,0.0,0.0,0.0,0.0,0.0,0.0,-4.58,-4.58,-4.58,-4.58,-4.58,-4.58,-4.58,-4.58,-4.58,-4.58,-4.58,-4.58,-4.58,-4.58,-4.58,-4.58,-4.58,-4.586,-4.5932,-4.5991,-4.6003,-4.5994,-4.5997,-4.5997,-4.5997,-4.5997,-4.5997,-4.5997,-4.5997,-4.5997,-4.5997,-4.5997,-4.5997,-4.5997,-4.5997,-4.5997,-4.5997,-4.5997,-4.5997,-4.5997,-4.5997,-4.5997,-4.5997,-4.5997,0.0,0.0,0.0,0.0,0.0,0.0,0.0,0.0,-2.2636,0.0,0.0,0.0,-2.3706,-2.366,-2.384,-2.4391,-2.3831,-2.3835,-2.4712,-2.4743,-2.4846,-2.5088,-2.5095,-2.5101,0.0,0.0,0.0,0.0,0.0,0.0,0.0,0.0,0.0,0.0,-2.8289,-2.8968,-2.9257,-2.995,0.0,0.0,-3.3582,-3.4734,0.0,0.0,0.0,0.0,0.0,-3.8835,-3.8224,0.0,-3.6852,-3.5002,0.0,0.0,0.0,0.0,0.0,0.0,-3.3833,0.0,0.0,0.0,0.0,0.0,0.0,0.0,0.0,0.0,0.0,0.0,0.0,0.0,-4.58,-4.58,-4.58,-4.58,-4.58,-4.58,-4.58,-4.58,-4.58,-4.58,-4.58,-4.58,-4.58,0.0,-4.58,-4.5814,-4.586,-4.5944,-4.5991,-4.6005,-4.6005,-4.5997,-4.5997,-4.5997,-4.5997,-4.5997,-4.5997,-4.5997,-4.5997,-4.5997,-4.5997,-4.5997,-4.5997,-4.5997,-4.5997,-4.5997,-4.5997,-4.5997,-4.5997,-4.5997,-4.5997,-4.5997,-4.5997,-4.5997,0.0,0.0,0.0,0.0,0.0,0.0,-2.3361,-2.3403,-2.3529,0.0,0.0,0.0,-2.4504,-2.4443,-2.4591,-2.5057,-2.4605,-2.4518,-2.5032,-2.507,-2.5057,-2.5063,-2.5063,-2.5069,0.0,0.0,0.0,0.0,0.0,0.0,0.0,0.0,0.0,0.0,0.0,0.0,0.0,0.0,0.0,0.0,-3.3904,0.0,0.0,-3.8164,-3.91,0.0,0.0,0.0,-3.8995,-3.9197,-3.7927,0.0,0.0,0.0,0.0,0.0,0.0,0.0,0.0,0.0,0.0,0.0,0.0,0.0,-3.8863,-4.0447,0.0,0.0,0.0,0.0,0.0,0.0,-4.58,-4.58,-4.58,-4.58,-4.58,-4.58,-4.58,-4.58,-4.58,-4.58,-4.58,-4.58,-4.58,-4.58,-4.5833,-4.5874,-4.5944,-4.598,-4.6014,-4.5997,-4.5997,-4.5997,-4.5997,-4.5997,-4.5997,-4.5997,-4.5997,-4.5997,-4.5997,-4.5997,-4.5997,-4.5997,-4.5997,-4.5997,-4.5997,-4.5997,-4.5997,-4.5997,-4.5997,-4.5997,-4.5997,-4.5997,-4.5997,-4.5997,0.0,0.0,0.0,-2.318,-2.3176,-2.3449,-2.424,-2.4368,-2.4677,0.0,-2.5561,-2.5488,-2.5488,-2.5425,-2.5359,-2.5378,-2.5241,-2.5143,-2.5129,-2.5067,-2.501,-2.501,-2.501,-2.501,-2.501,0.0,0.0,0.0,0.0,0.0,0.0,0.0,0.0,0.0,0.0,0.0,0.0,0.0,0.0,-3.1751,-3.3923,-3.4958,0.0,0.0,-3.8522,-3.8522,-3.8522,-3.8987,-3.9607,-3.9709,-3.8918,0.0,0.0,0.0,0.0,0.0,-3.3795,0.0,0.0,0.0,0.0,0.0,0.0,0.0,-3.8535,-3.9778,-4.1098,0.0,0.0,0.0,0.0,0.0,-4.5258,-4.5355,-4.5452,-4.5587,-4.5761,-4.58,-4.58,-4.58,-4.58,-4.58,-4.58,-4.58,-4.58,-4.5814,-4.5874,-4.5932,-4.5991,-4.6003,-4.5994,-4.5997,-4.5997,-4.5997,-4.5997,-4.5997,-4.5997,-4.5997,-4.5997,-4.5997,-4.5997,-4.5997,-4.5997,-4.5997,-4.5997,-4.5997,-4.5997,-4.5997,-4.5997,-4.5997,-4.5997,-4.5997,-4.5997,-4.5997,-4.5997,-4.5997,0.0,0.0,0.0,-2.4915,-2.4906,-2.5177,-2.5986,-2.6071,-2.6346,-2.7209,-2.7266,-2.7198,-2.7198,-2.7147,-2.7094,-2.7044,-2.6431,-2.6018,-2.5982,-2.5413,-2.5067,-2.501,-2.501,-2.501,-2.501,-2.501,0.0,0.0,0.0,0.0,0.0,0.0,0.0,0.0,0.0,0.0,0.0,0.0,0.0,-3.3242,-3.4356,0.0,-3.7811,-3.893,-3.9357,-3.9357,-3.9357,-3.947,-3.9532,-3.8961,-3.8599,-3.8131,0.0,0.0,0.0,-3.5273,0.0,0.0,0.0,0.0,0.0,0.0,0.0,0.0,-3.6964,-3.7949,-3.8954,0.0,0.0,0.0,0.0,0.0,-4.199,-4.2647,-4.3324,-4.4253,-4.5606,-4.58,-4.58,-4.58,-4.58,-4.58,-4.58,-4.58,-4.5814,-4.588,-4.5944,-4.598,-4.5991,-4.5994,-4.5997,-4.5997,-4.5997,-4.5997,-4.5997,-4.5997,-4.5997,-4.5997,-4.5997,-4.5997,-4.5997,-4.5997,-4.5997,-4.5997,-4.5997,-4.5997,-4.5997,-4.5997,-4.5997,-4.5997,-4.5997,-4.5997,-4.5997,-4.5997,-4.5997,-4.5997,0.0,0.0,0.0,-2.5398,-2.5707,-2.6071,-2.6502,-2.6891,-2.7278,0.0,0.0,0.0,0.0,0.0,-2.7542,-2.75,-2.712,-2.6887,-2.6849,-2.6502,-2.6274,-2.6255,-2.5829,-2.5606,-2.5606,-2.52,-2.501,0.0,0.0,0.0,0.0,0.0,0.0,0.0,0.0,0.0,0.0,0.0,-3.1727,-3.3677,-3.4468,0.0,-3.8484,-3.9282,-3.9602,-3.9602,-3.9602,-3.9602,-3.9545,-3.9166,-3.8807,0.0,0.0,-3.7908,-3.8098,0.0,-3.6637,-3.7159,0.0,0.0,0.0,-3.5493,0.0,0.0,0.0,-3.7462,-3.8337,-3.9226,-4.0134,-4.0759,-4.079,-4.0803,-4.0931,-4.1332,-4.2467,-4.3589,-4.4427,-4.5258,-4.5814,-4.5847,-4.5814,-4.5814,-4.5847,-4.5814,-4.5827,-4.588,-4.5968,-4.6003,-4.5994,-4.5997,-4.5997,-4.5997,-4.5997,-4.5997,-4.5997,-4.5997,-4.5997,-4.5997,-4.5997,-4.5997,-4.5997,-4.5997,-4.5997,-4.5997,-4.5997,-4.5997,-4.5997,-4.5997,-4.5997,-4.5997,-4.5997,-4.5997,-4.5997,-4.5997,-4.5997,-4.5997,0.0,0.0,0.0,0.0,-2.6109,-2.6611,-2.6949,-2.7577,0.0,0.0,0.0,0.0,0.0,0.0,0.0,0.0,-2.8286,-2.8131,0.0,0.0,-2.7728,-2.7706,-2.6887,-2.6517,-2.6659,-2.572,-2.5237,-2.5224,0.0,0.0,0.0,0.0,0.0,0.0,0.0,0.0,0.0,0.0,0.0,-3.413,0.0,-3.6516,-3.8489,-3.9137,-3.947,-3.962,-3.9602,-3.9602,-3.9602,-3.9602,-3.9204,-3.8697,-3.855,-3.8954,0.0,0.0,0.0,0.0,0.0,0.0,0.0,0.0,0.0,-3.5872,0.0,0.0,0.0,0.0,-3.9277,0.0,0.0,-3.9828,0.0,0.0,0.0,0.0,0.0,-4.3879,0.0,-4.5815,-4.5847,-4.5847,-4.5887,-4.5874,-4.5854,-4.5917,-4.5972,-4.5994,-4.5997,-4.5997,-4.5997,-4.5997,-4.5997,-4.5997,-4.5997,-4.5997,-4.5997,-4.5997,-4.5997,-4.5997,-4.5997,-4.5997,-4.5997,-4.5997,-4.5997,-4.5997,-4.5997,-4.5997,-4.5997,-4.5997,-4.5997,-4.5997,-4.5997,-4.5997,-4.5997,-4.5997,-2.5404,-2.5397,0.0,0.0,-2.6472,-2.7025,-2.8571,-2.8734,0.0,0.0,0.0,0.0,0.0,0.0,0.0,0.0,0.0,0.0,-2.9674,0.0,0.0,-2.8472,-2.7751,-2.7664,-2.8312,-2.6849,-2.6062,-2.6062,0.0,0.0,0.0,0.0,0.0,0.0,-2.9023,0.0,0.0,0.0,-3.4204,0.0,-3.661,-3.7551,0.0,-3.8507,-3.9011,-3.9669,-3.962,-3.9602,-3.962,0.0,-3.9594,-3.9344,0.0,-3.9599,-4.0279,-3.728,0.0,0.0,0.0,0.0,0.0,0.0,-3.6565,0.0,0.0,0.0,-3.5836,-3.5997,0.0,-3.6211,-3.6265,0.0,0.0,0.0,0.0,0.0,-3.9893,-4.0804,-4.2509,-4.5538,-4.5893,-4.5887,-4.5905,-4.5949,-4.598,-4.5991,-4.5994,-4.5997,-4.5997,-4.5997,-4.5997,-4.5997,-4.5997,-4.5997,-4.5997,-4.5997,-4.5997,-4.5997,-4.5997,-4.5997,-4.5997,-4.5997,-4.5997,-4.5997,-4.5997,-4.5997,-4.5997,-4.5997,-4.5997,-4.5997,-4.5997,-4.5997,-4.5997,-4.5997,-4.5997,-4.5997,-2.5415,-2.5397,0.0,0.0,-2.6941,-2.7604,-2.8847,-2.9325,0.0,0.0,0.0,0.0,0.0,0.0,0.0,0.0,0.0,-3.1637,0.0,0.0,0.0,-3.0039,-2.8846,-2.8339,-2.8647,-2.7542,-2.6712,-2.6209,-2.5849,0.0,0.0,0.0,0.0,0.0,-3.0084,0.0,-3.2638,0.0,-3.5352,0.0,0.0,0.0,0.0,-3.8936,-3.9325,-3.9645,-3.962,-3.9602,-3.9602,0.0,-3.9602,0.0,0.0,0.0,0.0,-3.8422,0.0,0.0,0.0,0.0,0.0,0.0,0.0,0.0,-3.5815,0.0,-3.556,0.0,0.0,0.0,0.0,0.0,0.0,0.0,-3.6957,0.0,0.0,0.0,-4.0253,0.0,0.0,0.0,-4.4347,-4.5378,-4.5991,-4.5991,-4.6005,-4.5997,-4.5997,-4.5997,-4.5997,-4.5997,-4.5997,-4.5997,-4.5997,-4.5997,-4.5997,-4.5997,-4.5997,-4.5997,-4.5997,-4.5997,-4.5997,-4.5997,-4.5997,-4.5997,-4.5997,-4.5997,-4.5997,-4.5997,-4.5997,-4.5997,-4.5997,-4.5997,-4.5997,-4.5997,0.0,0.0,0.0,0.0,0.0,0.0,0.0,0.0,0.0,0.0,0.0,0.0,-3.2673,-3.311,0.0,0.0,-3.3392,-3.3427,0.0,0.0,-3.2428,-3.2411,-3.0896,0.0,0.0,-2.879,-2.7725,-2.6892,0.0,0.0,0.0,0.0,0.0,0.0,0.0,-3.2222,-3.3656,0.0,0.0,-3.6726,-3.7593,-3.829,-3.8874,-3.9425,-3.962,-3.9602,-3.9602,-3.9602,-3.9602,-3.962,-3.962,-3.9602,-3.962,-4.049,-4.1168,0.0,0.0,0.0,-3.9214,0.0,0.0,0.0,0.0,0.0,0.0,0.0,0.0,0.0,-3.5651,0.0,0.0,0.0,-3.5697,-3.5698,0.0,-3.6309,0.0,-3.6668,0.0,0.0,0.0,0.0,0.0,-4.4092,-4.4965,-4.4965,-4.5414,-4.5666,-4.5666,-4.588,-4.5997,-4.5997,-4.5997,-4.5997,-4.5997,-4.5997,-4.5997,-4.5997,-4.5997,-4.5997,-4.5997,-4.5997,-4.5997,-4.5997,-4.5997,-4.5997,-4.5997,-4.5997,-4.5861,-4.5686,-4.5899,-4.5861,-4.5705,-4.5919,-4.5997,-4.5997,-2.7913,-2.7238,0.0,0.0,0.0,0.0,0.0,0.0,0.0,0.0,0.0,0.0,0.0,0.0,0.0,0.0,0.0,-3.6269,-3.4716,0.0,-3.5758,-3.5759,-3.4266,-3.3409,0.0,0.0,-2.9415,-2.8619,0.0,0.0,0.0,0.0,0.0,0.0,0.0,-3.2826,-3.3753,-3.6142,-3.7604,-3.8371,-3.9212,-3.9545,-3.9564,0.0,-3.9669,-3.9602,-3.9602,-3.9602,-3.962,-3.9669,-3.9645,-3.962,-3.9669,-4.0735,-4.1694,0.0,0.0,0.0,-4.1366,-4.0749,-4.0251,-4.0193,-3.972,-3.883,-3.7145,-3.6749,-3.6537,-3.5763,-3.5643,-3.5704,-3.5704,-3.5704,-3.5706,-3.5699,-3.5059,0.0,0.0,0.0,0.0,0.0,0.0,0.0,0.0,-4.1818,-4.2315,-4.2315,-4.387,-4.4831,-4.4831,-4.5569,-4.5997,-4.5997,-4.5997,-4.5997,-4.5997,-4.5997,-4.5997,-4.5997,-4.5997,-4.5997,-4.5997,-4.5997,-4.5997,-4.5997,-4.5997,-4.5997,-4.5997,-4.5997,-4.553,-4.4928,-4.5705,-4.5511,-4.4928,-4.5705,-4.5997,-4.5997,0.0,0.0,0.0,0.0,0.0,0.0,0.0,-3.124,0.0,0.0,0.0,0.0,0.0,-3.6462,-3.6644,0.0,0.0,-3.6855,-3.631,-3.6032,0.0,0.0,0.0,-3.4147,0.0,0.0,0.0,0.0,0.0,0.0,0.0,0.0,0.0,0.0,0.0,-3.3639,0.0,0.0,0.0,0.0,0.0,-3.9645,-3.9669,0.0,-3.962,-3.9602,-3.9602,-3.9602,-3.9602,-3.9645,-3.962,-3.9602,-3.9645,-4.0421,-4.1224,-4.0731,-4.1411,-4.228,-4.2139,-4.2364,-4.2238,-4.0616,-4.0095,-3.9391,-3.7238,-3.6363,-3.626,-3.7146,-3.6455,-3.6033,-3.7154,-3.6458,-3.5706,-3.5699,-3.4545,-3.3671,0.0,0.0,0.0,0.0,0.0,0.0,0.0,0.0,0.0,-4.2168,-4.3287,-4.3938,-4.3938,-4.4734,-4.52,-4.52,-4.5725,-4.5997,-4.5997,-4.5997,-4.5997,-4.5997,-4.5997,-4.5997,-4.5997,-4.5997,-4.5997,-4.5958,-4.5433,-4.52,-4.52,-4.52,-4.5045,-4.487,-4.5686,-4.5822,-4.5627,-4.5899,-4.5997,-4.5997,-3.053,0.0,0.0,0.0,0.0,0.0,0.0,0.0,0.0,0.0,-3.5418,0.0,-3.7184,0.0,-3.7514,0.0,-3.769,-3.7854,-3.7558,-3.7333,0.0,-3.7229,-3.6487,0.0,0.0,0.0,0.0,0.0,0.0,-2.9415,0.0,0.0,0.0,0.0,0.0,0.0,-3.5352,0.0,-3.8616,0.0,0.0,-3.9645,0.0,0.0,-3.9602,-3.9645,-3.962,-3.9602,-3.9602,-3.9602,-3.9602,-3.9602,-3.9602,-4.0215,-4.0998,-4.128,-4.1995,-4.2791,-4.3113,-4.3436,-4.3327,-4.177,-4.1304,-4.0741,-3.8866,-3.8141,-3.8119,-3.8955,-3.7781,-3.7116,-3.8818,-3.7251,-3.5899,-3.6492,-3.4672,-3.3012,0.0,-3.1409,0.0,0.0,0.0,0.0,0.0,0.0,-3.9785,-4.1196,-4.2111,-4.2743,-4.3025,-4.386,-4.4481,-4.4792,-4.5297,-4.5705,-4.5997,-4.5997,-4.5997,-4.5997,-4.5997,-4.5997,-4.5997,-4.5997,-4.5997,-4.5958,-4.5453,-4.522,-4.522,-4.522,-4.5064,-4.487,-4.5686,-4.5822,-4.5608,-4.588,-4.5997,-4.5997,0.0,0.0,0.0,0.0,-3.1763,0.0,0.0,0.0,-3.4888,0.0,-3.6419,-3.7373,-3.7411,-3.8026,-3.8154,-3.7378,-3.8724,-3.9263,-3.8418,-3.9151,0.0,0.0,-3.8855,-3.807,-3.728,0.0,0.0,0.0,0.0,0.0,0.0,0.0,0.0,0.0,-3.2046,0.0,-3.605,-3.6939,-3.8192,-3.9602,-3.9602,-3.9602,-3.9602,-3.9602,-3.9645,-3.9693,-3.9602,-3.9602,-3.9602,-3.9602,-3.9602,-3.9602,-3.9602,-4.014,-4.0966,-4.1773,-4.2618,-4.3482,-4.4289,-4.4049,-4.3536,-4.3498,-4.318,-4.264,-4.1792,-4.1767,-4.1724,-4.1061,-3.9533,-3.8837,-4.0481,-3.8063,-3.6314,-3.7827,-3.5379,-3.2682,-3.1001,0.0,-3.1054,0.0,0.0,0.0,0.0,0.0,-3.6917,-3.9388,-4.041,-4.1304,-4.2092,-4.2966,-4.384,-4.4715,-4.4812,-4.522,-4.5977,-4.5997,-4.5997,-4.5997,-4.5997,-4.5977,-4.5938,-4.5938,-4.5919,-4.5861,-4.5822,-4.5802,-4.5802,-4.5802,-4.5356,-4.4753,-4.555,-4.5414,-4.4831,-4.5686,-4.5958,-4.5938,-3.3045,-3.3294,-3.3423,0.0,-3.2896,-3.281,0.0,0.0,0.0,0.0,-3.7505,-3.8342,-3.8954,-3.9175,-3.9212,-3.8982,-3.9357,0.0,0.0,0.0,0.0,-3.9602,-3.9395,-3.8912,-3.8108,-3.7096,0.0,-3.3299,0.0,0.0,-2.9888,0.0,0.0,0.0,0.0,0.0,-3.605,-3.6939,-3.8192,-3.9602,-3.9602,-3.9645,-3.9669,-3.962,-3.9645,-3.9693,-3.9602,-3.9602,-3.9602,-3.9602,-3.9602,-3.9602,-3.9602,-4.014,-4.0966,-4.1773,-4.2618,-4.3482,-4.4289,-4.4373,-4.4108,-4.3554,-4.291,-4.2221,-4.1704,-4.1193,-4.117,-4.2408,-4.1313,-4.0268,-4.0713,-3.9011,-3.7282,-3.6464,-3.5115,-3.3577,0.0,0.0,0.0,-3.108,0.0,0.0,0.0,-3.5133,-3.6423,-3.7673,-3.9174,-4.0382,-4.1179,-4.2072,-4.2927,-4.3802,-4.5045,-4.5783,-4.5997,-4.5997,-4.5997,-4.5997,-4.5997,-4.5686,-4.5103,-4.5103,-4.4753,-4.4112,-4.3452,-4.318,-4.318,-4.318,-4.3044,-4.2947,-4.3802,-4.4015,-4.4015,-4.5453,-4.5608,-4.5103,-3.4152,0.0,0.0,-3.416,0.0,0.0,-3.4314,-3.4945,0.0,-3.7049,-3.7863,0.0,-3.8976,-3.9352,-3.9602,-3.9602,-3.9602,0.0,-3.9602,0.0,0.0,-3.9602,-3.9602,-3.9395,-3.893,-3.8146,0.0,-3.4659,0.0,0.0,-3.0473,0.0,0.0,0.0,0.0,-3.3545,0.0,-3.7125,-3.8282,-3.9118,-3.947,-3.9602,0.0,-3.9602,-3.9602,-3.9645,-3.9602,-3.9602,-3.9602,-3.9602,-3.9602,-3.9602,-3.9602,-3.9896,-4.0422,-4.1248,-4.2074,-4.2919,-4.3745,-4.4233,-4.4383,-4.3976,-4.3599,-4.3279,-4.3052,-4.2814,-4.2951,-4.4045,-4.3013,-4.2125,-4.2841,-4.0984,-3.8667,-3.661,-3.5262,-3.4046,0.0,0.0,0.0,0.0,-3.281,0.0,-3.226,-3.475,-3.6611,-3.7058,-3.8354,-3.933,-3.9768,-4.0993,-4.2062,-4.2898,-4.4589,-4.5472,-4.5472,-4.5472,-4.5278,-4.4909,-4.4909,-4.4676,-4.4229,-4.4229,-4.3957,-4.3471,-4.2986,-4.2772,-4.2772,-4.2772,-4.2772,-4.2811,-4.3316,-4.351,-4.3666,-4.4986,-4.4948,-4.4229,0.0,0.0,0.0,0.0,0.0,0.0,0.0,-3.5988,0.0,-3.757,0.0,-3.8514,-3.8614,-3.9201,-3.9602,-3.9602,0.0,-3.9602,-3.9602,-3.9602,-3.9602,-3.9602,-3.9602,-3.9602,-3.9602,-3.8912,-3.7717,0.0,0.0,0.0,0.0,0.0,0.0,0.0,0.0,0.0,0.0,-3.7457,-3.8446,-3.8616,-3.932,-3.9602,-3.9602,-3.9602,-3.9602,-3.9602,-3.9602,-3.9602,-3.9602,-3.9602,-3.9602,-3.9602,-3.9602,-3.9602,-3.9771,-4.0553,-4.1304,-4.2036,-4.29,-4.3726,-4.4346,-4.4346,-4.4553,-4.477,-4.4776,-4.512,-4.5418,-4.5454,-4.4453,-4.3974,-4.5211,-4.2899,-4.008,-3.7869,-3.629,-3.5068,0.0,0.0,0.0,0.0,0.0,0.0,-3.1605,-3.4542,-3.6689,-3.6903,-3.7739,-3.8381,-3.8712,-4.0166,-4.1362,-4.2159,-4.3773,-4.4637,-4.4637,-4.4637,-4.4248,-4.351,-4.3627,-4.3549,-4.3335,-4.3452,-4.3374,-4.3161,-4.3161,-4.3161,-4.3161,-4.3161,-4.3161,-4.3161,-4.3161,-4.3161,-4.3277,-4.4132,-4.3976,-4.3355,0.0,0.0,0.0,0.0,0.0,-3.7498,-3.7906,-3.7942,-3.8446,-3.9976,-3.9701,-3.9633,-4.0284,-3.9915,-3.9602,-3.9602,-3.9602,0.0,0.0,0.0,0.0,-3.9602,-3.9602,-3.9602,-3.9602,-3.947,-3.8277,0.0,0.0,0.0,0.0,0.0,0.0,0.0,0.0,0.0,-3.692,-3.7966,0.0,-3.9395,-3.9545,-3.9602,-3.9602,-3.9602,-3.9602,-3.9602,-3.9602,-3.9602,-3.9602,-3.9602,-3.9602,-3.9602,-3.9602,-3.9602,-3.9771,-4.0553,-4.091,-4.1191,-4.2018,-4.2862,-4.3501,-4.3501,-4.4035,-4.4613,-4.477,-4.4872,-4.4988,-4.5203,-4.5169,-4.479,-4.3695,-4.2019,-4.0645,-4.0214,-3.9936,-3.9491,0.0,0.0,0.0,0.0,0.0,-3.6992,-3.5084,-3.434,-3.4542,-3.5927,-3.6837,-3.823,-4.0353,-4.0799,-4.1382,-4.218,-4.318,-4.3724,-4.3724,-4.3724,-4.3646,-4.351,-4.4229,-4.3821,-4.2442,-4.318,-4.2714,-4.1354,-4.1354,-4.1354,-4.1354,-4.1354,-4.1354,-4.1354,-4.1354,-4.1354,-4.1451,-4.2325,-4.2558,-4.2636,0.0,0.0,0.0,0.0,0.0,0.0,0.0,-3.9712,-3.957,-3.9526,-3.9571,-3.9564,-3.9521,-3.9558,-3.9602,-3.9602,-3.9602,-3.9602,-3.9602,-3.9602,-3.9602,-3.9602,-3.9602,-3.9602,-3.9602,-3.9602,-3.8653,-3.6675,0.0,0.0,0.0,0.0,0.0,0.0,0.0,-3.4774,0.0,0.0,-3.8616,-3.9006,-3.9432,-3.9602,-3.9602,-3.9602,-3.9602,-3.9602,-3.9602,-3.9602,-3.9602,-3.9602,-3.9602,-3.9602,-3.9602,-3.9602,-3.9695,-4.0046,-4.0459,-4.0891,-4.1285,-4.1999,-4.2731,-4.3182,-4.3595,-4.3998,-4.4527,-4.4739,-4.4825,-4.4962,-4.5182,-4.5132,-4.4434,-4.3091,-4.2105,-4.2133,-4.1419,-4.0722,-4.0374,0.0,-3.9723,0.0,0.0,0.0,0.0,-3.4178,-3.4671,0.0,0.0,-3.7821,-3.9505,-4.0496,-4.1187,-4.1567,-4.3268,-4.3957,-4.351,-4.351,-4.3277,-4.283,-4.2792,-4.2345,-4.1529,-4.1956,-4.1684,-4.0907,-4.0907,-4.0907,-4.0907,-4.0907,-4.0907,-4.0907,-4.0907,-4.0907,-4.1005,-4.1879,-4.2189,-4.2384,0.0,-3.7719,0.0,0.0,-3.9013,0.0,-4.0636,-4.0915,-4.0641,-3.9508,-3.9502,-3.9389,-3.8882,-3.9276,-3.9602,-3.9602,-3.9602,-3.9602,-3.9602,-3.9602,-3.9602,-3.9602,-3.9602,-3.9602,-3.9602,-3.9602,-3.8936,0.0,-3.6861,-3.5641,-3.3923,0.0,0.0,0.0,0.0,0.0,-3.6659,-3.7872,-3.8503,-3.871,-3.9339,-3.9602,-3.9602,-3.9602,-3.9602,-3.9602,-3.9602,-3.9602,-3.9602,-3.9602,-3.9602,-3.9602,-3.9602,-3.9602,-3.9602,-3.9602,-4.0046,-4.0534,-4.0534,-4.1135,-4.1924,-4.26,-4.3031,-4.3463,-4.4102,-4.4489,-4.4739,-4.4739,-4.4938,-4.5182,-4.5399,-4.4514,-4.38,-4.3853,-4.2761,-4.1837,-4.1723,0.0,0.0,0.0,0.0,0.0,-3.5236,-3.5212,-3.6036,-3.7529,-3.7308,-3.7638,-3.8879,-4.0224,-4.0974,-4.0974,-4.2918,-4.3646,-4.2947,-4.2947,-4.2597,-4.1917,-4.1412,-4.1082,-4.0907,-4.1082,-4.1082,-4.0907,-4.0907,-4.0907,-4.0907,-4.0907,-4.0907,-4.0907,-4.0907,-4.0907,-4.1005,-4.1879,-4.2325,-4.2597,0.0,0.0,0.0,0.0,0.0,-3.9819,-3.9815,-4.0998,-4.2107,-4.2758,-4.0947,-3.9858,-4.049,-3.999,-3.9602,-3.9602,-3.9602,-3.9602,-3.9602,-3.9602,-3.9602,-3.9602,-3.9602,-3.9602,-3.9602,-3.9602,-3.9175,-3.83,-3.8294,-3.7036,-3.4697,-3.468,-3.4623,-3.4622,-3.5548,-3.6788,-3.8188,-3.8357,-3.8818,-3.9489,-3.9583,-3.9602,-3.9602,-3.9602,-3.9602,-3.9602,-3.9602,-3.9602,-3.9602,-3.9602,-3.9602,-3.9602,-3.9602,-3.9602,-3.9602,-3.9602,-3.9658,-3.969,-3.969,-4.029,-4.0929,-4.1004,-4.2187,-4.3313,-4.3388,-4.3998,-4.4524,-4.4524,-4.4707,-4.4919,-4.5182,-4.5246,-4.5329,-4.5379,-4.5413,-4.5161,-4.4458,-4.3781,-4.3005,-4.1976,0.0,0.0,-4.0228,-3.8887,-3.8449,-3.9392,-3.7991,-3.8136,-4.0548,-4.081,-4.0907,-4.0907,-4.114,-4.1238,-4.114,-4.114,-4.1102,-4.1024,-4.1743,-4.1665,-4.0927,-4.1723,-4.1646,-4.0907,-4.0907,-4.0907,-4.0907,-4.0907,-4.0907,-4.0907,-4.0907,-4.0907,-4.1005,-4.1879,-4.2694,-4.351,0.0,0.0,0.0,0.0,0.0,0.0,0.0,-4.0971,-4.1398,-4.1755,-4.0947,-4.0272,-4.0103,-3.9783,-3.9602,-3.9602,-3.9602,-3.9602,-3.9602,-3.9602,-3.9602,-3.9602,-3.9602,-3.9602,-3.9602,-3.9602,-3.9212,-3.839,-3.8482,-3.7753,-3.6304,-3.6345,-3.6343,-3.6338,-3.7125,-3.7815,-3.8428,-3.8912,-3.9301,-3.9602,-3.9602,-3.9602,-3.9602,-3.9602,-3.9602,-3.9602,-3.9602,-3.9602,-3.9602,-3.9602,-3.9602,-3.9602,-3.9602,-3.9602,-3.9602,-3.9602,-3.9602,-3.9602,-3.9602,-3.9821,-4.0196,-4.0685,-4.168,-4.2656,-4.3182,-4.3933,-4.4515,-4.4515,-4.4655,-4.4825,-4.4938,-4.5161,-4.5381,-4.5574,-4.5673,-4.5659,-4.5498,-4.4305,0.0,-4.3025,0.0,-4.0499,-3.9489,-3.9276,-3.9101,-3.8926,-3.8274,-3.8322,-3.9352,-4.0353,-4.0684,-4.0207,-4.1169,-4.1684,-4.1684,-4.1684,-4.1684,-4.1684,-4.149,-4.1238,-4.0907,-4.1257,-4.1238,-4.0907,-4.0907,-4.0907,-4.0907,-4.0907,-4.0907,-4.0907,-4.0907,-4.0907,-4.1005,-4.1879,-4.2422,-4.2928,-4.0088,0.0,-4.0217,0.0,-4.0737,-4.0921,-4.0823,-4.0632,-4.0497,-4.0534,-4.0497,-4.0234,-3.9652,-3.9602,-3.9602,-3.9602,-3.9376,-3.9339,-3.9583,-3.9352,-3.9314,-3.9602,-3.9602,-3.9602,-3.9602,-3.9602,-3.932,-3.8766,-3.8813,-3.8429,-3.7621,-3.7397,-3.7414,-3.7653,-3.8169,-3.8522,-3.878,-3.9357,-3.9602,-3.9602,-3.9602,-3.9602,-3.9602,-3.9602,-3.9602,-3.9602,-3.9602,-3.9602,-3.9602,-3.9602,-3.9602,-3.9602,-3.9602,-3.9602,-3.9602,-3.9602,-3.9602,-3.9602,-3.9602,-3.9602,-3.9727,-4.0309,-4.106,-4.1886,-4.2731,-4.3557,-4.4214,-4.4458,-4.4621,-4.4714,-4.4714,-4.4748,-4.4916,-4.5303,-4.5101,-4.4954,-4.5118,-4.3932,-4.2964,-4.2731,-4.1626,-4.0432,-3.9228,-3.9694,-3.9703,-3.8848,-3.9004,-3.9149,-3.9146,-4.0256,-4.0645,-4.0071,-4.1441,-4.2073,-4.182,-4.2073,-4.2073,-4.1801,-4.1199,-4.0907,-4.0907,-4.0907,-4.0907,-4.0907,-4.0907,-4.0907,-4.0907,-4.0907,-4.0907,-4.0907,-4.0907,-4.0907,-4.0966,-4.1587,-4.1976,-4.2403,-3.9359,-3.9406,-3.9532,-4.0262,-4.0231,-4.0109,-4.0109,-3.9897,-3.9752,-3.9883,-3.9733,-3.962,-3.9602,-3.9602,-3.9602,-3.9602,-3.8812,-3.8681,-3.9545,-3.8788,-3.8694,-3.9564,-3.9602,-3.9602,-3.9602,-3.9602,-3.9602,-3.9602,-3.965,-3.9242,-3.8376,-3.7653,-3.7687,-3.8395,-3.839,-3.8836,-3.9602,-3.9602,-3.9602,-3.9602,-3.9602,-3.9602,-3.9602,-3.9602,-3.9602,-3.9602,-3.9602,-3.9602,-3.9602,-3.9602,-3.9602,-3.9602,-3.9602,-3.9602,-3.9602,-3.9602,-3.9602,-3.9602,-3.9602,-3.9602,-3.9602,-3.962,-4.0215,-4.1022,-4.1849,-4.2693,-4.3538,-4.4346,-4.4515,-4.4496,-4.4496,-4.4121,-4.403,-4.4692,-4.3923,-4.3217,-4.3138,-4.2608,-4.1876,-4.0947,-4.0877,-4.0878,-4.0792,-4.0839,0.0,-3.9742,-4.0422,-4.0869,-4.0869,-4.0888,-4.0907,-4.0888,-4.1743,-4.1781,-4.0927,-4.1762,-4.1762,-4.0927,-4.0907,-4.0907,-4.0907,-4.0907,-4.0907,-4.0907,-4.0907,-4.0907,-4.0907,-4.0907,-4.0907,-4.0907,-4.0907,-4.0907,-4.0907,-4.0907,-4.1451,-4.2325,-4.0324,-4.0346,-4.0404,-4.0682,-4.0494,-4.0294,-4.0299,-4.0058,-3.9846,-3.9883,-3.9769,-3.9713,-3.9789,-3.9145,-3.8949,-3.9545,-3.8812,-3.8681,-3.9545,-3.9333,-3.9295,-3.9602,-3.9602,-3.9602,-3.9602,-3.9602,-3.9602,-3.9602,-3.9669,-3.9561,-3.9279,-3.9058,-3.9034,-3.9207,-3.9207,-3.9357,-3.9602,-3.9602,-3.9602,-3.9602,-3.9602,-3.9602,-3.9602,-3.9602,-3.9602,-3.9602,-3.9602,-3.9602,-3.9602,-3.9602,-3.9602,-3.9602,-3.9602,-3.9602,-3.9602,-3.9602,-3.9602,-3.9602,-3.9602,-3.9602,-3.9602,-3.9602,-4.0196,-4.1004,-4.183,-4.3106,-4.4195,-4.4458,-4.4064,-4.3688,-4.3688,-4.3062,-4.2705,-4.3103,-4.2881,-4.2699,-4.2881,-4.2352,-4.1821,-4.159,-4.1164,-4.0898,-4.0868,-4.0888,-4.0791,-4.0538,-4.0247,-3.9829,-3.9224,-4.0276,-4.0645,-4.009,-4.0878,-4.1179,-4.0907,-4.1179,-4.116,-4.0907,-4.0907,-4.0907,-4.0907,-4.0907,-4.0907,-4.0907,-4.0907,-4.0907,-4.0907,-4.0907,-4.0907,-4.0907,-4.0907,-4.0907,-4.0966,-4.1568,-4.1956,-4.2403,-4.0815,-4.0834,-4.0846,-4.0859,-4.0655,-4.0461,-4.0409,-4.0155,-3.9996,-4.0053,-3.9887,-3.9834,-3.9966,-3.8781,-3.8315,-3.9188,-3.8135,-3.792,-3.9105,-3.885,-3.892,-3.9583,-3.9602,-3.9602,-3.9602,-3.9602,-3.9602,-3.9602,-3.9645,-3.9669,-3.9669,-3.9669,-3.9645,-3.9602,-3.9602,-3.9602,-3.9602,-3.9602,-3.9602,-3.9602,-3.9602,-3.9602,-3.9602,-3.9602,-3.9602,-3.9602,-3.9602,-3.9602,-3.9602,-3.9602,-3.9602,-3.9602,-3.9602,-3.9602,-3.9602,-3.9602,-3.9602,-3.9602,-3.9602,-3.9602,-3.9602,-3.9602,-3.9971,-4.0553,-4.1379,-4.26,-4.3576,-4.3576,-4.3163,-4.2806,-4.2806,-4.2156,-4.177,-4.2186,-4.1848,-4.1677,-4.2164,-4.1692,-4.1289,-4.133,-4.1054,-4.0846,-4.0796,-4.0859,-4.0907,-4.0907,-4.0422,-3.9906,-3.9371,-4.0042,-4.0373,-4.0168,-4.0956,-4.1238,-4.0907,-4.1218,-4.1218,-4.0907,-4.0907,-4.0907,-4.0907,-4.0907,-4.0907,-4.0907,-4.0907,-4.0907,-4.0907,-4.0907,-4.0907,-4.0907,-4.0907,-4.0907,-4.0966,-4.151,-4.1704,-4.1917,-4.0907,-4.0907,-4.0869,-4.081,-4.0675,-4.0538,-4.0422,-4.0231,-4.0158,-4.0291,-4.0062,-3.9948,-4.0106,-3.8497,-3.7738,-3.8556,-3.7028,-3.6713,-3.8335,-3.7604,-3.7836,-3.9451,-3.9508,-3.9545,-3.9602,-3.9602,-3.9583,-3.9526,-3.947,-3.947,-3.9526,-3.9526,-3.9545,-3.9602,-3.9602,-3.9602,-3.9602,-3.9602,-3.9602,-3.9602,-3.9602,-3.9602,-3.9602,-3.9602,-3.9602,-3.9602,-3.9602,-3.9602,-3.9602,-3.9602,-3.9602,-3.9602,-3.9602,-3.9602,-3.9602,-3.9602,-3.9602,-3.9602,-3.9602,-3.9602,-3.9602,-3.9602,-3.9658,-3.9877,-4.0628,-4.1436,-4.1991,-4.1991,-4.1954,-4.1916,-4.1916,-4.1368,-4.1116,-4.1717,-4.081,-4.0269,-4.1071,-4.0728,-4.0389,-4.0406,-4.0635,-4.0745,-4.0629,-4.0796,-4.0907,-4.0907,-4.0849,-4.0849,-4.0907,-4.015,-4.0072,-4.0869,-4.1684,-4.1723,-4.0907,-4.1704,-4.1704,-4.0907,-4.0907,-4.0907,-4.0907,-4.0907,-4.0907,-4.0907,-4.0907,-4.0907,-4.0907,-4.0907,-4.0907,-4.0907,-4.0907,-4.0907,-4.0907,-4.0907,-4.0907,-4.1024,-4.0907,-4.0869,-4.083,-4.081,-4.059,-4.0447,-4.0408,-4.0307,-4.0272,-4.031,-4.0158,-4.0101,-4.0234,-3.8631,-3.7656,-3.7906,-3.6844,-3.6572,-3.7593,-3.7376,-3.7649,-3.87,-3.8667,-3.892,-3.9602,-3.9602,-3.9258,-3.8601,-3.7981,-3.8,-3.8601,-3.8601,-3.8957,-3.9602,-3.9602,-3.9602,-3.9602,-3.9602,-3.9602,-3.9602,-3.9602,-3.9602,-3.9602,-3.9602,-3.9602,-3.9602,-3.9602,-3.9602,-3.9602,-3.9602,-3.9602,-3.9602,-3.9602,-3.9602,-3.9602,-3.9602,-3.9602,-3.9602,-3.9602,-3.9602,-3.9602,-3.9602,-4.0046,-4.0572,-4.076,-4.1436,-4.1991,-4.1991,-4.1511,-4.1079,-4.1079,-4.0447,-3.9983,-4.0146,-3.9934,-3.9823,-4.0053,-4.0176,-4.0285,-4.038,-4.0596,-4.0761,-4.0828,-4.0869,-4.0907,-4.0907,-4.0325,-4.0247,-4.0869,-4.015,-4.0072,-4.0869,-4.1102,-4.1102,-4.0907,-4.1102,-4.1102,-4.0907,-4.0907,-4.0907,-4.0907,-4.0907,-4.0907,-4.0907,-4.0907,-4.0907,-4.0907,-4.0907,-4.0907,-4.0907,-4.0907,-4.0907,-4.0907,-4.0907,-4.0907,-4.1024,-4.0869,-4.083,-4.0761,-4.0642,-4.0485,-4.0387,-4.0368,-4.0329,-4.031,-4.031,-4.0234,-4.0081,-3.9737,-3.8475,-3.7519,-3.7177,-3.6253,-3.6046,-3.6824,-3.68,-3.7116,-3.7967,-3.8252,-3.8428,-3.8507,-3.8812,-3.8582,-3.7756,-3.7305,-3.7305,-3.7756,-3.8131,-3.8544,-3.9014,-3.9408,-3.937,-3.8995,-3.8995,-3.8995,-3.8995,-3.8995,-3.9239,-3.9602,-3.9602,-3.9602,-3.9602,-3.9602,-3.9602,-3.9602,-3.9602,-3.9602,-3.9602,-3.9602,-3.9602,-3.9602,-3.9602,-3.9602,-3.9602,-3.9602,-3.9602,-3.9695,-4.0046,-4.0196,-4.0347,-4.0722,-4.0854,-4.091,-4.091,-4.0553,-4.0253,-4.0253,-3.9877,-3.9602,-3.9602,-3.9631,-3.9684,-3.9781,-3.9937,-4.0139,-4.0321,-4.053,-4.0681,-4.0773,-4.0849,-4.0907,-4.0907,-4.0499,-4.0441,-4.0888,-4.0499,-4.0461,-4.0888,-4.0907,-4.0907,-4.0907,-4.0907,-4.0907,-4.0907,-4.0907,-4.0907,-4.0907,-4.0907,-4.0907,-4.0907,-4.0907,-4.0907,-4.0907,-4.0907,-4.0907,-4.0907,-4.0907,-4.0907,-4.0907,-4.0907,-4.0907,-4.0966,-4.081,-4.0771,-4.0668,-4.044,-4.0387,-4.0368,-4.031,-4.031,-4.031,-4.031,-4.031,-3.9966,-3.9106,-3.8226,-3.7387,-3.6585,-3.5658,-3.5415,-3.6082,-3.6065,-3.6386,-3.7201,-3.7816,-3.7845,-3.7244,-3.7694,-3.761,-3.6911,-3.6779,-3.6779,-3.693,-3.7624,-3.8,-3.815,-3.8882,-3.8807,-3.8131,-3.8131,-3.8188,-3.83,-3.83,-3.8826,-3.9602,-3.9602,-3.9602,-3.9602,-3.9602,-3.9602,-3.9602,-3.9602,-3.9602,-3.9602,-3.9602,-3.9602,-3.9602,-3.9602,-3.9602,-3.9602,-3.9602,-3.9602,-3.9771,-4.044,-4.0103,-3.9765,-4.0459,-4.0084,-3.9602,-3.9602,-3.9602,-3.9602,-3.9602,-3.9602,-3.9602,-3.9602,-3.9602,-3.9679,-3.9845,-3.9911,-4.0036,-4.0272,-4.046,-4.0593,-4.0635,-4.0784,-4.0898,-4.0907,-4.0907,-4.0907,-4.0907,-4.0907,-4.0907,-4.0907,-4.0907,-4.0907,-4.0907,-4.0907,-4.0907,-4.0907,-4.0907,-4.0907,-4.0907,-4.0907,-4.0907,-4.0907,-4.0907,-4.0907,-4.0907,-4.0907,-4.0907,-4.0907,-4.0907,-4.0907,-4.0907,-4.0907,-4.0907,-4.0907,-4.081,-4.0616,-4.0444,-4.0401,-4.0348,-4.031,-4.031,-4.031,-4.031,-4.031,-4.031,-3.9966,-3.9106,-3.8226,-3.7387,-3.6585,-3.5689,-3.525,-3.5348,-3.53,-3.5627,-3.6426,-3.6538,-3.6819,-3.7368,-3.6696,-3.6268,-3.6085,-3.5353,-3.5353,-3.6085,-3.6216,-3.6629,-3.7286,-3.7418,-3.7399,-3.7286,-3.7286,-3.7681,-3.83,-3.83,-3.8826,-3.9602,-3.9602,-3.9602,-3.9602,-3.9602,-3.9602,-3.9602,-3.9602,-3.9602,-3.9602,-3.9602,-3.9602,-3.9602,-3.9602,-3.9602,-3.9602,-3.9602,-3.9602,-3.9639,-3.9771,-3.9695,-3.9639,-3.9771,-3.9695,-3.9602,-3.9602,-3.9602,-3.9602,-3.9602,-3.9602,-3.9602,-3.9602,-3.9637,-3.9712,-3.9717,-3.9933,-4.0138,-4.0271,-4.0392,-4.0515,-4.0764,-4.08,-4.0826,-4.0898,-4.0907,-4.0907,-4.0907,-4.0907,-4.0907,-4.0907,-4.0907,-4.0907,-4.0907,-4.0907,-4.0907,-4.0907,-4.0907,-4.0907,-4.0907,-4.0907,-4.0907,-4.0907,-4.0907,-4.0907,-4.0907,-4.0907,-4.0907,-4.0907,-4.0907,-4.0907,-4.0907,-4.0907,-4.0907,-4.0907,-4.0618,-4.0488,-4.0389,-4.0347,-4.0329,-4.0138,-3.9675,-4.0003,-3.9966,-3.9029,-3.9316,-3.9088,-3.7789,-3.7292,-3.6719,-3.5878,-3.5859,-3.5897,-3.5897,-3.5427,-3.5314,-3.5678,-3.6064,-3.6406,-3.6745,-3.583,-3.5352,-3.5308,-3.4833,-3.4808,-3.5202,-3.5672,-3.6104,-3.646,-3.6892,-3.6855,-3.6441,-3.6441,-3.6667,-3.7005,-3.7005,-3.7512,-3.8268,-3.8268,-3.8268,-3.8268,-3.8268,-3.8525,-3.8901,-3.8901,-3.9201,-3.9602,-3.9602,-3.9602,-3.9602,-3.9602,-3.9602,-3.9602,-3.9602,-3.9602,-3.9714,-4.014,-3.9915,-3.969,-4.014,-3.9896,-3.9602,-3.9602,-3.9602,-3.9602,-3.9602,-3.9602,-3.9602,-3.9602,-3.9631,-3.9661,-3.9693,-3.987,-4.0038,-4.0177,-4.0323,-4.0485,-4.0662,-4.0764,-4.0834,-4.0878,-4.0907,-4.0907,-4.0907,-4.0907,-4.0907,-4.0907,-4.0907,-4.0907,-4.0907,-4.0907,-4.0907,-4.0907,-4.0907,-4.0907,-4.0907,-4.0907,-4.0907,-4.0907,-4.0907,-4.0907,-4.0907,-4.0907,-4.0907,-4.0907,-4.0907,-4.0907,-4.0907,-4.0907,-4.0907,-4.0907,-4.0449,-4.0383,-4.031,-4.0043,-4.0005,-3.9698,-3.8827,-3.9273,-3.922,-3.7881,-3.8282,-3.8207,-3.6929,-3.6795,-3.6509,-3.584,-3.6394,-3.67,-3.6528,-3.5878,-3.5496,-3.5496,-3.585,-3.6007,-3.5951,-3.5248,-3.4849,-3.4788,-3.4706,-3.4623,-3.4602,-3.5277,-3.5597,-3.5615,-3.6235,-3.6179,-3.5597,-3.5597,-3.5709,-3.5897,-3.5897,-3.6385,-3.7099,-3.7099,-3.7099,-3.7099,-3.7099,-3.7624,-3.83,-3.83,-3.8882,-3.9602,-3.9602,-3.9602,-3.9602,-3.9602,-3.9602,-3.9602,-3.9602,-3.9602,-3.9771,-4.0365,-4.0046,-3.9771,-4.0384,-4.0027,-3.9602,-3.9602,-3.9602,-3.9602,-3.9602,-3.9602,-3.9602,-3.9602,-3.9602,-3.9626,-3.9665,-3.9781,-3.9911,-4.0036,-4.0215,-4.0406,-4.0574,-4.0688,-4.0792,-4.0878,-4.0907,-4.0907,-4.0907,-4.0907,-4.0907,-4.0907,-4.0907,-4.0907,-4.0907,-4.0907,-4.0907,-4.0907,-4.0907,-4.0907,-4.0907,-4.0907,-4.0907,-4.0907,-4.0907,-4.0907,-4.0907,-4.0907,-4.0907,-4.0907,-4.0907,-4.0907,-4.0907,-4.0907,-4.0907,-4.0907,-4.0431,-4.0352,-4.0043,-3.9242,-3.9109,-3.8802,-3.7931,-3.7852,-3.7855,-3.7725,-3.7747,-3.7747,-3.7617,-3.7617,-3.7578,-3.7521,-3.7559,-3.7292,-3.6566,-3.6451,-3.6413,-3.6413,-3.567,-3.5255,-3.517,-3.5113,-3.4983,-3.4788,-3.4788,-3.4708,-3.4602,-3.4658,-3.4695,-3.4695,-3.4752,-3.4752,-3.4695,-3.4695,-3.5165,-3.5897,-3.5897,-3.6385,-3.7099,-3.7099,-3.7099,-3.7099,-3.7099,-3.7624,-3.83,-3.83,-3.8882,-3.9602,-3.9602,-3.9602,-3.9602,-3.9602,-3.9602,-3.9602,-3.9602,-3.9602,-3.962,-3.9677,-3.9658,-3.9639,-3.9677,-3.9658,-3.9602,-3.9602,-3.9602,-3.9602,-3.9602,-3.9602,-3.9602,-3.9602,-3.9602,-3.9602,-3.9602,-3.9684,-3.9762,-3.9889,-4.0036,-4.0252,-4.0559,-4.0621,-4.0694,-4.0898,-4.0907,-4.0907,-4.0907,-4.0907,-4.0907,-4.0907,-4.0907,-4.0907,-4.0907,-4.0907,-4.0907,-4.0907,-4.0907,-4.0907,-4.0907,-4.0907,-4.0907,-4.0907,-4.0907,-4.0907,-4.0907,-4.0907,-4.0907,-4.0907,-4.0907,-4.0907,-4.0907,-4.0907,-4.0907,-4.0907,-4.0346,-4.0319,-4.0042,-3.9159,-3.9006,-3.8527,-3.7168,-3.7376,-3.7529,-3.7022,-3.7385,-3.7519,-3.7005,-3.7406,-3.7502,-3.7005,-3.7406,-3.7808,-3.8037,-3.7082,-3.626,-3.5725,-3.5381,-3.5193,-3.516,-3.5038,-3.4946,-3.485,-3.4749,-3.4645,-3.4602,-3.4602,-3.4602,-3.4602,-3.4602,-3.4602,-3.4602,-3.4602,-3.4789,-3.509,-3.509,-3.5277,-3.554,-3.554,-3.554,-3.554,-3.554,-3.6404,-3.7549,-3.7549,-3.8469,-3.9602,-3.9602,-3.9602,-3.9602,-3.9602,-3.9602,-3.9602,-3.9602,-3.9602,-3.9602,-3.9602,-3.9602,-3.9602,-3.9602,-3.9602,-3.9602,-3.9602,-3.9602,-3.9602,-3.9602,-3.9602,-3.9602,-3.9602,-3.9602,-3.9602,-3.9602,-3.9661,-3.9739,-3.9889,-4.0015,-4.0234,-4.0559,-4.0588,-4.0681,-4.0878,-4.0907,-4.0907,-4.0907,-4.0907,-4.0907,-4.0907,-4.0907,-4.0907,-4.0907,-4.0907,-4.0907,-4.0907,-4.0907,-4.0907,-4.0907,-4.0907,-4.0907,-4.0927,-4.1471,-4.1704,-4.1704,-4.1704,-4.1704,-4.1646,-4.1102,-4.0907,-4.0907,-4.0907,-4.0907,-4.0985,-3.9868,-3.9662,-3.9299,-3.8701,-3.8388,-3.7737,-3.631,-3.6559,-3.6712,-3.6165,-3.6566,-3.6814,-3.6547,-3.7215,-3.7483,-3.6929,-3.7884,-3.8534,-3.8591,-3.7521,-3.6375,-3.5248,-3.5458,-3.5477,-3.5209,-3.5072,-3.4982,-3.4964,-3.4791,-3.4668,-3.4666,-3.4623,-3.4602,-3.4602,-3.4602,-3.4602,-3.4602,-3.4602,-3.4602,-3.4602,-3.4602,-3.4602,-3.4602,-3.4602,-3.4602,-3.4602,-3.4602,-3.5503,-3.6761,-3.7005,-3.8019,-3.9239,-3.9526,-3.9602,-3.9602,-3.9602,-3.9602,-3.9602,-3.9602,-3.9602,-3.9602,-3.9602,-3.9602,-3.9602,-3.9602,-3.9602,-3.9602,-3.9602,-3.9602,-3.9602,-3.9602,-3.9602,-3.9602,-3.9602,-3.9602,-3.9602,-3.9602,-3.9656,-3.9712,-3.9826,-3.9954,-4.0158,-4.0469,-4.0559,-4.0668,-4.0858,-4.0898,-4.0907,-4.0907,-4.0907,-4.0907,-4.0907,-4.0907,-4.0907,-4.0907,-4.0907,-4.0907,-4.0907,-4.0907,-4.1043,-4.1315,-4.1315,-4.1451,-4.1743,-4.2345,-4.2617,-4.2597,-4.2306,-4.2189,-4.2112,-4.1238,-4.1063,-4.1315,-4.1315,-4.1471,-4.1801,-3.8854,-3.8289,-3.77,-3.768,-3.7045,-3.6198,-3.5324,-3.5209,-3.5209,-3.5209,-3.5209,-3.5553,-3.6413,-3.7215,-3.7712,-3.7693,-3.9298,-3.9546,-3.7789,-3.7712,-3.6967,-3.5267,-3.6031,-3.6088,-3.5229,-3.5209,-3.516,-3.5092,-3.4983,-3.4869,-3.4788,-3.4666,-3.4602,-3.4602,-3.4602,-3.4602,-3.4602,-3.4602,-3.4602,-3.4602,-3.4602,-3.4602,-3.4602,-3.4602,-3.4602,-3.4602,-3.4602,-3.5165,-3.6028,-3.6817,-3.7624,-3.845,-3.9314,-3.9602,-3.9602,-3.9602,-3.9602,-3.9602,-3.9602,-3.9602,-3.9602,-3.9602,-3.9602,-3.9602,-3.9602,-3.9602,-3.9602,-3.9602,-3.9602,-3.9602,-3.9602,-3.9602,-3.9602,-3.9602,-3.9602,-3.9602,-3.9602,-3.9602,-3.9607,-3.9693,-3.9826,-3.9998,-4.027,-4.0469,-4.0648,-4.0788,-4.0858,-4.0907,-4.0907,-4.0907,-4.0907,-4.0907,-4.0907,-4.0907,-4.0907,-4.0907,-4.0907,-4.0907,-4.0907,-4.1354,-4.2189,-4.2209,-4.2675,-4.351,-4.351,-4.351,-4.3452,-4.2578,-4.2209,-4.2131,-4.1257,-4.1451,-4.2209,-4.2209,-4.2753,-4.351,-3.8049,-3.7887,-3.7527,-3.695,-3.6657,-3.6198,-3.5324,-3.5209,-3.542,-3.6031,-3.6126,-3.6222,-3.647,-3.7769,-3.8362,-3.775,-3.8725,-3.8667,-3.6967,-3.8534,-3.8228,-3.5324,-3.6031,-3.6088,-3.5229,-3.5143,-3.5127,-3.5092,-3.4927,-3.4829,-3.4788,-3.4666,-3.4602,-3.4602,-3.4602,-3.4602,-3.4602,-3.4602,-3.4602,-3.4602,-3.4602,-3.4602,-3.4602,-3.4602,-3.4602,-3.4602,-3.4602,-3.5165,-3.6028,-3.6817,-3.7624,-3.8357,-3.8601,-3.8694,-3.8694,-3.8694,-3.8694,-3.8694,-3.8694,-3.9126,-3.9602,-3.9602,-3.9602,-3.9602,-3.9602,-3.9602,-3.9602,-3.9602,-3.9602,-3.9602,-3.9602,-3.9602,-3.9602,-3.9602,-3.9602,-3.9602,-3.9602,-3.9602,-3.9607,-3.9693,-3.9739,-3.9918,-4.0315,-4.0412,-4.0577,-4.0858,-4.0898,-4.0907,-4.0907,-4.0907,-4.0907,-4.0907,-4.0907,-4.0907,-4.0907,-4.0907,-4.0907,-4.0907,-4.151,-4.1956,-4.2209,-4.283,-4.3258,-4.353,-4.4151,-4.4404,-4.4384,-4.4132,-4.4015,-4.3938,-4.3063,-4.2889,-4.3102,-4.3102,-4.3277,-4.3588,-3.7168,-3.6948,-3.6667,-3.6523,-3.6198,-3.5799,-3.5286,-3.5209,-3.54,-3.5935,-3.5993,-3.5993,-3.5993,-3.7196,-3.7655,-3.6795,-3.7808,-3.8209,-3.754,-3.926,-3.8935,-3.5859,-3.6528,-3.6432,-3.5229,-3.516,-3.5145,-3.5145,-3.4946,-3.483,-3.483,-3.4687,-3.4602,-3.4602,-3.4602,-3.4602,-3.4602,-3.4602,-3.4602,-3.4602,-3.4602,-3.4602,-3.4602,-3.4602,-3.4602,-3.4602,-3.4602,-3.494,-3.5503,-3.6348,-3.7155,-3.7831,-3.7831,-3.7831,-3.7831,-3.7831,-3.8056,-3.83,-3.83,-3.8939,-3.9526,-3.9164,-3.9333,-3.9526,-3.9145,-3.9333,-3.9602,-3.9602,-3.9602,-3.9602,-3.9602,-3.9602,-3.9602,-3.9602,-3.9602,-3.9602,-3.9602,-3.9602,-3.9626,-3.9661,-3.967,-3.9835,-4.021,-4.0345,-4.0679,-4.1364,-4.1412,-4.1568,-4.1917,-4.1937,-4.1937,-4.1937,-4.1937,-4.1937,-4.1937,-4.1937,-4.1762,-4.1412,-4.1956,-4.2558,-4.3238,-4.3763,-4.419,-4.452,-4.5045,-4.5258,-4.5239,-4.4928,-4.4792,-4.4715,-4.384,-4.3704,-4.4015,-4.4015,-4.4229,-4.4559,-3.6217,-3.5742,-3.5439,-3.6236,-3.5723,-3.5209,-3.5209,-3.5209,-3.5209,-3.5209,-3.5209,-3.5209,-3.5209,-3.5993,-3.6184,-3.54,-3.6852,-3.8151,-3.8954,-3.9737,-3.9088,-3.6623,-3.7196,-3.6833,-3.5229,-3.5193,-3.5193,-3.5193,-3.5001,-3.4889,-3.4889,-3.4689,-3.4602,-3.4602,-3.4602,-3.4602,-3.4602,-3.4602,-3.4602,-3.4602,-3.4602,-3.4602,-3.4602,-3.4602,-3.4602,-3.4602,-3.4602,-3.4602,-3.4733,-3.5615,-3.6423,-3.708,-3.7005,-3.6986,-3.6986,-3.6986,-3.7549,-3.8188,-3.8188,-3.8882,-3.9352,-3.8432,-3.8901,-3.9352,-3.8507,-3.8957,-3.9602,-3.9602,-3.9602,-3.9602,-3.9602,-3.9602,-3.9602,-3.9602,-3.9602,-3.9602,-3.9602,-3.9602,-3.9602,-3.9602,-3.9661,-3.9766,-3.9963,-4.0321,-4.1001,-4.2121,-4.2267,-4.2656,-4.3471,-4.351,-4.351,-4.351,-4.351,-4.351,-4.351,-4.351,-4.3102,-4.2325,-4.2403,-4.3258,-4.4792,-4.487,-4.5317,-4.5997,-4.5997,-4.5997,-4.5938,-4.52,-4.4909,-4.4831,-4.4035,-4.421,-4.4909,-4.4909,-4.5375,-4.5997,-3.5439,-3.5324,-3.5267,-3.5439,-3.5324,-3.5209,-3.5209,-3.5209,-3.5209,-3.5209,-3.5209,-3.5209,-3.5209,-3.5993,-3.6432,-3.6241,-3.775,-3.8801,-3.8992,-3.9183,-3.8457,-3.6585,-3.668,-3.6279,-3.5229,-3.5162,-3.5127,-3.5127,-3.4927,-3.4829,-3.4829,-3.4666,-3.4602,-3.4602,-3.4602,-3.4602,-3.4602,-3.4602,-3.4602,-3.4602,-3.4602,-3.4602,-3.4602,-3.4602,-3.4602,-3.4602,-3.4602,-3.4602,-3.4733,-3.5615,-3.6423,-3.6986,-3.6348,-3.616,-3.616,-3.616,-3.6723,-3.7361,-3.7361,-3.845,-3.9245,-3.7737,-3.8488,-3.9352,-3.8507,-3.8957,-3.9602,-3.9602,-3.9602,-3.9602,-3.9602,-3.9602,-3.9602,-3.9602,-3.9602,-3.9602,-3.9602,-3.9602,-3.9602,-3.9602,-3.9626,-3.9689,-3.9901,-4.0924,-4.1738,-4.216,-4.283,-4.3297,-4.3491,-4.351,-4.351,-4.351,-4.351,-4.351,-4.351,-4.351,-4.3413,-4.3238,-4.3918,-4.4423,-4.4812,-4.5453,-4.5841,-4.5997,-4.5997,-4.5997,-4.5977,-4.5802,-4.5744,-4.5725,-4.553,-4.5569,-4.5744,-4.5744,-4.5841,-4.5997,-3.5209,-3.5209,-3.5209,-3.5209,-3.5209,-3.5209,-3.5209,-3.5209,-3.5209,-3.5209,-3.5209,-3.5209,-3.5209,-3.5611,-3.605,-3.6453,-3.7311,-3.798,-3.8343,-3.8381,-3.7827,-3.6566,-3.6491,-3.6073,-3.5162,-3.5056,-3.5039,-3.5092,-3.4888,-3.4788,-3.4788,-3.4666,-3.4602,-3.4602,-3.4602,-3.4602,-3.4602,-3.4602,-3.4602,-3.4602,-3.4602,-3.4602,-3.4602,-3.4602,-3.4602,-3.4602,-3.4602,-3.4602,-3.4658,-3.5127,-3.5559,-3.5822,-3.5409,-3.5277,-3.5277,-3.5277,-3.5859,-3.661,-3.6986,-3.8019,-3.877,-3.7887,-3.8638,-3.9352,-3.8507,-3.8957,-3.9602,-3.9602,-3.9602,-3.9602,-3.9602,-3.9602,-3.9602,-3.9602,-3.9602,-3.9602,-3.9602,-3.9602,-3.9727,-4.0121,-4.0159,-4.0395,-4.1035,-4.1874,-4.2628,-4.3214,-4.3602,-4.4092,-4.4655,-4.4568,-4.4555,-4.4694,-4.4694,-4.4685,-4.4695,-4.4695,-4.4695,-4.4695,-4.4773,-4.5006,-4.5394,-4.5802,-4.5997,-4.5997,-4.5997,-4.5997,-4.5997,-4.5997,-4.5997,-4.5997,-4.5997,-4.5997,-4.5997,-4.5997,-4.5975,-4.5929,-3.4964,-3.4983,-3.504,-3.519,-3.5209,-3.5209,-3.5209,-3.5209,-3.5209,-3.5209,-3.5209,-3.5209,-3.5209,-3.5209,-3.5553,-3.6432,-3.6491,-3.6852,-3.7655,-3.7559,-3.7196,-3.6547,-3.6358,-3.5886,-3.5111,-3.4964,-3.4946,-3.5039,-3.4868,-3.4768,-3.4768,-3.4645,-3.4602,-3.4602,-3.4602,-3.4602,-3.4602,-3.4602,-3.4602,-3.4602,-3.4602,-3.4602,-3.4602,-3.4602,-3.4602,-3.4602,-3.4602,-3.4602,-3.4602,-3.4602,-3.4602,-3.4602,-3.4602,-3.4602,-3.4602,-3.4602,-3.5315,-3.6254,-3.6911,-3.7793,-3.8525,-3.8525,-3.907,-3.9408,-3.8694,-3.907,-3.9602,-3.9602,-3.9602,-3.9602,-3.9602,-3.969,-3.9802,-3.9802,-3.9915,-4.0009,-4.0009,-4.0009,-4.0253,-4.0929,-4.1004,-4.1374,-4.2325,-4.2793,-4.3401,-4.4276,-4.4369,-4.4839,-4.5886,-4.5713,-4.5713,-4.596,-4.5991,-4.5983,-4.5986,-4.5986,-4.5986,-4.5966,-4.5306,-4.5345,-4.5997,-4.5997,-4.5997,-4.5997,-4.5997,-4.5997,-4.5997,-4.5997,-4.5997,-4.5975,-4.5975,-4.5964,-4.5953,-4.5953,-4.5905,-4.5852,-3.4015,-3.4168,-3.4394,-3.5078,-3.5209,-3.5209,-3.5209,-3.5209,-3.5209,-3.5209,-3.5209,-3.5209,-3.5209,-3.5209,-3.5553,-3.6432,-3.6491,-3.6852,-3.7655,-3.7063,-3.6623,-3.6491,-3.5717,-3.5243,-3.5092,-3.4907,-3.4829,-3.4829,-3.4687,-3.4623,-3.4623,-3.4623,-3.4602,-3.4602,-3.4602,-3.4602,-3.4602,-3.4602,-3.4602,-3.4602,-3.4602,-3.4602,-3.4602,-3.4602,-3.4602,-3.4602,-3.4602,-3.4602,-3.4602,-3.4602,-3.4602,-3.4602,-3.4602,-3.4602,-3.4602,-3.4602,-3.5709,-3.6948,-3.7061,-3.8249,-3.9408,-3.9408,-3.9526,-3.9583,-3.9445,-3.9526,-3.9602,-3.9602,-3.9602,-3.9602,-3.9602,-4.0159,-4.0647,-4.0647,-4.1229,-4.1698,-4.1698,-4.1698,-4.1736,-4.183,-4.1822,-4.1996,-4.2363,-4.3118,-4.3725,-4.402,-4.4729,-4.53,-4.5634,-4.5619,-4.5699,-4.5917,-4.5917,-4.5917,-4.5898,-4.5898,-4.5898,-4.5898,-4.5801,-4.5836,-4.5997,-4.5997,-4.5997,-4.5997,-4.5997,-4.5997,-4.5997,-4.5997,-4.5972,-4.5919,-4.5919,-4.5847,-4.5742,-4.5742,-4.5727,-4.5731,-3.3914,-3.4353,-3.4792,-3.5152,-3.5209,-3.5209,-3.5209,-3.5209,-3.5209,-3.5209,-3.5209,-3.5209,-3.5209,-3.5209,-3.5362,-3.5744,-3.5783,-3.5916,-3.6279,-3.5974,-3.5749,-3.5734,-3.5319,-3.5039,-3.4927,-3.4849,-3.4768,-3.4687,-3.4623,-3.4602,-3.4602,-3.4602,-3.4602,-3.4602,-3.4602,-3.4602,-3.4602,-3.4602,-3.4602,-3.4602,-3.4602,-3.4602,-3.4602,-3.4602,-3.4602,-3.4602,-3.4602,-3.4602,-3.4602,-3.4602,-3.4602,-3.4602,-3.4602,-3.4602,-3.4695,-3.5184,-3.5503,-3.601,-3.738,-3.7981,-3.8437,-3.9376,-3.9602,-3.9733,-4.0159,-4.0272,-4.014,-3.9695,-3.9602,-3.9727,-4.0178,-4.0553,-4.0947,-4.1417,-4.1773,-4.1991,-4.1991,-4.1991,-4.2187,-4.2675,-4.3125,-4.3442,-4.3554,-4.3977,-4.4313,-4.4484,-4.4779,-4.5099,-4.536,-4.5227,-4.5247,-4.55,-4.55,-4.5536,-4.5552,-4.5552,-4.5552,-4.5552,-4.5552,-4.565,-4.5783,-4.5898,-4.5809,-4.5615,-4.5722,-4.5708,-4.5615,-4.5615,-4.5584,-4.5574,-4.5642,-4.5696,-4.57,-4.5618,-4.5601,-4.5584]}]]